<?xml version="1.0" encoding="UTF-8" standalone="no" ?>
<gpx xmlns="http://www.topografix.com/GPX/1/1" xmlns:xsi="http://www.w3.org/2001/XMLSchema-instance" xsi:schemaLocation="http://www.topografix.com/GPX/1/1 http://www.topografix.com/GPX/1/1/gpx.xsd" version="1.1" creator="VisuGPX - https://www.visugpx.com">
  <metadata>
    <name>Cirque d'Endieu-Les Capitelles</name>
    <desc><![CDATA[Départ parking sur D245 en bas de la côte avant d'arriver au Chassezac. Prendre le PR qui monte directement dans les éboulis vers l'ouest direction cote 238. Vue impressionnante sur le cirque d'Endieu. Descente jusqu'au Pontier et remonter par la corniche (qq passages délicats) et revenir au P. Prendre en face vers les rochers d'escalade et prendre le PR à gauche juste avant (mal indiqué) qui suit la falaise, d'abord en retrait puis au bord avec vues panaromiques sur les gorges. Retour le PR au NW jusqu'au Capitolles (burons en pierre). Reprendre vers le sud jusqu'à la route et le P.]]></desc>
  </metadata>
  <trk>
    <name><![CDATA[6 mai 2014 09:25:26]]></name>
    <cmt><![CDATA[6 mai 2014 09:25:26]]></cmt>
    <trkseg>
      <trkpt lat="44.40586" lon="4.19661">
        <ele>206</ele>
        <time>2014-05-06T07:25:26Z</time>
      </trkpt>
      <trkpt lat="44.40591" lon="4.19672">
        <ele>192</ele>
        <time>2014-05-06T07:26:05Z</time>
      </trkpt>
      <trkpt lat="44.40599" lon="4.19682">
        <ele>190</ele>
        <time>2014-05-06T07:26:08Z</time>
      </trkpt>
      <trkpt lat="44.40604" lon="4.19684">
        <ele>186</ele>
        <time>2014-05-06T07:26:13Z</time>
      </trkpt>
      <trkpt lat="44.40611" lon="4.19684">
        <ele>186</ele>
        <time>2014-05-06T07:26:18Z</time>
      </trkpt>
      <trkpt lat="44.40616" lon="4.19683">
        <ele>185</ele>
        <time>2014-05-06T07:26:21Z</time>
      </trkpt>
      <trkpt lat="44.40622" lon="4.19682">
        <ele>186</ele>
        <time>2014-05-06T07:26:26Z</time>
      </trkpt>
      <trkpt lat="44.40626" lon="4.19677">
        <ele>186</ele>
        <time>2014-05-06T07:26:39Z</time>
      </trkpt>
      <trkpt lat="44.40632" lon="4.19675">
        <ele>188</ele>
        <time>2014-05-06T07:27:03Z</time>
      </trkpt>
      <trkpt lat="44.40636" lon="4.19676">
        <ele>190</ele>
        <time>2014-05-06T07:27:12Z</time>
      </trkpt>
      <trkpt lat="44.40637" lon="4.19671">
        <ele>192</ele>
        <time>2014-05-06T07:27:23Z</time>
      </trkpt>
      <trkpt lat="44.40639" lon="4.19668">
        <ele>192</ele>
        <time>2014-05-06T07:27:35Z</time>
      </trkpt>
      <trkpt lat="44.40642" lon="4.19663">
        <ele>191</ele>
        <time>2014-05-06T07:27:45Z</time>
      </trkpt>
      <trkpt lat="44.40645" lon="4.19665">
        <ele>189</ele>
        <time>2014-05-06T07:28:08Z</time>
      </trkpt>
      <trkpt lat="44.40647" lon="4.19658">
        <ele>194</ele>
        <time>2014-05-06T07:28:37Z</time>
      </trkpt>
      <trkpt lat="44.40649" lon="4.19651">
        <ele>195</ele>
        <time>2014-05-06T07:28:50Z</time>
      </trkpt>
      <trkpt lat="44.40646" lon="4.19649">
        <ele>196</ele>
        <time>2014-05-06T07:29:01Z</time>
      </trkpt>
      <trkpt lat="44.40648" lon="4.19642">
        <ele>195</ele>
        <time>2014-05-06T07:29:07Z</time>
      </trkpt>
      <trkpt lat="44.40649" lon="4.19634">
        <ele>194</ele>
        <time>2014-05-06T07:29:16Z</time>
      </trkpt>
      <trkpt lat="44.40655" lon="4.19624">
        <ele>202</ele>
        <time>2014-05-06T07:29:35Z</time>
      </trkpt>
      <trkpt lat="44.40662" lon="4.1963">
        <ele>202</ele>
        <time>2014-05-06T07:30:12Z</time>
      </trkpt>
      <trkpt lat="44.40666" lon="4.19627">
        <ele>203</ele>
        <time>2014-05-06T07:30:39Z</time>
      </trkpt>
      <trkpt lat="44.40668" lon="4.19622">
        <ele>205</ele>
        <time>2014-05-06T07:30:50Z</time>
      </trkpt>
      <trkpt lat="44.40668" lon="4.19618">
        <ele>206</ele>
        <time>2014-05-06T07:31:18Z</time>
      </trkpt>
      <trkpt lat="44.4067" lon="4.19614">
        <ele>208</ele>
        <time>2014-05-06T07:31:34Z</time>
      </trkpt>
      <trkpt lat="44.40672" lon="4.19611">
        <ele>208</ele>
        <time>2014-05-06T07:31:41Z</time>
      </trkpt>
      <trkpt lat="44.40673" lon="4.19605">
        <ele>208</ele>
        <time>2014-05-06T07:31:58Z</time>
      </trkpt>
      <trkpt lat="44.40667" lon="4.19596">
        <ele>210</ele>
        <time>2014-05-06T07:32:15Z</time>
      </trkpt>
      <trkpt lat="44.40668" lon="4.19591">
        <ele>209</ele>
        <time>2014-05-06T07:32:24Z</time>
      </trkpt>
      <trkpt lat="44.4067" lon="4.19584">
        <ele>207</ele>
        <time>2014-05-06T07:32:38Z</time>
      </trkpt>
      <trkpt lat="44.40669" lon="4.19573">
        <ele>208</ele>
        <time>2014-05-06T07:32:59Z</time>
      </trkpt>
      <trkpt lat="44.4067" lon="4.19567">
        <ele>209</ele>
        <time>2014-05-06T07:33:14Z</time>
      </trkpt>
      <trkpt lat="44.40673" lon="4.19562">
        <ele>211</ele>
        <time>2014-05-06T07:33:36Z</time>
      </trkpt>
      <trkpt lat="44.40674" lon="4.19549">
        <ele>216</ele>
        <time>2014-05-06T07:34:10Z</time>
      </trkpt>
      <trkpt lat="44.40677" lon="4.19544">
        <ele>217</ele>
        <time>2014-05-06T07:34:20Z</time>
      </trkpt>
      <trkpt lat="44.4068" lon="4.19541">
        <ele>217</ele>
        <time>2014-05-06T07:34:28Z</time>
      </trkpt>
      <trkpt lat="44.40682" lon="4.19534">
        <ele>218</ele>
        <time>2014-05-06T07:34:36Z</time>
      </trkpt>
      <trkpt lat="44.40685" lon="4.19529">
        <ele>218</ele>
        <time>2014-05-06T07:34:43Z</time>
      </trkpt>
      <trkpt lat="44.40686" lon="4.19522">
        <ele>218</ele>
        <time>2014-05-06T07:34:51Z</time>
      </trkpt>
      <trkpt lat="44.40687" lon="4.19515">
        <ele>220</ele>
        <time>2014-05-06T07:34:58Z</time>
      </trkpt>
      <trkpt lat="44.4069" lon="4.1951">
        <ele>220</ele>
        <time>2014-05-06T07:35:05Z</time>
      </trkpt>
      <trkpt lat="44.40691" lon="4.19503">
        <ele>220</ele>
        <time>2014-05-06T07:35:11Z</time>
      </trkpt>
      <trkpt lat="44.40693" lon="4.19497">
        <ele>219</ele>
        <time>2014-05-06T07:35:20Z</time>
      </trkpt>
      <trkpt lat="44.40697" lon="4.19491">
        <ele>219</ele>
        <time>2014-05-06T07:35:25Z</time>
      </trkpt>
      <trkpt lat="44.40699" lon="4.19484">
        <ele>218</ele>
        <time>2014-05-06T07:35:30Z</time>
      </trkpt>
      <trkpt lat="44.40701" lon="4.19478">
        <ele>217</ele>
        <time>2014-05-06T07:35:35Z</time>
      </trkpt>
      <trkpt lat="44.40703" lon="4.19472">
        <ele>216</ele>
        <time>2014-05-06T07:35:40Z</time>
      </trkpt>
      <trkpt lat="44.40705" lon="4.19465">
        <ele>216</ele>
        <time>2014-05-06T07:35:44Z</time>
      </trkpt>
      <trkpt lat="44.40706" lon="4.19457">
        <ele>217</ele>
        <time>2014-05-06T07:35:50Z</time>
      </trkpt>
      <trkpt lat="44.40708" lon="4.19451">
        <ele>216</ele>
        <time>2014-05-06T07:35:54Z</time>
      </trkpt>
      <trkpt lat="44.40712" lon="4.19447">
        <ele>216</ele>
        <time>2014-05-06T07:36:00Z</time>
      </trkpt>
      <trkpt lat="44.40712" lon="4.19443">
        <ele>215</ele>
        <time>2014-05-06T07:36:23Z</time>
      </trkpt>
      <trkpt lat="44.40716" lon="4.19442">
        <ele>216</ele>
        <time>2014-05-06T07:36:45Z</time>
      </trkpt>
      <trkpt lat="44.40716" lon="4.19438">
        <ele>216</ele>
        <time>2014-05-06T07:37:14Z</time>
      </trkpt>
      <trkpt lat="44.40718" lon="4.19435">
        <ele>215</ele>
        <time>2014-05-06T07:37:37Z</time>
      </trkpt>
      <trkpt lat="44.40719" lon="4.19432">
        <ele>214</ele>
        <time>2014-05-06T07:37:53Z</time>
      </trkpt>
      <trkpt lat="44.40721" lon="4.19424">
        <ele>215</ele>
        <time>2014-05-06T07:40:18Z</time>
      </trkpt>
      <trkpt lat="44.40722" lon="4.19412">
        <ele>217</ele>
        <time>2014-05-06T07:40:50Z</time>
      </trkpt>
      <trkpt lat="44.40725" lon="4.19407">
        <ele>217</ele>
        <time>2014-05-06T07:40:58Z</time>
      </trkpt>
      <trkpt lat="44.40728" lon="4.19405">
        <ele>214</ele>
        <time>2014-05-06T07:41:09Z</time>
      </trkpt>
      <trkpt lat="44.40727" lon="4.19401">
        <ele>213</ele>
        <time>2014-05-06T07:41:31Z</time>
      </trkpt>
      <trkpt lat="44.40731" lon="4.19396">
        <ele>212</ele>
        <time>2014-05-06T07:42:04Z</time>
      </trkpt>
      <trkpt lat="44.40736" lon="4.19388">
        <ele>211</ele>
        <time>2014-05-06T07:42:49Z</time>
      </trkpt>
      <trkpt lat="44.40736" lon="4.19382">
        <ele>210</ele>
        <time>2014-05-06T07:43:24Z</time>
      </trkpt>
      <trkpt lat="44.40739" lon="4.19375">
        <ele>210</ele>
        <time>2014-05-06T07:43:36Z</time>
      </trkpt>
      <trkpt lat="44.40742" lon="4.1937">
        <ele>211</ele>
        <time>2014-05-06T07:43:42Z</time>
      </trkpt>
      <trkpt lat="44.40743" lon="4.19361">
        <ele>212</ele>
        <time>2014-05-06T07:43:52Z</time>
      </trkpt>
      <trkpt lat="44.40743" lon="4.19357">
        <ele>213</ele>
        <time>2014-05-06T07:44:15Z</time>
      </trkpt>
      <trkpt lat="44.40748" lon="4.19348">
        <ele>216</ele>
        <time>2014-05-06T07:44:59Z</time>
      </trkpt>
      <trkpt lat="44.40748" lon="4.19344">
        <ele>216</ele>
        <time>2014-05-06T07:45:06Z</time>
      </trkpt>
      <trkpt lat="44.4075" lon="4.19342">
        <ele>216</ele>
        <time>2014-05-06T07:45:12Z</time>
      </trkpt>
      <trkpt lat="44.40753" lon="4.1933">
        <ele>217</ele>
        <time>2014-05-06T07:45:27Z</time>
      </trkpt>
      <trkpt lat="44.40754" lon="4.19321">
        <ele>217</ele>
        <time>2014-05-06T07:45:43Z</time>
      </trkpt>
      <trkpt lat="44.40756" lon="4.19318">
        <ele>219</ele>
        <time>2014-05-06T07:45:59Z</time>
      </trkpt>
      <trkpt lat="44.4076" lon="4.19315">
        <ele>220</ele>
        <time>2014-05-06T07:46:06Z</time>
      </trkpt>
      <trkpt lat="44.40761" lon="4.19312">
        <ele>221</ele>
        <time>2014-05-06T07:46:17Z</time>
      </trkpt>
      <trkpt lat="44.40761" lon="4.19309">
        <ele>220</ele>
        <time>2014-05-06T07:46:23Z</time>
      </trkpt>
      <trkpt lat="44.40761" lon="4.193">
        <ele>221</ele>
        <time>2014-05-06T07:47:04Z</time>
      </trkpt>
      <trkpt lat="44.40762" lon="4.19293">
        <ele>221</ele>
        <time>2014-05-06T07:47:10Z</time>
      </trkpt>
      <trkpt lat="44.40763" lon="4.19287">
        <ele>221</ele>
        <time>2014-05-06T07:47:15Z</time>
      </trkpt>
      <trkpt lat="44.40765" lon="4.19284">
        <ele>221</ele>
        <time>2014-05-06T07:47:22Z</time>
      </trkpt>
      <trkpt lat="44.40769" lon="4.1928">
        <ele>222</ele>
        <time>2014-05-06T07:48:12Z</time>
      </trkpt>
      <trkpt lat="44.4077" lon="4.19273">
        <ele>224</ele>
        <time>2014-05-06T07:48:26Z</time>
      </trkpt>
      <trkpt lat="44.40771" lon="4.19267">
        <ele>225</ele>
        <time>2014-05-06T07:48:38Z</time>
      </trkpt>
      <trkpt lat="44.40777" lon="4.1926">
        <ele>226</ele>
        <time>2014-05-06T07:49:06Z</time>
      </trkpt>
      <trkpt lat="44.4078" lon="4.19255">
        <ele>224</ele>
        <time>2014-05-06T07:49:13Z</time>
      </trkpt>
      <trkpt lat="44.40784" lon="4.19253">
        <ele>224</ele>
        <time>2014-05-06T07:49:23Z</time>
      </trkpt>
      <trkpt lat="44.40787" lon="4.19251">
        <ele>223</ele>
        <time>2014-05-06T07:49:34Z</time>
      </trkpt>
      <trkpt lat="44.40792" lon="4.1925">
        <ele>223</ele>
        <time>2014-05-06T07:49:43Z</time>
      </trkpt>
      <trkpt lat="44.40797" lon="4.19247">
        <ele>225</ele>
        <time>2014-05-06T07:49:53Z</time>
      </trkpt>
      <trkpt lat="44.40802" lon="4.19248">
        <ele>228</ele>
        <time>2014-05-06T07:50:08Z</time>
      </trkpt>
      <trkpt lat="44.40808" lon="4.19248">
        <ele>227</ele>
        <time>2014-05-06T07:50:20Z</time>
      </trkpt>
      <trkpt lat="44.40811" lon="4.19249">
        <ele>226</ele>
        <time>2014-05-06T07:50:26Z</time>
      </trkpt>
      <trkpt lat="44.40818" lon="4.1925">
        <ele>227</ele>
        <time>2014-05-06T07:50:41Z</time>
      </trkpt>
      <trkpt lat="44.40831" lon="4.19249">
        <ele>233</ele>
        <time>2014-05-06T07:51:27Z</time>
      </trkpt>
      <trkpt lat="44.40835" lon="4.19254">
        <ele>233</ele>
        <time>2014-05-06T07:51:46Z</time>
      </trkpt>
      <trkpt lat="44.40838" lon="4.19256">
        <ele>232</ele>
        <time>2014-05-06T07:51:57Z</time>
      </trkpt>
      <trkpt lat="44.40841" lon="4.19255">
        <ele>232</ele>
        <time>2014-05-06T07:52:04Z</time>
      </trkpt>
      <trkpt lat="44.40846" lon="4.19255">
        <ele>232</ele>
        <time>2014-05-06T07:52:11Z</time>
      </trkpt>
      <trkpt lat="44.40848" lon="4.19253">
        <ele>232</ele>
        <time>2014-05-06T07:52:17Z</time>
      </trkpt>
      <trkpt lat="44.40849" lon="4.19249">
        <ele>233</ele>
        <time>2014-05-06T07:52:28Z</time>
      </trkpt>
      <trkpt lat="44.40851" lon="4.19247">
        <ele>233</ele>
        <time>2014-05-06T07:52:34Z</time>
      </trkpt>
      <trkpt lat="44.40854" lon="4.19236">
        <ele>233</ele>
        <time>2014-05-06T07:52:51Z</time>
      </trkpt>
      <trkpt lat="44.40856" lon="4.19229">
        <ele>233</ele>
        <time>2014-05-06T07:52:57Z</time>
      </trkpt>
      <trkpt lat="44.40858" lon="4.19222">
        <ele>233</ele>
        <time>2014-05-06T07:53:05Z</time>
      </trkpt>
      <trkpt lat="44.40862" lon="4.19216">
        <ele>232</ele>
        <time>2014-05-06T07:53:12Z</time>
      </trkpt>
      <trkpt lat="44.40868" lon="4.19213">
        <ele>233</ele>
        <time>2014-05-06T07:53:18Z</time>
      </trkpt>
      <trkpt lat="44.40872" lon="4.19208">
        <ele>235</ele>
        <time>2014-05-06T07:53:24Z</time>
      </trkpt>
      <trkpt lat="44.40876" lon="4.19207">
        <ele>233</ele>
        <time>2014-05-06T07:53:30Z</time>
      </trkpt>
      <trkpt lat="44.40882" lon="4.19207">
        <ele>232</ele>
        <time>2014-05-06T07:53:37Z</time>
      </trkpt>
      <trkpt lat="44.40888" lon="4.19207">
        <ele>230</ele>
        <time>2014-05-06T07:53:46Z</time>
      </trkpt>
      <trkpt lat="44.40892" lon="4.19207">
        <ele>231</ele>
        <time>2014-05-06T07:53:54Z</time>
      </trkpt>
      <trkpt lat="44.40897" lon="4.19207">
        <ele>232</ele>
        <time>2014-05-06T07:54:00Z</time>
      </trkpt>
      <trkpt lat="44.40902" lon="4.19208">
        <ele>233</ele>
        <time>2014-05-06T07:54:05Z</time>
      </trkpt>
      <trkpt lat="44.40907" lon="4.19208">
        <ele>232</ele>
        <time>2014-05-06T07:54:11Z</time>
      </trkpt>
      <trkpt lat="44.40912" lon="4.19207">
        <ele>232</ele>
        <time>2014-05-06T07:54:18Z</time>
      </trkpt>
      <trkpt lat="44.40917" lon="4.19207">
        <ele>233</ele>
        <time>2014-05-06T07:54:26Z</time>
      </trkpt>
      <trkpt lat="44.40923" lon="4.19206">
        <ele>233</ele>
        <time>2014-05-06T07:54:31Z</time>
      </trkpt>
      <trkpt lat="44.40928" lon="4.19205">
        <ele>233</ele>
        <time>2014-05-06T07:54:38Z</time>
      </trkpt>
      <trkpt lat="44.40934" lon="4.19204">
        <ele>232</ele>
        <time>2014-05-06T07:54:48Z</time>
      </trkpt>
      <trkpt lat="44.40939" lon="4.19203">
        <ele>232</ele>
        <time>2014-05-06T07:54:51Z</time>
      </trkpt>
      <trkpt lat="44.40942" lon="4.19204">
        <ele>230</ele>
        <time>2014-05-06T07:54:58Z</time>
      </trkpt>
      <trkpt lat="44.40947" lon="4.19202">
        <ele>228</ele>
        <time>2014-05-06T07:55:01Z</time>
      </trkpt>
      <trkpt lat="44.40953" lon="4.19199">
        <ele>229</ele>
        <time>2014-05-06T07:55:10Z</time>
      </trkpt>
      <trkpt lat="44.40959" lon="4.19196">
        <ele>230</ele>
        <time>2014-05-06T07:55:21Z</time>
      </trkpt>
      <trkpt lat="44.40962" lon="4.19189">
        <ele>232</ele>
        <time>2014-05-06T07:55:30Z</time>
      </trkpt>
      <trkpt lat="44.40965" lon="4.19183">
        <ele>233</ele>
        <time>2014-05-06T07:55:34Z</time>
      </trkpt>
      <trkpt lat="44.40966" lon="4.19172">
        <ele>234</ele>
        <time>2014-05-06T07:55:44Z</time>
      </trkpt>
      <trkpt lat="44.40968" lon="4.19165">
        <ele>235</ele>
        <time>2014-05-06T07:55:52Z</time>
      </trkpt>
      <trkpt lat="44.40968" lon="4.19159">
        <ele>234</ele>
        <time>2014-05-06T07:55:58Z</time>
      </trkpt>
      <trkpt lat="44.40969" lon="4.19155">
        <ele>233</ele>
        <time>2014-05-06T07:56:04Z</time>
      </trkpt>
      <trkpt lat="44.40966" lon="4.19153">
        <ele>235</ele>
        <time>2014-05-06T07:57:17Z</time>
      </trkpt>
      <trkpt lat="44.4097" lon="4.19145">
        <ele>234</ele>
        <time>2014-05-06T07:57:34Z</time>
      </trkpt>
      <trkpt lat="44.40975" lon="4.19133">
        <ele>232</ele>
        <time>2014-05-06T07:57:44Z</time>
      </trkpt>
      <trkpt lat="44.40978" lon="4.19129">
        <ele>232</ele>
        <time>2014-05-06T07:57:50Z</time>
      </trkpt>
      <trkpt lat="44.40985" lon="4.19122">
        <ele>231</ele>
        <time>2014-05-06T07:58:00Z</time>
      </trkpt>
      <trkpt lat="44.40991" lon="4.19118">
        <ele>230</ele>
        <time>2014-05-06T07:58:07Z</time>
      </trkpt>
      <trkpt lat="44.40998" lon="4.19116">
        <ele>231</ele>
        <time>2014-05-06T07:58:13Z</time>
      </trkpt>
      <trkpt lat="44.41003" lon="4.19113">
        <ele>231</ele>
        <time>2014-05-06T07:58:19Z</time>
      </trkpt>
      <trkpt lat="44.41007" lon="4.1911">
        <ele>230</ele>
        <time>2014-05-06T07:58:24Z</time>
      </trkpt>
      <trkpt lat="44.41012" lon="4.19106">
        <ele>229</ele>
        <time>2014-05-06T07:58:29Z</time>
      </trkpt>
      <trkpt lat="44.41017" lon="4.19102">
        <ele>229</ele>
        <time>2014-05-06T07:58:36Z</time>
      </trkpt>
      <trkpt lat="44.41022" lon="4.191">
        <ele>229</ele>
        <time>2014-05-06T07:58:43Z</time>
      </trkpt>
      <trkpt lat="44.41027" lon="4.19099">
        <ele>230</ele>
        <time>2014-05-06T07:58:48Z</time>
      </trkpt>
      <trkpt lat="44.41032" lon="4.19097">
        <ele>231</ele>
        <time>2014-05-06T07:58:54Z</time>
      </trkpt>
      <trkpt lat="44.41037" lon="4.19096">
        <ele>231</ele>
        <time>2014-05-06T07:59:00Z</time>
      </trkpt>
      <trkpt lat="44.41042" lon="4.19096">
        <ele>231</ele>
        <time>2014-05-06T07:59:05Z</time>
      </trkpt>
      <trkpt lat="44.41046" lon="4.19096">
        <ele>232</ele>
        <time>2014-05-06T07:59:11Z</time>
      </trkpt>
      <trkpt lat="44.41051" lon="4.19094">
        <ele>233</ele>
        <time>2014-05-06T07:59:17Z</time>
      </trkpt>
      <trkpt lat="44.41058" lon="4.19095">
        <ele>233</ele>
        <time>2014-05-06T07:59:28Z</time>
      </trkpt>
      <trkpt lat="44.41062" lon="4.19095">
        <ele>235</ele>
        <time>2014-05-06T07:59:35Z</time>
      </trkpt>
      <trkpt lat="44.41067" lon="4.19095">
        <ele>236</ele>
        <time>2014-05-06T07:59:41Z</time>
      </trkpt>
      <trkpt lat="44.41071" lon="4.19097">
        <ele>236</ele>
        <time>2014-05-06T07:59:46Z</time>
      </trkpt>
      <trkpt lat="44.41077" lon="4.19097">
        <ele>238</ele>
        <time>2014-05-06T07:59:53Z</time>
      </trkpt>
      <trkpt lat="44.41082" lon="4.19099">
        <ele>239</ele>
        <time>2014-05-06T07:59:59Z</time>
      </trkpt>
      <trkpt lat="44.41086" lon="4.19101">
        <ele>238</ele>
        <time>2014-05-06T08:00:03Z</time>
      </trkpt>
      <trkpt lat="44.4109" lon="4.19104">
        <ele>239</ele>
        <time>2014-05-06T08:00:07Z</time>
      </trkpt>
      <trkpt lat="44.41095" lon="4.19107">
        <ele>240</ele>
        <time>2014-05-06T08:00:13Z</time>
      </trkpt>
      <trkpt lat="44.41099" lon="4.19109">
        <ele>240</ele>
        <time>2014-05-06T08:00:18Z</time>
      </trkpt>
      <trkpt lat="44.41104" lon="4.19109">
        <ele>241</ele>
        <time>2014-05-06T08:00:22Z</time>
      </trkpt>
      <trkpt lat="44.41108" lon="4.1911">
        <ele>241</ele>
        <time>2014-05-06T08:00:26Z</time>
      </trkpt>
      <trkpt lat="44.41115" lon="4.19113">
        <ele>240</ele>
        <time>2014-05-06T08:00:33Z</time>
      </trkpt>
      <trkpt lat="44.41121" lon="4.19113">
        <ele>240</ele>
        <time>2014-05-06T08:00:39Z</time>
      </trkpt>
      <trkpt lat="44.41126" lon="4.1911">
        <ele>239</ele>
        <time>2014-05-06T08:00:45Z</time>
      </trkpt>
      <trkpt lat="44.41129" lon="4.19105">
        <ele>239</ele>
        <time>2014-05-06T08:00:52Z</time>
      </trkpt>
      <trkpt lat="44.41129" lon="4.19097">
        <ele>240</ele>
        <time>2014-05-06T08:00:57Z</time>
      </trkpt>
      <trkpt lat="44.41128" lon="4.19089">
        <ele>240</ele>
        <time>2014-05-06T08:01:02Z</time>
      </trkpt>
      <trkpt lat="44.41127" lon="4.19083">
        <ele>241</ele>
        <time>2014-05-06T08:01:07Z</time>
      </trkpt>
      <trkpt lat="44.41126" lon="4.19075">
        <ele>240</ele>
        <time>2014-05-06T08:01:19Z</time>
      </trkpt>
      <trkpt lat="44.41127" lon="4.19072">
        <ele>240</ele>
        <time>2014-05-06T08:01:25Z</time>
      </trkpt>
      <trkpt lat="44.41128" lon="4.19076">
        <ele>241</ele>
        <time>2014-05-06T08:03:38Z</time>
      </trkpt>
      <trkpt lat="44.41125" lon="4.19073">
        <ele>238</ele>
        <time>2014-05-06T08:07:15Z</time>
      </trkpt>
      <trkpt lat="44.41123" lon="4.19067">
        <ele>238</ele>
        <time>2014-05-06T08:07:21Z</time>
      </trkpt>
      <trkpt lat="44.4112" lon="4.1906">
        <ele>238</ele>
        <time>2014-05-06T08:07:26Z</time>
      </trkpt>
      <trkpt lat="44.41117" lon="4.19055">
        <ele>239</ele>
        <time>2014-05-06T08:07:30Z</time>
      </trkpt>
      <trkpt lat="44.41116" lon="4.19047">
        <ele>240</ele>
        <time>2014-05-06T08:07:36Z</time>
      </trkpt>
      <trkpt lat="44.41114" lon="4.19041">
        <ele>240</ele>
        <time>2014-05-06T08:07:39Z</time>
      </trkpt>
      <trkpt lat="44.41113" lon="4.19033">
        <ele>240</ele>
        <time>2014-05-06T08:07:44Z</time>
      </trkpt>
      <trkpt lat="44.4111" lon="4.19027">
        <ele>240</ele>
        <time>2014-05-06T08:07:49Z</time>
      </trkpt>
      <trkpt lat="44.41108" lon="4.19021">
        <ele>240</ele>
        <time>2014-05-06T08:07:54Z</time>
      </trkpt>
      <trkpt lat="44.41105" lon="4.19016">
        <ele>241</ele>
        <time>2014-05-06T08:07:58Z</time>
      </trkpt>
      <trkpt lat="44.41101" lon="4.1901">
        <ele>241</ele>
        <time>2014-05-06T08:08:02Z</time>
      </trkpt>
      <trkpt lat="44.41097" lon="4.19005">
        <ele>241</ele>
        <time>2014-05-06T08:08:06Z</time>
      </trkpt>
      <trkpt lat="44.41092" lon="4.18999">
        <ele>242</ele>
        <time>2014-05-06T08:08:11Z</time>
      </trkpt>
      <trkpt lat="44.41089" lon="4.18994">
        <ele>242</ele>
        <time>2014-05-06T08:08:16Z</time>
      </trkpt>
      <trkpt lat="44.41086" lon="4.18988">
        <ele>241</ele>
        <time>2014-05-06T08:08:21Z</time>
      </trkpt>
      <trkpt lat="44.41082" lon="4.18983">
        <ele>241</ele>
        <time>2014-05-06T08:08:25Z</time>
      </trkpt>
      <trkpt lat="44.41078" lon="4.1898">
        <ele>241</ele>
        <time>2014-05-06T08:08:29Z</time>
      </trkpt>
      <trkpt lat="44.41073" lon="4.18975">
        <ele>241</ele>
        <time>2014-05-06T08:08:34Z</time>
      </trkpt>
      <trkpt lat="44.41068" lon="4.18971">
        <ele>241</ele>
        <time>2014-05-06T08:08:40Z</time>
      </trkpt>
      <trkpt lat="44.41064" lon="4.18965">
        <ele>241</ele>
        <time>2014-05-06T08:08:47Z</time>
      </trkpt>
      <trkpt lat="44.4106" lon="4.18962">
        <ele>241</ele>
        <time>2014-05-06T08:08:52Z</time>
      </trkpt>
      <trkpt lat="44.41056" lon="4.18961">
        <ele>241</ele>
        <time>2014-05-06T08:08:56Z</time>
      </trkpt>
      <trkpt lat="44.41051" lon="4.18957">
        <ele>239</ele>
        <time>2014-05-06T08:09:01Z</time>
      </trkpt>
      <trkpt lat="44.4105" lon="4.1895">
        <ele>239</ele>
        <time>2014-05-06T08:09:05Z</time>
      </trkpt>
      <trkpt lat="44.41052" lon="4.18944">
        <ele>238</ele>
        <time>2014-05-06T08:09:10Z</time>
      </trkpt>
      <trkpt lat="44.41055" lon="4.18937">
        <ele>238</ele>
        <time>2014-05-06T08:09:15Z</time>
      </trkpt>
      <trkpt lat="44.41056" lon="4.18931">
        <ele>239</ele>
        <time>2014-05-06T08:09:20Z</time>
      </trkpt>
      <trkpt lat="44.41057" lon="4.18924">
        <ele>239</ele>
        <time>2014-05-06T08:09:24Z</time>
      </trkpt>
      <trkpt lat="44.41057" lon="4.18917">
        <ele>239</ele>
        <time>2014-05-06T08:09:29Z</time>
      </trkpt>
      <trkpt lat="44.41056" lon="4.1891">
        <ele>238</ele>
        <time>2014-05-06T08:09:34Z</time>
      </trkpt>
      <trkpt lat="44.41054" lon="4.18903">
        <ele>238</ele>
        <time>2014-05-06T08:09:39Z</time>
      </trkpt>
      <trkpt lat="44.41053" lon="4.18895">
        <ele>238</ele>
        <time>2014-05-06T08:09:44Z</time>
      </trkpt>
      <trkpt lat="44.41054" lon="4.18889">
        <ele>239</ele>
        <time>2014-05-06T08:09:52Z</time>
      </trkpt>
      <trkpt lat="44.41055" lon="4.18882">
        <ele>240</ele>
        <time>2014-05-06T08:09:58Z</time>
      </trkpt>
      <trkpt lat="44.41059" lon="4.18878">
        <ele>241</ele>
        <time>2014-05-06T08:10:04Z</time>
      </trkpt>
      <trkpt lat="44.41063" lon="4.18874">
        <ele>240</ele>
        <time>2014-05-06T08:10:11Z</time>
      </trkpt>
      <trkpt lat="44.41066" lon="4.18866">
        <ele>240</ele>
        <time>2014-05-06T08:10:17Z</time>
      </trkpt>
      <trkpt lat="44.41069" lon="4.18859">
        <ele>241</ele>
        <time>2014-05-06T08:10:23Z</time>
      </trkpt>
      <trkpt lat="44.41072" lon="4.18853">
        <ele>242</ele>
        <time>2014-05-06T08:10:29Z</time>
      </trkpt>
      <trkpt lat="44.41077" lon="4.18845">
        <ele>241</ele>
        <time>2014-05-06T08:10:38Z</time>
      </trkpt>
      <trkpt lat="44.41082" lon="4.18841">
        <ele>240</ele>
        <time>2014-05-06T08:10:44Z</time>
      </trkpt>
      <trkpt lat="44.41087" lon="4.18839">
        <ele>242</ele>
        <time>2014-05-06T08:10:49Z</time>
      </trkpt>
      <trkpt lat="44.41093" lon="4.18839">
        <ele>244</ele>
        <time>2014-05-06T08:10:55Z</time>
      </trkpt>
      <trkpt lat="44.41098" lon="4.18838">
        <ele>243</ele>
        <time>2014-05-06T08:10:59Z</time>
      </trkpt>
      <trkpt lat="44.41103" lon="4.18836">
        <ele>243</ele>
        <time>2014-05-06T08:11:04Z</time>
      </trkpt>
      <trkpt lat="44.41108" lon="4.18835">
        <ele>242</ele>
        <time>2014-05-06T08:11:09Z</time>
      </trkpt>
      <trkpt lat="44.41113" lon="4.18834">
        <ele>241</ele>
        <time>2014-05-06T08:11:14Z</time>
      </trkpt>
      <trkpt lat="44.41119" lon="4.18835">
        <ele>240</ele>
        <time>2014-05-06T08:11:25Z</time>
      </trkpt>
      <trkpt lat="44.41124" lon="4.18834">
        <ele>241</ele>
        <time>2014-05-06T08:11:31Z</time>
      </trkpt>
      <trkpt lat="44.41129" lon="4.18836">
        <ele>240</ele>
        <time>2014-05-06T08:11:36Z</time>
      </trkpt>
      <trkpt lat="44.41134" lon="4.18837">
        <ele>240</ele>
        <time>2014-05-06T08:11:41Z</time>
      </trkpt>
      <trkpt lat="44.41138" lon="4.18838">
        <ele>240</ele>
        <time>2014-05-06T08:11:46Z</time>
      </trkpt>
      <trkpt lat="44.41144" lon="4.18839">
        <ele>239</ele>
        <time>2014-05-06T08:11:52Z</time>
      </trkpt>
      <trkpt lat="44.41149" lon="4.18838">
        <ele>239</ele>
        <time>2014-05-06T08:11:58Z</time>
      </trkpt>
      <trkpt lat="44.41153" lon="4.1884">
        <ele>240</ele>
        <time>2014-05-06T08:12:03Z</time>
      </trkpt>
      <trkpt lat="44.41158" lon="4.18841">
        <ele>241</ele>
        <time>2014-05-06T08:12:09Z</time>
      </trkpt>
      <trkpt lat="44.41163" lon="4.18841">
        <ele>242</ele>
        <time>2014-05-06T08:12:15Z</time>
      </trkpt>
      <trkpt lat="44.41167" lon="4.18842">
        <ele>242</ele>
        <time>2014-05-06T08:12:27Z</time>
      </trkpt>
      <trkpt lat="44.41172" lon="4.18838">
        <ele>241</ele>
        <time>2014-05-06T08:12:34Z</time>
      </trkpt>
      <trkpt lat="44.41175" lon="4.18833">
        <ele>240</ele>
        <time>2014-05-06T08:12:40Z</time>
      </trkpt>
      <trkpt lat="44.4118" lon="4.18825">
        <ele>239</ele>
        <time>2014-05-06T08:12:48Z</time>
      </trkpt>
      <trkpt lat="44.41182" lon="4.18819">
        <ele>237</ele>
        <time>2014-05-06T08:12:53Z</time>
      </trkpt>
      <trkpt lat="44.41182" lon="4.18812">
        <ele>237</ele>
        <time>2014-05-06T08:12:57Z</time>
      </trkpt>
      <trkpt lat="44.41183" lon="4.18805">
        <ele>236</ele>
        <time>2014-05-06T08:13:01Z</time>
      </trkpt>
      <trkpt lat="44.41188" lon="4.18795">
        <ele>235</ele>
        <time>2014-05-06T08:13:08Z</time>
      </trkpt>
      <trkpt lat="44.4119" lon="4.18789">
        <ele>236</ele>
        <time>2014-05-06T08:13:14Z</time>
      </trkpt>
      <trkpt lat="44.41191" lon="4.18783">
        <ele>236</ele>
        <time>2014-05-06T08:13:19Z</time>
      </trkpt>
      <trkpt lat="44.41194" lon="4.18775">
        <ele>236</ele>
        <time>2014-05-06T08:13:25Z</time>
      </trkpt>
      <trkpt lat="44.41198" lon="4.18768">
        <ele>238</ele>
        <time>2014-05-06T08:13:30Z</time>
      </trkpt>
      <trkpt lat="44.41201" lon="4.18764">
        <ele>238</ele>
        <time>2014-05-06T08:13:35Z</time>
      </trkpt>
      <trkpt lat="44.41205" lon="4.1876">
        <ele>238</ele>
        <time>2014-05-06T08:13:40Z</time>
      </trkpt>
      <trkpt lat="44.41209" lon="4.18755">
        <ele>238</ele>
        <time>2014-05-06T08:13:46Z</time>
      </trkpt>
      <trkpt lat="44.41214" lon="4.18752">
        <ele>238</ele>
        <time>2014-05-06T08:13:51Z</time>
      </trkpt>
      <trkpt lat="44.41218" lon="4.18751">
        <ele>238</ele>
        <time>2014-05-06T08:13:58Z</time>
      </trkpt>
      <trkpt lat="44.41224" lon="4.18753">
        <ele>239</ele>
        <time>2014-05-06T08:14:06Z</time>
      </trkpt>
      <trkpt lat="44.41232" lon="4.1875">
        <ele>237</ele>
        <time>2014-05-06T08:14:15Z</time>
      </trkpt>
      <trkpt lat="44.41236" lon="4.18749">
        <ele>235</ele>
        <time>2014-05-06T08:14:20Z</time>
      </trkpt>
      <trkpt lat="44.4124" lon="4.18746">
        <ele>236</ele>
        <time>2014-05-06T08:14:27Z</time>
      </trkpt>
      <trkpt lat="44.41245" lon="4.18741">
        <ele>235</ele>
        <time>2014-05-06T08:14:32Z</time>
      </trkpt>
      <trkpt lat="44.41248" lon="4.18735">
        <ele>234</ele>
        <time>2014-05-06T08:14:38Z</time>
      </trkpt>
      <trkpt lat="44.41251" lon="4.18728">
        <ele>234</ele>
        <time>2014-05-06T08:14:44Z</time>
      </trkpt>
      <trkpt lat="44.41252" lon="4.18721">
        <ele>234</ele>
        <time>2014-05-06T08:14:48Z</time>
      </trkpt>
      <trkpt lat="44.41252" lon="4.18715">
        <ele>233</ele>
        <time>2014-05-06T08:14:53Z</time>
      </trkpt>
      <trkpt lat="44.41253" lon="4.18708">
        <ele>234</ele>
        <time>2014-05-06T08:14:58Z</time>
      </trkpt>
      <trkpt lat="44.41254" lon="4.18701">
        <ele>235</ele>
        <time>2014-05-06T08:15:06Z</time>
      </trkpt>
      <trkpt lat="44.41254" lon="4.1869">
        <ele>233</ele>
        <time>2014-05-06T08:15:16Z</time>
      </trkpt>
      <trkpt lat="44.41255" lon="4.18684">
        <ele>232</ele>
        <time>2014-05-06T08:15:21Z</time>
      </trkpt>
      <trkpt lat="44.41257" lon="4.18677">
        <ele>231</ele>
        <time>2014-05-06T08:15:27Z</time>
      </trkpt>
      <trkpt lat="44.41259" lon="4.18672">
        <ele>230</ele>
        <time>2014-05-06T08:15:36Z</time>
      </trkpt>
      <trkpt lat="44.4126" lon="4.18665">
        <ele>230</ele>
        <time>2014-05-06T08:15:40Z</time>
      </trkpt>
      <trkpt lat="44.4126" lon="4.18658">
        <ele>229</ele>
        <time>2014-05-06T08:15:46Z</time>
      </trkpt>
      <trkpt lat="44.4126" lon="4.18648">
        <ele>228</ele>
        <time>2014-05-06T08:15:53Z</time>
      </trkpt>
      <trkpt lat="44.41261" lon="4.18642">
        <ele>227</ele>
        <time>2014-05-06T08:15:59Z</time>
      </trkpt>
      <trkpt lat="44.41261" lon="4.18635">
        <ele>228</ele>
        <time>2014-05-06T08:16:04Z</time>
      </trkpt>
      <trkpt lat="44.41259" lon="4.18628">
        <ele>227</ele>
        <time>2014-05-06T08:16:12Z</time>
      </trkpt>
      <trkpt lat="44.41255" lon="4.18623">
        <ele>228</ele>
        <time>2014-05-06T08:16:19Z</time>
      </trkpt>
      <trkpt lat="44.41254" lon="4.18617">
        <ele>229</ele>
        <time>2014-05-06T08:16:24Z</time>
      </trkpt>
      <trkpt lat="44.41254" lon="4.1861">
        <ele>230</ele>
        <time>2014-05-06T08:16:31Z</time>
      </trkpt>
      <trkpt lat="44.41256" lon="4.18603">
        <ele>231</ele>
        <time>2014-05-06T08:16:38Z</time>
      </trkpt>
      <trkpt lat="44.41257" lon="4.18597">
        <ele>231</ele>
        <time>2014-05-06T08:16:43Z</time>
      </trkpt>
      <trkpt lat="44.41253" lon="4.18592">
        <ele>231</ele>
        <time>2014-05-06T08:16:50Z</time>
      </trkpt>
      <trkpt lat="44.41255" lon="4.18586">
        <ele>232</ele>
        <time>2014-05-06T08:16:56Z</time>
      </trkpt>
      <trkpt lat="44.41258" lon="4.1858">
        <ele>232</ele>
        <time>2014-05-06T08:17:01Z</time>
      </trkpt>
      <trkpt lat="44.41259" lon="4.18574">
        <ele>232</ele>
        <time>2014-05-06T08:17:05Z</time>
      </trkpt>
      <trkpt lat="44.41263" lon="4.1857">
        <ele>232</ele>
        <time>2014-05-06T08:17:10Z</time>
      </trkpt>
      <trkpt lat="44.41267" lon="4.18567">
        <ele>231</ele>
        <time>2014-05-06T08:17:17Z</time>
      </trkpt>
      <trkpt lat="44.41272" lon="4.18564">
        <ele>234</ele>
        <time>2014-05-06T08:17:25Z</time>
      </trkpt>
      <trkpt lat="44.41274" lon="4.18563">
        <ele>234</ele>
        <time>2014-05-06T08:17:31Z</time>
      </trkpt>
      <trkpt lat="44.41273" lon="4.18558">
        <ele>235</ele>
        <time>2014-05-06T08:17:53Z</time>
      </trkpt>
      <trkpt lat="44.41274" lon="4.18555">
        <ele>232</ele>
        <time>2014-05-06T08:18:39Z</time>
      </trkpt>
      <trkpt lat="44.41275" lon="4.18545">
        <ele>232</ele>
        <time>2014-05-06T08:18:51Z</time>
      </trkpt>
      <trkpt lat="44.41274" lon="4.18536">
        <ele>232</ele>
        <time>2014-05-06T08:18:54Z</time>
      </trkpt>
      <trkpt lat="44.41272" lon="4.1853">
        <ele>233</ele>
        <time>2014-05-06T08:18:59Z</time>
      </trkpt>
      <trkpt lat="44.41271" lon="4.18523">
        <ele>234</ele>
        <time>2014-05-06T08:19:06Z</time>
      </trkpt>
      <trkpt lat="44.4127" lon="4.18516">
        <ele>234</ele>
        <time>2014-05-06T08:19:11Z</time>
      </trkpt>
      <trkpt lat="44.41274" lon="4.18512">
        <ele>235</ele>
        <time>2014-05-06T08:19:21Z</time>
      </trkpt>
      <trkpt lat="44.41278" lon="4.18507">
        <ele>236</ele>
        <time>2014-05-06T08:19:29Z</time>
      </trkpt>
      <trkpt lat="44.41277" lon="4.185">
        <ele>236</ele>
        <time>2014-05-06T08:19:35Z</time>
      </trkpt>
      <trkpt lat="44.41277" lon="4.18493">
        <ele>237</ele>
        <time>2014-05-06T08:19:40Z</time>
      </trkpt>
      <trkpt lat="44.41278" lon="4.18486">
        <ele>237</ele>
        <time>2014-05-06T08:19:45Z</time>
      </trkpt>
      <trkpt lat="44.4128" lon="4.1848">
        <ele>238</ele>
        <time>2014-05-06T08:19:51Z</time>
      </trkpt>
      <trkpt lat="44.41281" lon="4.18473">
        <ele>238</ele>
        <time>2014-05-06T08:19:56Z</time>
      </trkpt>
      <trkpt lat="44.41283" lon="4.18467">
        <ele>238</ele>
        <time>2014-05-06T08:20:01Z</time>
      </trkpt>
      <trkpt lat="44.41285" lon="4.18461">
        <ele>239</ele>
        <time>2014-05-06T08:20:07Z</time>
      </trkpt>
      <trkpt lat="44.41287" lon="4.18454">
        <ele>239</ele>
        <time>2014-05-06T08:20:12Z</time>
      </trkpt>
      <trkpt lat="44.41289" lon="4.18447">
        <ele>238</ele>
        <time>2014-05-06T08:20:18Z</time>
      </trkpt>
      <trkpt lat="44.41293" lon="4.1844">
        <ele>239</ele>
        <time>2014-05-06T08:20:25Z</time>
      </trkpt>
      <trkpt lat="44.41298" lon="4.18433">
        <ele>239</ele>
        <time>2014-05-06T08:20:33Z</time>
      </trkpt>
      <trkpt lat="44.41303" lon="4.18423">
        <ele>239</ele>
        <time>2014-05-06T08:20:45Z</time>
      </trkpt>
      <trkpt lat="44.41304" lon="4.18416">
        <ele>239</ele>
        <time>2014-05-06T08:20:49Z</time>
      </trkpt>
      <trkpt lat="44.41304" lon="4.18409">
        <ele>240</ele>
        <time>2014-05-06T08:20:55Z</time>
      </trkpt>
      <trkpt lat="44.41305" lon="4.18403">
        <ele>241</ele>
        <time>2014-05-06T08:21:00Z</time>
      </trkpt>
      <trkpt lat="44.41305" lon="4.18395">
        <ele>240</ele>
        <time>2014-05-06T08:21:05Z</time>
      </trkpt>
      <trkpt lat="44.41304" lon="4.18388">
        <ele>240</ele>
        <time>2014-05-06T08:21:10Z</time>
      </trkpt>
      <trkpt lat="44.41305" lon="4.18381">
        <ele>240</ele>
        <time>2014-05-06T08:21:17Z</time>
      </trkpt>
      <trkpt lat="44.41306" lon="4.18374">
        <ele>240</ele>
        <time>2014-05-06T08:21:23Z</time>
      </trkpt>
      <trkpt lat="44.41308" lon="4.18369">
        <ele>240</ele>
        <time>2014-05-06T08:21:30Z</time>
      </trkpt>
      <trkpt lat="44.41312" lon="4.18362">
        <ele>240</ele>
        <time>2014-05-06T08:21:38Z</time>
      </trkpt>
      <trkpt lat="44.41315" lon="4.18357">
        <ele>239</ele>
        <time>2014-05-06T08:21:44Z</time>
      </trkpt>
      <trkpt lat="44.41318" lon="4.18351">
        <ele>238</ele>
        <time>2014-05-06T08:21:50Z</time>
      </trkpt>
      <trkpt lat="44.4132" lon="4.18344">
        <ele>238</ele>
        <time>2014-05-06T08:21:56Z</time>
      </trkpt>
      <trkpt lat="44.41323" lon="4.18337">
        <ele>238</ele>
        <time>2014-05-06T08:22:02Z</time>
      </trkpt>
      <trkpt lat="44.41322" lon="4.18329">
        <ele>237</ele>
        <time>2014-05-06T08:22:09Z</time>
      </trkpt>
      <trkpt lat="44.41323" lon="4.18321">
        <ele>237</ele>
        <time>2014-05-06T08:22:14Z</time>
      </trkpt>
      <trkpt lat="44.41326" lon="4.18314">
        <ele>237</ele>
        <time>2014-05-06T08:22:18Z</time>
      </trkpt>
      <trkpt lat="44.41328" lon="4.18307">
        <ele>237</ele>
        <time>2014-05-06T08:22:24Z</time>
      </trkpt>
      <trkpt lat="44.4133" lon="4.18301">
        <ele>238</ele>
        <time>2014-05-06T08:22:28Z</time>
      </trkpt>
      <trkpt lat="44.41332" lon="4.18295">
        <ele>238</ele>
        <time>2014-05-06T08:22:32Z</time>
      </trkpt>
      <trkpt lat="44.41335" lon="4.18289">
        <ele>238</ele>
        <time>2014-05-06T08:22:36Z</time>
      </trkpt>
      <trkpt lat="44.41336" lon="4.18281">
        <ele>237</ele>
        <time>2014-05-06T08:22:40Z</time>
      </trkpt>
      <trkpt lat="44.41338" lon="4.18276">
        <ele>237</ele>
        <time>2014-05-06T08:22:45Z</time>
      </trkpt>
      <trkpt lat="44.4134" lon="4.18268">
        <ele>237</ele>
        <time>2014-05-06T08:22:50Z</time>
      </trkpt>
      <trkpt lat="44.41341" lon="4.18257">
        <ele>235</ele>
        <time>2014-05-06T08:23:06Z</time>
      </trkpt>
      <trkpt lat="44.41343" lon="4.18251">
        <ele>234</ele>
        <time>2014-05-06T08:23:11Z</time>
      </trkpt>
      <trkpt lat="44.41345" lon="4.18245">
        <ele>234</ele>
        <time>2014-05-06T08:23:17Z</time>
      </trkpt>
      <trkpt lat="44.41344" lon="4.18232">
        <ele>234</ele>
        <time>2014-05-06T08:23:26Z</time>
      </trkpt>
      <trkpt lat="44.41344" lon="4.18225">
        <ele>233</ele>
        <time>2014-05-06T08:23:30Z</time>
      </trkpt>
      <trkpt lat="44.41345" lon="4.18219">
        <ele>234</ele>
        <time>2014-05-06T08:23:35Z</time>
      </trkpt>
      <trkpt lat="44.41344" lon="4.18211">
        <ele>234</ele>
        <time>2014-05-06T08:23:40Z</time>
      </trkpt>
      <trkpt lat="44.41344" lon="4.18204">
        <ele>233</ele>
        <time>2014-05-06T08:23:46Z</time>
      </trkpt>
      <trkpt lat="44.41344" lon="4.18196">
        <ele>232</ele>
        <time>2014-05-06T08:23:55Z</time>
      </trkpt>
      <trkpt lat="44.41344" lon="4.18189">
        <ele>233</ele>
        <time>2014-05-06T08:23:59Z</time>
      </trkpt>
      <trkpt lat="44.41344" lon="4.18182">
        <ele>233</ele>
        <time>2014-05-06T08:24:04Z</time>
      </trkpt>
      <trkpt lat="44.41346" lon="4.18175">
        <ele>233</ele>
        <time>2014-05-06T08:24:09Z</time>
      </trkpt>
      <trkpt lat="44.41347" lon="4.18162">
        <ele>231</ele>
        <time>2014-05-06T08:24:19Z</time>
      </trkpt>
      <trkpt lat="44.41348" lon="4.18153">
        <ele>231</ele>
        <time>2014-05-06T08:24:27Z</time>
      </trkpt>
      <trkpt lat="44.41349" lon="4.18146">
        <ele>230</ele>
        <time>2014-05-06T08:24:32Z</time>
      </trkpt>
      <trkpt lat="44.41345" lon="4.18141">
        <ele>229</ele>
        <time>2014-05-06T08:24:38Z</time>
      </trkpt>
      <trkpt lat="44.41342" lon="4.18138">
        <ele>229</ele>
        <time>2014-05-06T08:24:49Z</time>
      </trkpt>
      <trkpt lat="44.41342" lon="4.18134">
        <ele>228</ele>
        <time>2014-05-06T08:24:55Z</time>
      </trkpt>
      <trkpt lat="44.4134" lon="4.18128">
        <ele>228</ele>
        <time>2014-05-06T08:25:08Z</time>
      </trkpt>
      <trkpt lat="44.41345" lon="4.18117">
        <ele>227</ele>
        <time>2014-05-06T08:25:23Z</time>
      </trkpt>
      <trkpt lat="44.41355" lon="4.18106">
        <ele>225</ele>
        <time>2014-05-06T08:25:44Z</time>
      </trkpt>
      <trkpt lat="44.41359" lon="4.18101">
        <ele>222</ele>
        <time>2014-05-06T08:26:07Z</time>
      </trkpt>
      <trkpt lat="44.41368" lon="4.18093">
        <ele>221</ele>
        <time>2014-05-06T08:26:32Z</time>
      </trkpt>
      <trkpt lat="44.41374" lon="4.1809">
        <ele>219</ele>
        <time>2014-05-06T08:26:49Z</time>
      </trkpt>
      <trkpt lat="44.41382" lon="4.18085">
        <ele>219</ele>
        <time>2014-05-06T08:27:06Z</time>
      </trkpt>
      <trkpt lat="44.41389" lon="4.18081">
        <ele>217</ele>
        <time>2014-05-06T08:27:23Z</time>
      </trkpt>
      <trkpt lat="44.41398" lon="4.18079">
        <ele>210</ele>
        <time>2014-05-06T08:28:02Z</time>
      </trkpt>
      <trkpt lat="44.41402" lon="4.18071">
        <ele>206</ele>
        <time>2014-05-06T08:28:29Z</time>
      </trkpt>
      <trkpt lat="44.41412" lon="4.18061">
        <ele>202</ele>
        <time>2014-05-06T08:30:41Z</time>
      </trkpt>
      <trkpt lat="44.41424" lon="4.18043">
        <ele>194</ele>
        <time>2014-05-06T08:31:20Z</time>
      </trkpt>
      <trkpt lat="44.41428" lon="4.18038">
        <ele>192</ele>
        <time>2014-05-06T08:31:36Z</time>
      </trkpt>
      <trkpt lat="44.41435" lon="4.18026">
        <ele>188</ele>
        <time>2014-05-06T08:31:56Z</time>
      </trkpt>
      <trkpt lat="44.41442" lon="4.18018">
        <ele>185</ele>
        <time>2014-05-06T08:32:14Z</time>
      </trkpt>
      <trkpt lat="44.4145" lon="4.18011">
        <ele>184</ele>
        <time>2014-05-06T08:32:31Z</time>
      </trkpt>
      <trkpt lat="44.41458" lon="4.18008">
        <ele>182</ele>
        <time>2014-05-06T08:32:51Z</time>
      </trkpt>
      <trkpt lat="44.41456" lon="4.17999">
        <ele>181</ele>
        <time>2014-05-06T08:33:07Z</time>
      </trkpt>
      <trkpt lat="44.41465" lon="4.17993">
        <ele>178</ele>
        <time>2014-05-06T08:33:30Z</time>
      </trkpt>
      <trkpt lat="44.41472" lon="4.17989">
        <ele>177</ele>
        <time>2014-05-06T08:33:47Z</time>
      </trkpt>
      <trkpt lat="44.41478" lon="4.17981">
        <ele>173</ele>
        <time>2014-05-06T08:34:09Z</time>
      </trkpt>
      <trkpt lat="44.41476" lon="4.17969">
        <ele>165</ele>
        <time>2014-05-06T08:35:47Z</time>
      </trkpt>
      <trkpt lat="44.41474" lon="4.17956">
        <ele>164</ele>
        <time>2014-05-06T08:36:05Z</time>
      </trkpt>
      <trkpt lat="44.41475" lon="4.17942">
        <ele>163</ele>
        <time>2014-05-06T08:36:22Z</time>
      </trkpt>
      <trkpt lat="44.41475" lon="4.17935">
        <ele>163</ele>
        <time>2014-05-06T08:36:33Z</time>
      </trkpt>
      <trkpt lat="44.41469" lon="4.17921">
        <ele>155</ele>
        <time>2014-05-06T08:37:05Z</time>
      </trkpt>
      <trkpt lat="44.41472" lon="4.17907">
        <ele>154</ele>
        <time>2014-05-06T08:37:30Z</time>
      </trkpt>
      <trkpt lat="44.41474" lon="4.179">
        <ele>153</ele>
        <time>2014-05-06T08:37:43Z</time>
      </trkpt>
      <trkpt lat="44.41477" lon="4.17895">
        <ele>151</ele>
        <time>2014-05-06T08:38:00Z</time>
      </trkpt>
      <trkpt lat="44.41482" lon="4.17881">
        <ele>149</ele>
        <time>2014-05-06T08:38:17Z</time>
      </trkpt>
      <trkpt lat="44.41488" lon="4.1787">
        <ele>145</ele>
        <time>2014-05-06T08:38:32Z</time>
      </trkpt>
      <trkpt lat="44.41493" lon="4.1787">
        <ele>140</ele>
        <time>2014-05-06T08:38:52Z</time>
      </trkpt>
      <trkpt lat="44.41496" lon="4.17856">
        <ele>140</ele>
        <time>2014-05-06T08:40:30Z</time>
      </trkpt>
      <trkpt lat="44.41497" lon="4.17842">
        <ele>139</ele>
        <time>2014-05-06T08:40:39Z</time>
      </trkpt>
      <trkpt lat="44.41494" lon="4.17838">
        <ele>137</ele>
        <time>2014-05-06T08:40:46Z</time>
      </trkpt>
      <trkpt lat="44.41489" lon="4.17835">
        <ele>137</ele>
        <time>2014-05-06T08:40:50Z</time>
      </trkpt>
      <trkpt lat="44.41485" lon="4.17833">
        <ele>136</ele>
        <time>2014-05-06T08:40:54Z</time>
      </trkpt>
      <trkpt lat="44.4148" lon="4.17831">
        <ele>136</ele>
        <time>2014-05-06T08:40:59Z</time>
      </trkpt>
      <trkpt lat="44.41472" lon="4.17824">
        <ele>135</ele>
        <time>2014-05-06T08:41:07Z</time>
      </trkpt>
      <trkpt lat="44.41465" lon="4.17815">
        <ele>134</ele>
        <time>2014-05-06T08:41:16Z</time>
      </trkpt>
      <trkpt lat="44.41462" lon="4.17802">
        <ele>134</ele>
        <time>2014-05-06T08:41:25Z</time>
      </trkpt>
      <trkpt lat="44.41459" lon="4.1779">
        <ele>132</ele>
        <time>2014-05-06T08:41:34Z</time>
      </trkpt>
      <trkpt lat="44.41451" lon="4.17783">
        <ele>132</ele>
        <time>2014-05-06T08:41:44Z</time>
      </trkpt>
      <trkpt lat="44.41442" lon="4.17777">
        <ele>132</ele>
        <time>2014-05-06T08:41:56Z</time>
      </trkpt>
      <trkpt lat="44.41433" lon="4.17773">
        <ele>134</ele>
        <time>2014-05-06T08:42:04Z</time>
      </trkpt>
      <trkpt lat="44.41424" lon="4.1777">
        <ele>134</ele>
        <time>2014-05-06T08:42:11Z</time>
      </trkpt>
      <trkpt lat="44.41415" lon="4.17771">
        <ele>134</ele>
        <time>2014-05-06T08:42:18Z</time>
      </trkpt>
      <trkpt lat="44.41405" lon="4.17772">
        <ele>135</ele>
        <time>2014-05-06T08:42:25Z</time>
      </trkpt>
      <trkpt lat="44.41395" lon="4.17773">
        <ele>135</ele>
        <time>2014-05-06T08:42:33Z</time>
      </trkpt>
      <trkpt lat="44.41387" lon="4.17778">
        <ele>134</ele>
        <time>2014-05-06T08:42:40Z</time>
      </trkpt>
      <trkpt lat="44.41378" lon="4.17782">
        <ele>133</ele>
        <time>2014-05-06T08:42:49Z</time>
      </trkpt>
      <trkpt lat="44.41369" lon="4.17789">
        <ele>134</ele>
        <time>2014-05-06T08:42:56Z</time>
      </trkpt>
      <trkpt lat="44.4136" lon="4.17794">
        <ele>132</ele>
        <time>2014-05-06T08:43:04Z</time>
      </trkpt>
      <trkpt lat="44.41351" lon="4.17799">
        <ele>131</ele>
        <time>2014-05-06T08:43:12Z</time>
      </trkpt>
      <trkpt lat="44.41343" lon="4.17806">
        <ele>131</ele>
        <time>2014-05-06T08:43:22Z</time>
      </trkpt>
      <trkpt lat="44.41336" lon="4.17814">
        <ele>131</ele>
        <time>2014-05-06T08:43:30Z</time>
      </trkpt>
      <trkpt lat="44.41328" lon="4.1782">
        <ele>129</ele>
        <time>2014-05-06T08:43:38Z</time>
      </trkpt>
      <trkpt lat="44.41319" lon="4.1782">
        <ele>129</ele>
        <time>2014-05-06T08:43:51Z</time>
      </trkpt>
      <trkpt lat="44.4131" lon="4.17826">
        <ele>131</ele>
        <time>2014-05-06T08:44:00Z</time>
      </trkpt>
      <trkpt lat="44.41302" lon="4.17831">
        <ele>132</ele>
        <time>2014-05-06T08:44:11Z</time>
      </trkpt>
      <trkpt lat="44.41293" lon="4.17836">
        <ele>135</ele>
        <time>2014-05-06T08:44:23Z</time>
      </trkpt>
      <trkpt lat="44.41284" lon="4.17838">
        <ele>139</ele>
        <time>2014-05-06T08:44:35Z</time>
      </trkpt>
      <trkpt lat="44.41276" lon="4.17846">
        <ele>139</ele>
        <time>2014-05-06T08:44:43Z</time>
      </trkpt>
      <trkpt lat="44.41268" lon="4.17854">
        <ele>140</ele>
        <time>2014-05-06T08:44:51Z</time>
      </trkpt>
      <trkpt lat="44.4126" lon="4.17861">
        <ele>142</ele>
        <time>2014-05-06T08:44:59Z</time>
      </trkpt>
      <trkpt lat="44.41251" lon="4.17866">
        <ele>144</ele>
        <time>2014-05-06T08:45:08Z</time>
      </trkpt>
      <trkpt lat="44.41241" lon="4.17868">
        <ele>147</ele>
        <time>2014-05-06T08:45:18Z</time>
      </trkpt>
      <trkpt lat="44.41231" lon="4.17867">
        <ele>146</ele>
        <time>2014-05-06T08:45:28Z</time>
      </trkpt>
      <trkpt lat="44.41213" lon="4.1786">
        <ele>136</ele>
        <time>2014-05-06T08:45:44Z</time>
      </trkpt>
      <trkpt lat="44.4121" lon="4.17865">
        <ele>145</ele>
        <time>2014-05-06T08:46:24Z</time>
      </trkpt>
      <trkpt lat="44.41206" lon="4.17869">
        <ele>142</ele>
        <time>2014-05-06T08:46:57Z</time>
      </trkpt>
      <trkpt lat="44.41199" lon="4.17858">
        <ele>140</ele>
        <time>2014-05-06T08:47:22Z</time>
      </trkpt>
      <trkpt lat="44.41192" lon="4.17849">
        <ele>139</ele>
        <time>2014-05-06T08:47:31Z</time>
      </trkpt>
      <trkpt lat="44.41188" lon="4.17836">
        <ele>137</ele>
        <time>2014-05-06T08:47:40Z</time>
      </trkpt>
      <trkpt lat="44.41186" lon="4.17823">
        <ele>136</ele>
        <time>2014-05-06T08:47:50Z</time>
      </trkpt>
      <trkpt lat="44.41185" lon="4.17809">
        <ele>135</ele>
        <time>2014-05-06T08:47:58Z</time>
      </trkpt>
      <trkpt lat="44.41182" lon="4.17795">
        <ele>134</ele>
        <time>2014-05-06T08:48:06Z</time>
      </trkpt>
      <trkpt lat="44.41175" lon="4.17786">
        <ele>134</ele>
        <time>2014-05-06T08:48:14Z</time>
      </trkpt>
      <trkpt lat="44.41168" lon="4.17775">
        <ele>132</ele>
        <time>2014-05-06T08:48:23Z</time>
      </trkpt>
      <trkpt lat="44.41163" lon="4.17764">
        <ele>132</ele>
        <time>2014-05-06T08:48:32Z</time>
      </trkpt>
      <trkpt lat="44.41159" lon="4.17753">
        <ele>134</ele>
        <time>2014-05-06T08:48:43Z</time>
      </trkpt>
      <trkpt lat="44.4116" lon="4.17741">
        <ele>134</ele>
        <time>2014-05-06T08:48:53Z</time>
      </trkpt>
      <trkpt lat="44.41154" lon="4.17743">
        <ele>141</ele>
        <time>2014-05-06T08:49:39Z</time>
      </trkpt>
      <trkpt lat="44.41144" lon="4.1775">
        <ele>144</ele>
        <time>2014-05-06T08:49:57Z</time>
      </trkpt>
      <trkpt lat="44.41139" lon="4.17756">
        <ele>152</ele>
        <time>2014-05-06T08:50:20Z</time>
      </trkpt>
      <trkpt lat="44.41132" lon="4.17762">
        <ele>155</ele>
        <time>2014-05-06T08:50:50Z</time>
      </trkpt>
      <trkpt lat="44.41127" lon="4.17764">
        <ele>155</ele>
        <time>2014-05-06T08:51:03Z</time>
      </trkpt>
      <trkpt lat="44.41118" lon="4.17771">
        <ele>158</ele>
        <time>2014-05-06T08:51:26Z</time>
      </trkpt>
      <trkpt lat="44.41119" lon="4.17784">
        <ele>161</ele>
        <time>2014-05-06T08:51:51Z</time>
      </trkpt>
      <trkpt lat="44.41117" lon="4.17791">
        <ele>162</ele>
        <time>2014-05-06T08:52:08Z</time>
      </trkpt>
      <trkpt lat="44.41111" lon="4.17791">
        <ele>164</ele>
        <time>2014-05-06T08:52:23Z</time>
      </trkpt>
      <trkpt lat="44.41105" lon="4.17791">
        <ele>164</ele>
        <time>2014-05-06T08:52:39Z</time>
      </trkpt>
      <trkpt lat="44.41096" lon="4.17791">
        <ele>168</ele>
        <time>2014-05-06T08:53:48Z</time>
      </trkpt>
      <trkpt lat="44.4109" lon="4.17786">
        <ele>169</ele>
        <time>2014-05-06T08:54:20Z</time>
      </trkpt>
      <trkpt lat="44.41083" lon="4.17789">
        <ele>179</ele>
        <time>2014-05-06T08:55:12Z</time>
      </trkpt>
      <trkpt lat="44.41079" lon="4.17783">
        <ele>175</ele>
        <time>2014-05-06T08:57:41Z</time>
      </trkpt>
      <trkpt lat="44.41074" lon="4.17777">
        <ele>173</ele>
        <time>2014-05-06T08:57:55Z</time>
      </trkpt>
      <trkpt lat="44.41068" lon="4.17775">
        <ele>172</ele>
        <time>2014-05-06T08:58:02Z</time>
      </trkpt>
      <trkpt lat="44.41063" lon="4.17774">
        <ele>173</ele>
        <time>2014-05-06T08:58:08Z</time>
      </trkpt>
      <trkpt lat="44.41057" lon="4.17775">
        <ele>172</ele>
        <time>2014-05-06T08:58:13Z</time>
      </trkpt>
      <trkpt lat="44.41053" lon="4.17777">
        <ele>171</ele>
        <time>2014-05-06T08:58:18Z</time>
      </trkpt>
      <trkpt lat="44.41051" lon="4.17783">
        <ele>170</ele>
        <time>2014-05-06T08:58:27Z</time>
      </trkpt>
      <trkpt lat="44.4105" lon="4.17789">
        <ele>170</ele>
        <time>2014-05-06T08:58:33Z</time>
      </trkpt>
      <trkpt lat="44.41049" lon="4.17796">
        <ele>172</ele>
        <time>2014-05-06T08:58:43Z</time>
      </trkpt>
      <trkpt lat="44.41048" lon="4.17803">
        <ele>173</ele>
        <time>2014-05-06T08:58:51Z</time>
      </trkpt>
      <trkpt lat="44.41049" lon="4.1781">
        <ele>173</ele>
        <time>2014-05-06T08:58:58Z</time>
      </trkpt>
      <trkpt lat="44.41049" lon="4.17817">
        <ele>176</ele>
        <time>2014-05-06T08:59:05Z</time>
      </trkpt>
      <trkpt lat="44.41048" lon="4.17826">
        <ele>177</ele>
        <time>2014-05-06T08:59:17Z</time>
      </trkpt>
      <trkpt lat="44.41047" lon="4.17833">
        <ele>179</ele>
        <time>2014-05-06T08:59:25Z</time>
      </trkpt>
      <trkpt lat="44.41048" lon="4.1784">
        <ele>180</ele>
        <time>2014-05-06T08:59:30Z</time>
      </trkpt>
      <trkpt lat="44.41048" lon="4.17847">
        <ele>181</ele>
        <time>2014-05-06T08:59:38Z</time>
      </trkpt>
      <trkpt lat="44.41048" lon="4.17854">
        <ele>181</ele>
        <time>2014-05-06T08:59:45Z</time>
      </trkpt>
      <trkpt lat="44.41049" lon="4.17858">
        <ele>181</ele>
        <time>2014-05-06T08:59:51Z</time>
      </trkpt>
      <trkpt lat="44.4105" lon="4.17864">
        <ele>181</ele>
        <time>2014-05-06T08:59:59Z</time>
      </trkpt>
      <trkpt lat="44.4105" lon="4.17871">
        <ele>181</ele>
        <time>2014-05-06T09:00:04Z</time>
      </trkpt>
      <trkpt lat="44.41049" lon="4.17879">
        <ele>182</ele>
        <time>2014-05-06T09:00:12Z</time>
      </trkpt>
      <trkpt lat="44.41049" lon="4.17886">
        <ele>182</ele>
        <time>2014-05-06T09:00:19Z</time>
      </trkpt>
      <trkpt lat="44.41048" lon="4.17892">
        <ele>182</ele>
        <time>2014-05-06T09:00:25Z</time>
      </trkpt>
      <trkpt lat="44.4105" lon="4.179">
        <ele>184</ele>
        <time>2014-05-06T09:00:34Z</time>
      </trkpt>
      <trkpt lat="44.41051" lon="4.17912">
        <ele>184</ele>
        <time>2014-05-06T09:00:52Z</time>
      </trkpt>
      <trkpt lat="44.41052" lon="4.17919">
        <ele>184</ele>
        <time>2014-05-06T09:01:00Z</time>
      </trkpt>
      <trkpt lat="44.41054" lon="4.17926">
        <ele>183</ele>
        <time>2014-05-06T09:01:10Z</time>
      </trkpt>
      <trkpt lat="44.41057" lon="4.17932">
        <ele>184</ele>
        <time>2014-05-06T09:01:18Z</time>
      </trkpt>
      <trkpt lat="44.4106" lon="4.17939">
        <ele>185</ele>
        <time>2014-05-06T09:01:25Z</time>
      </trkpt>
      <trkpt lat="44.41062" lon="4.17945">
        <ele>187</ele>
        <time>2014-05-06T09:01:31Z</time>
      </trkpt>
      <trkpt lat="44.41063" lon="4.17954">
        <ele>189</ele>
        <time>2014-05-06T09:01:40Z</time>
      </trkpt>
      <trkpt lat="44.41066" lon="4.1796">
        <ele>190</ele>
        <time>2014-05-06T09:01:46Z</time>
      </trkpt>
      <trkpt lat="44.41065" lon="4.17971">
        <ele>188</ele>
        <time>2014-05-06T09:01:59Z</time>
      </trkpt>
      <trkpt lat="44.41065" lon="4.17978">
        <ele>186</ele>
        <time>2014-05-06T09:02:05Z</time>
      </trkpt>
      <trkpt lat="44.41067" lon="4.17984">
        <ele>185</ele>
        <time>2014-05-06T09:02:09Z</time>
      </trkpt>
      <trkpt lat="44.41068" lon="4.17991">
        <ele>185</ele>
        <time>2014-05-06T09:02:14Z</time>
      </trkpt>
      <trkpt lat="44.41069" lon="4.17999">
        <ele>187</ele>
        <time>2014-05-06T09:02:20Z</time>
      </trkpt>
      <trkpt lat="44.4107" lon="4.18005">
        <ele>186</ele>
        <time>2014-05-06T09:02:28Z</time>
      </trkpt>
      <trkpt lat="44.4107" lon="4.18012">
        <ele>186</ele>
        <time>2014-05-06T09:02:36Z</time>
      </trkpt>
      <trkpt lat="44.41069" lon="4.18019">
        <ele>185</ele>
        <time>2014-05-06T09:02:41Z</time>
      </trkpt>
      <trkpt lat="44.41064" lon="4.18028">
        <ele>184</ele>
        <time>2014-05-06T09:02:49Z</time>
      </trkpt>
      <trkpt lat="44.41061" lon="4.18039">
        <ele>184</ele>
        <time>2014-05-06T09:02:57Z</time>
      </trkpt>
      <trkpt lat="44.41061" lon="4.18045">
        <ele>185</ele>
        <time>2014-05-06T09:03:04Z</time>
      </trkpt>
      <trkpt lat="44.4106" lon="4.18052">
        <ele>185</ele>
        <time>2014-05-06T09:03:09Z</time>
      </trkpt>
      <trkpt lat="44.41059" lon="4.1806">
        <ele>185</ele>
        <time>2014-05-06T09:03:13Z</time>
      </trkpt>
      <trkpt lat="44.4106" lon="4.18067">
        <ele>185</ele>
        <time>2014-05-06T09:03:18Z</time>
      </trkpt>
      <trkpt lat="44.4106" lon="4.18074">
        <ele>185</ele>
        <time>2014-05-06T09:03:27Z</time>
      </trkpt>
      <trkpt lat="44.41068" lon="4.18082">
        <ele>189</ele>
        <time>2014-05-06T09:04:00Z</time>
      </trkpt>
      <trkpt lat="44.41072" lon="4.18087">
        <ele>188</ele>
        <time>2014-05-06T09:04:05Z</time>
      </trkpt>
      <trkpt lat="44.41074" lon="4.18093">
        <ele>188</ele>
        <time>2014-05-06T09:04:13Z</time>
      </trkpt>
      <trkpt lat="44.41073" lon="4.181">
        <ele>187</ele>
        <time>2014-05-06T09:04:18Z</time>
      </trkpt>
      <trkpt lat="44.41069" lon="4.18114">
        <ele>185</ele>
        <time>2014-05-06T09:04:27Z</time>
      </trkpt>
      <trkpt lat="44.41068" lon="4.1812">
        <ele>184</ele>
        <time>2014-05-06T09:04:31Z</time>
      </trkpt>
      <trkpt lat="44.41066" lon="4.18127">
        <ele>183</ele>
        <time>2014-05-06T09:04:36Z</time>
      </trkpt>
      <trkpt lat="44.41063" lon="4.18137">
        <ele>184</ele>
        <time>2014-05-06T09:04:45Z</time>
      </trkpt>
      <trkpt lat="44.41063" lon="4.18144">
        <ele>184</ele>
        <time>2014-05-06T09:04:50Z</time>
      </trkpt>
      <trkpt lat="44.41056" lon="4.18154">
        <ele>185</ele>
        <time>2014-05-06T09:05:01Z</time>
      </trkpt>
      <trkpt lat="44.41049" lon="4.18163">
        <ele>185</ele>
        <time>2014-05-06T09:05:12Z</time>
      </trkpt>
      <trkpt lat="44.41044" lon="4.18174">
        <ele>185</ele>
        <time>2014-05-06T09:05:23Z</time>
      </trkpt>
      <trkpt lat="44.41039" lon="4.18184">
        <ele>184</ele>
        <time>2014-05-06T09:05:33Z</time>
      </trkpt>
      <trkpt lat="44.41034" lon="4.18195">
        <ele>182</ele>
        <time>2014-05-06T09:05:41Z</time>
      </trkpt>
      <trkpt lat="44.41031" lon="4.182">
        <ele>180</ele>
        <time>2014-05-06T09:05:52Z</time>
      </trkpt>
      <trkpt lat="44.41032" lon="4.18216">
        <ele>178</ele>
        <time>2014-05-06T09:06:09Z</time>
      </trkpt>
      <trkpt lat="44.41028" lon="4.18228">
        <ele>176</ele>
        <time>2014-05-06T09:06:17Z</time>
      </trkpt>
      <trkpt lat="44.41026" lon="4.18234">
        <ele>175</ele>
        <time>2014-05-06T09:06:22Z</time>
      </trkpt>
      <trkpt lat="44.41026" lon="4.18241">
        <ele>175</ele>
        <time>2014-05-06T09:06:28Z</time>
      </trkpt>
      <trkpt lat="44.41023" lon="4.18254">
        <ele>178</ele>
        <time>2014-05-06T09:06:37Z</time>
      </trkpt>
      <trkpt lat="44.4102" lon="4.18266">
        <ele>179</ele>
        <time>2014-05-06T09:06:47Z</time>
      </trkpt>
      <trkpt lat="44.41013" lon="4.18276">
        <ele>178</ele>
        <time>2014-05-06T09:06:58Z</time>
      </trkpt>
      <trkpt lat="44.41005" lon="4.18281">
        <ele>175</ele>
        <time>2014-05-06T09:07:12Z</time>
      </trkpt>
      <trkpt lat="44.40997" lon="4.1829">
        <ele>174</ele>
        <time>2014-05-06T09:07:22Z</time>
      </trkpt>
      <trkpt lat="44.40993" lon="4.18294">
        <ele>175</ele>
        <time>2014-05-06T09:07:34Z</time>
      </trkpt>
      <trkpt lat="44.40985" lon="4.18301">
        <ele>173</ele>
        <time>2014-05-06T09:08:34Z</time>
      </trkpt>
      <trkpt lat="44.40978" lon="4.1831">
        <ele>174</ele>
        <time>2014-05-06T09:08:43Z</time>
      </trkpt>
      <trkpt lat="44.40974" lon="4.18321">
        <ele>172</ele>
        <time>2014-05-06T09:08:57Z</time>
      </trkpt>
      <trkpt lat="44.40967" lon="4.18328">
        <ele>177</ele>
        <time>2014-05-06T09:09:15Z</time>
      </trkpt>
      <trkpt lat="44.40962" lon="4.18337">
        <ele>177</ele>
        <time>2014-05-06T09:09:49Z</time>
      </trkpt>
      <trkpt lat="44.4096" lon="4.18344">
        <ele>176</ele>
        <time>2014-05-06T09:09:54Z</time>
      </trkpt>
      <trkpt lat="44.40959" lon="4.18351">
        <ele>176</ele>
        <time>2014-05-06T09:09:59Z</time>
      </trkpt>
      <trkpt lat="44.40956" lon="4.18359">
        <ele>173</ele>
        <time>2014-05-06T09:10:08Z</time>
      </trkpt>
      <trkpt lat="44.40953" lon="4.18365">
        <ele>173</ele>
        <time>2014-05-06T09:10:14Z</time>
      </trkpt>
      <trkpt lat="44.40949" lon="4.18369">
        <ele>173</ele>
        <time>2014-05-06T09:10:21Z</time>
      </trkpt>
      <trkpt lat="44.40944" lon="4.18376">
        <ele>171</ele>
        <time>2014-05-06T09:10:46Z</time>
      </trkpt>
      <trkpt lat="44.40941" lon="4.18382">
        <ele>172</ele>
        <time>2014-05-06T09:10:54Z</time>
      </trkpt>
      <trkpt lat="44.40936" lon="4.18392">
        <ele>172</ele>
        <time>2014-05-06T09:11:04Z</time>
      </trkpt>
      <trkpt lat="44.40932" lon="4.18397">
        <ele>171</ele>
        <time>2014-05-06T09:11:09Z</time>
      </trkpt>
      <trkpt lat="44.40929" lon="4.18404">
        <ele>172</ele>
        <time>2014-05-06T09:11:13Z</time>
      </trkpt>
      <trkpt lat="44.40927" lon="4.1841">
        <ele>174</ele>
        <time>2014-05-06T09:11:17Z</time>
      </trkpt>
      <trkpt lat="44.40925" lon="4.18415">
        <ele>175</ele>
        <time>2014-05-06T09:11:22Z</time>
      </trkpt>
      <trkpt lat="44.40922" lon="4.18421">
        <ele>175</ele>
        <time>2014-05-06T09:11:29Z</time>
      </trkpt>
      <trkpt lat="44.40919" lon="4.18426">
        <ele>175</ele>
        <time>2014-05-06T09:11:38Z</time>
      </trkpt>
      <trkpt lat="44.40915" lon="4.1843">
        <ele>174</ele>
        <time>2014-05-06T09:11:44Z</time>
      </trkpt>
      <trkpt lat="44.40912" lon="4.18435">
        <ele>172</ele>
        <time>2014-05-06T09:11:52Z</time>
      </trkpt>
      <trkpt lat="44.40909" lon="4.18441">
        <ele>171</ele>
        <time>2014-05-06T09:11:58Z</time>
      </trkpt>
      <trkpt lat="44.40906" lon="4.18446">
        <ele>170</ele>
        <time>2014-05-06T09:12:06Z</time>
      </trkpt>
      <trkpt lat="44.40907" lon="4.18453">
        <ele>167</ele>
        <time>2014-05-06T09:12:13Z</time>
      </trkpt>
      <trkpt lat="44.40911" lon="4.18458">
        <ele>167</ele>
        <time>2014-05-06T09:12:20Z</time>
      </trkpt>
      <trkpt lat="44.40905" lon="4.18464">
        <ele>168</ele>
        <time>2014-05-06T09:12:52Z</time>
      </trkpt>
      <trkpt lat="44.40908" lon="4.1847">
        <ele>167</ele>
        <time>2014-05-06T09:12:58Z</time>
      </trkpt>
      <trkpt lat="44.40916" lon="4.18477">
        <ele>158</ele>
        <time>2014-05-06T09:13:44Z</time>
      </trkpt>
      <trkpt lat="44.40919" lon="4.18482">
        <ele>158</ele>
        <time>2014-05-06T09:13:51Z</time>
      </trkpt>
      <trkpt lat="44.40923" lon="4.18487">
        <ele>160</ele>
        <time>2014-05-06T09:13:58Z</time>
      </trkpt>
      <trkpt lat="44.40926" lon="4.18492">
        <ele>161</ele>
        <time>2014-05-06T09:14:06Z</time>
      </trkpt>
      <trkpt lat="44.40929" lon="4.18498">
        <ele>162</ele>
        <time>2014-05-06T09:14:11Z</time>
      </trkpt>
      <trkpt lat="44.40929" lon="4.18507">
        <ele>162</ele>
        <time>2014-05-06T09:14:23Z</time>
      </trkpt>
      <trkpt lat="44.40929" lon="4.1851">
        <ele>161</ele>
        <time>2014-05-06T09:14:34Z</time>
      </trkpt>
      <trkpt lat="44.40929" lon="4.18517">
        <ele>160</ele>
        <time>2014-05-06T09:14:40Z</time>
      </trkpt>
      <trkpt lat="44.40923" lon="4.18519">
        <ele>157</ele>
        <time>2014-05-06T09:15:33Z</time>
      </trkpt>
      <trkpt lat="44.40919" lon="4.1852">
        <ele>157</ele>
        <time>2014-05-06T09:15:39Z</time>
      </trkpt>
      <trkpt lat="44.40914" lon="4.18523">
        <ele>157</ele>
        <time>2014-05-06T09:15:47Z</time>
      </trkpt>
      <trkpt lat="44.40909" lon="4.18525">
        <ele>158</ele>
        <time>2014-05-06T09:15:53Z</time>
      </trkpt>
      <trkpt lat="44.40901" lon="4.18531">
        <ele>157</ele>
        <time>2014-05-06T09:16:04Z</time>
      </trkpt>
      <trkpt lat="44.40895" lon="4.18534">
        <ele>156</ele>
        <time>2014-05-06T09:16:11Z</time>
      </trkpt>
      <trkpt lat="44.40891" lon="4.18536">
        <ele>157</ele>
        <time>2014-05-06T09:16:16Z</time>
      </trkpt>
      <trkpt lat="44.40882" lon="4.18537">
        <ele>159</ele>
        <time>2014-05-06T09:16:26Z</time>
      </trkpt>
      <trkpt lat="44.40877" lon="4.18539">
        <ele>158</ele>
        <time>2014-05-06T09:16:34Z</time>
      </trkpt>
      <trkpt lat="44.40872" lon="4.18537">
        <ele>157</ele>
        <time>2014-05-06T09:16:41Z</time>
      </trkpt>
      <trkpt lat="44.40867" lon="4.18537">
        <ele>156</ele>
        <time>2014-05-06T09:16:48Z</time>
      </trkpt>
      <trkpt lat="44.40861" lon="4.18538">
        <ele>154</ele>
        <time>2014-05-06T09:16:57Z</time>
      </trkpt>
      <trkpt lat="44.40858" lon="4.18543">
        <ele>153</ele>
        <time>2014-05-06T09:17:03Z</time>
      </trkpt>
      <trkpt lat="44.40853" lon="4.18547">
        <ele>152</ele>
        <time>2014-05-06T09:17:10Z</time>
      </trkpt>
      <trkpt lat="44.40851" lon="4.18554">
        <ele>152</ele>
        <time>2014-05-06T09:17:16Z</time>
      </trkpt>
      <trkpt lat="44.40848" lon="4.1856">
        <ele>152</ele>
        <time>2014-05-06T09:17:22Z</time>
      </trkpt>
      <trkpt lat="44.40848" lon="4.18568">
        <ele>152</ele>
        <time>2014-05-06T09:17:28Z</time>
      </trkpt>
      <trkpt lat="44.40847" lon="4.18575">
        <ele>153</ele>
        <time>2014-05-06T09:17:37Z</time>
      </trkpt>
      <trkpt lat="44.40845" lon="4.18581">
        <ele>152</ele>
        <time>2014-05-06T09:17:43Z</time>
      </trkpt>
      <trkpt lat="44.40843" lon="4.18589">
        <ele>153</ele>
        <time>2014-05-06T09:17:47Z</time>
      </trkpt>
      <trkpt lat="44.40841" lon="4.18595">
        <ele>154</ele>
        <time>2014-05-06T09:17:53Z</time>
      </trkpt>
      <trkpt lat="44.40839" lon="4.18602">
        <ele>155</ele>
        <time>2014-05-06T09:18:02Z</time>
      </trkpt>
      <trkpt lat="44.40839" lon="4.18609">
        <ele>154</ele>
        <time>2014-05-06T09:18:07Z</time>
      </trkpt>
      <trkpt lat="44.40838" lon="4.18615">
        <ele>154</ele>
        <time>2014-05-06T09:18:13Z</time>
      </trkpt>
      <trkpt lat="44.40835" lon="4.18621">
        <ele>155</ele>
        <time>2014-05-06T09:18:19Z</time>
      </trkpt>
      <trkpt lat="44.40833" lon="4.18627">
        <ele>155</ele>
        <time>2014-05-06T09:18:26Z</time>
      </trkpt>
      <trkpt lat="44.40832" lon="4.18633">
        <ele>156</ele>
        <time>2014-05-06T09:18:32Z</time>
      </trkpt>
      <trkpt lat="44.40833" lon="4.18639">
        <ele>155</ele>
        <time>2014-05-06T09:18:40Z</time>
      </trkpt>
      <trkpt lat="44.40832" lon="4.18641">
        <ele>155</ele>
        <time>2014-05-06T09:26:04Z</time>
      </trkpt>
      <trkpt lat="44.4082" lon="4.18647">
        <ele>157</ele>
        <time>2014-05-06T09:31:42Z</time>
      </trkpt>
      <trkpt lat="44.40811" lon="4.18649">
        <ele>157</ele>
        <time>2014-05-06T09:31:54Z</time>
      </trkpt>
      <trkpt lat="44.40802" lon="4.18653">
        <ele>156</ele>
        <time>2014-05-06T09:32:08Z</time>
      </trkpt>
      <trkpt lat="44.40793" lon="4.18658">
        <ele>153</ele>
        <time>2014-05-06T09:32:19Z</time>
      </trkpt>
      <trkpt lat="44.40784" lon="4.18661">
        <ele>153</ele>
        <time>2014-05-06T09:32:30Z</time>
      </trkpt>
      <trkpt lat="44.40775" lon="4.18666">
        <ele>156</ele>
        <time>2014-05-06T09:32:41Z</time>
      </trkpt>
      <trkpt lat="44.40769" lon="4.1867">
        <ele>157</ele>
        <time>2014-05-06T09:32:57Z</time>
      </trkpt>
      <trkpt lat="44.40766" lon="4.18684">
        <ele>157</ele>
        <time>2014-05-06T09:33:11Z</time>
      </trkpt>
      <trkpt lat="44.40757" lon="4.18689">
        <ele>153</ele>
        <time>2014-05-06T09:33:24Z</time>
      </trkpt>
      <trkpt lat="44.40747" lon="4.1869">
        <ele>152</ele>
        <time>2014-05-06T09:33:35Z</time>
      </trkpt>
      <trkpt lat="44.40739" lon="4.18701">
        <ele>152</ele>
        <time>2014-05-06T09:33:52Z</time>
      </trkpt>
      <trkpt lat="44.40735" lon="4.18706">
        <ele>150</ele>
        <time>2014-05-06T09:33:59Z</time>
      </trkpt>
      <trkpt lat="44.40731" lon="4.18711">
        <ele>149</ele>
        <time>2014-05-06T09:34:05Z</time>
      </trkpt>
      <trkpt lat="44.40727" lon="4.18715">
        <ele>148</ele>
        <time>2014-05-06T09:34:12Z</time>
      </trkpt>
      <trkpt lat="44.40719" lon="4.18722">
        <ele>149</ele>
        <time>2014-05-06T09:34:29Z</time>
      </trkpt>
      <trkpt lat="44.40715" lon="4.18726">
        <ele>151</ele>
        <time>2014-05-06T09:34:37Z</time>
      </trkpt>
      <trkpt lat="44.40709" lon="4.18735">
        <ele>152</ele>
        <time>2014-05-06T09:34:46Z</time>
      </trkpt>
      <trkpt lat="44.407" lon="4.18739">
        <ele>150</ele>
        <time>2014-05-06T09:34:58Z</time>
      </trkpt>
      <trkpt lat="44.40695" lon="4.1874">
        <ele>148</ele>
        <time>2014-05-06T09:35:03Z</time>
      </trkpt>
      <trkpt lat="44.40691" lon="4.18744">
        <ele>148</ele>
        <time>2014-05-06T09:35:08Z</time>
      </trkpt>
      <trkpt lat="44.4069" lon="4.18751">
        <ele>148</ele>
        <time>2014-05-06T09:35:14Z</time>
      </trkpt>
      <trkpt lat="44.40688" lon="4.18757">
        <ele>147</ele>
        <time>2014-05-06T09:35:18Z</time>
      </trkpt>
      <trkpt lat="44.40684" lon="4.18763">
        <ele>145</ele>
        <time>2014-05-06T09:35:25Z</time>
      </trkpt>
      <trkpt lat="44.40682" lon="4.18768">
        <ele>143</ele>
        <time>2014-05-06T09:35:30Z</time>
      </trkpt>
      <trkpt lat="44.40679" lon="4.18774">
        <ele>142</ele>
        <time>2014-05-06T09:35:35Z</time>
      </trkpt>
      <trkpt lat="44.40676" lon="4.1878">
        <ele>140</ele>
        <time>2014-05-06T09:35:40Z</time>
      </trkpt>
      <trkpt lat="44.40676" lon="4.18788">
        <ele>140</ele>
        <time>2014-05-06T09:35:45Z</time>
      </trkpt>
      <trkpt lat="44.40676" lon="4.18796">
        <ele>140</ele>
        <time>2014-05-06T09:35:50Z</time>
      </trkpt>
      <trkpt lat="44.40675" lon="4.18802">
        <ele>140</ele>
        <time>2014-05-06T09:35:57Z</time>
      </trkpt>
      <trkpt lat="44.40673" lon="4.18811">
        <ele>139</ele>
        <time>2014-05-06T09:36:11Z</time>
      </trkpt>
      <trkpt lat="44.40679" lon="4.18821">
        <ele>139</ele>
        <time>2014-05-06T09:36:21Z</time>
      </trkpt>
      <trkpt lat="44.40677" lon="4.18834">
        <ele>140</ele>
        <time>2014-05-06T09:36:36Z</time>
      </trkpt>
      <trkpt lat="44.40678" lon="4.18842">
        <ele>142</ele>
        <time>2014-05-06T09:36:43Z</time>
      </trkpt>
      <trkpt lat="44.40678" lon="4.18849">
        <ele>143</ele>
        <time>2014-05-06T09:36:48Z</time>
      </trkpt>
      <trkpt lat="44.40677" lon="4.18862">
        <ele>143</ele>
        <time>2014-05-06T09:36:56Z</time>
      </trkpt>
      <trkpt lat="44.40675" lon="4.18868">
        <ele>143</ele>
        <time>2014-05-06T09:37:01Z</time>
      </trkpt>
      <trkpt lat="44.40672" lon="4.18873">
        <ele>143</ele>
        <time>2014-05-06T09:37:06Z</time>
      </trkpt>
      <trkpt lat="44.4067" lon="4.18882">
        <ele>143</ele>
        <time>2014-05-06T09:37:12Z</time>
      </trkpt>
      <trkpt lat="44.40669" lon="4.18888">
        <ele>143</ele>
        <time>2014-05-06T09:37:17Z</time>
      </trkpt>
      <trkpt lat="44.40666" lon="4.18894">
        <ele>143</ele>
        <time>2014-05-06T09:37:23Z</time>
      </trkpt>
      <trkpt lat="44.40663" lon="4.18901">
        <ele>143</ele>
        <time>2014-05-06T09:37:28Z</time>
      </trkpt>
      <trkpt lat="44.4066" lon="4.18906">
        <ele>143</ele>
        <time>2014-05-06T09:37:33Z</time>
      </trkpt>
      <trkpt lat="44.40657" lon="4.18914">
        <ele>143</ele>
        <time>2014-05-06T09:37:43Z</time>
      </trkpt>
      <trkpt lat="44.40658" lon="4.18921">
        <ele>142</ele>
        <time>2014-05-06T09:37:47Z</time>
      </trkpt>
      <trkpt lat="44.40661" lon="4.18932">
        <ele>143</ele>
        <time>2014-05-06T09:37:58Z</time>
      </trkpt>
      <trkpt lat="44.40659" lon="4.18938">
        <ele>144</ele>
        <time>2014-05-06T09:38:06Z</time>
      </trkpt>
      <trkpt lat="44.40659" lon="4.18945">
        <ele>144</ele>
        <time>2014-05-06T09:38:10Z</time>
      </trkpt>
      <trkpt lat="44.40657" lon="4.18953">
        <ele>143</ele>
        <time>2014-05-06T09:38:17Z</time>
      </trkpt>
      <trkpt lat="44.40653" lon="4.18957">
        <ele>142</ele>
        <time>2014-05-06T09:38:25Z</time>
      </trkpt>
      <trkpt lat="44.40649" lon="4.18969">
        <ele>142</ele>
        <time>2014-05-06T09:38:31Z</time>
      </trkpt>
      <trkpt lat="44.40644" lon="4.18974">
        <ele>142</ele>
        <time>2014-05-06T09:38:35Z</time>
      </trkpt>
      <trkpt lat="44.40639" lon="4.18985">
        <ele>143</ele>
        <time>2014-05-06T09:38:46Z</time>
      </trkpt>
      <trkpt lat="44.40635" lon="4.18991">
        <ele>141</ele>
        <time>2014-05-06T09:38:52Z</time>
      </trkpt>
      <trkpt lat="44.40631" lon="4.18997">
        <ele>140</ele>
        <time>2014-05-06T09:38:56Z</time>
      </trkpt>
      <trkpt lat="44.40624" lon="4.18999">
        <ele>139</ele>
        <time>2014-05-06T09:39:04Z</time>
      </trkpt>
      <trkpt lat="44.4062" lon="4.19008">
        <ele>141</ele>
        <time>2014-05-06T09:39:09Z</time>
      </trkpt>
      <trkpt lat="44.40618" lon="4.19014">
        <ele>141</ele>
        <time>2014-05-06T09:39:13Z</time>
      </trkpt>
      <trkpt lat="44.40616" lon="4.19021">
        <ele>141</ele>
        <time>2014-05-06T09:39:17Z</time>
      </trkpt>
      <trkpt lat="44.40612" lon="4.19027">
        <ele>139</ele>
        <time>2014-05-06T09:39:23Z</time>
      </trkpt>
      <trkpt lat="44.40609" lon="4.19032">
        <ele>139</ele>
        <time>2014-05-06T09:39:28Z</time>
      </trkpt>
      <trkpt lat="44.40605" lon="4.19037">
        <ele>138</ele>
        <time>2014-05-06T09:39:32Z</time>
      </trkpt>
      <trkpt lat="44.40601" lon="4.19042">
        <ele>138</ele>
        <time>2014-05-06T09:39:38Z</time>
      </trkpt>
      <trkpt lat="44.40597" lon="4.19046">
        <ele>138</ele>
        <time>2014-05-06T09:39:42Z</time>
      </trkpt>
      <trkpt lat="44.40594" lon="4.1905">
        <ele>138</ele>
        <time>2014-05-06T09:39:46Z</time>
      </trkpt>
      <trkpt lat="44.40591" lon="4.19055">
        <ele>138</ele>
        <time>2014-05-06T09:39:50Z</time>
      </trkpt>
      <trkpt lat="44.40588" lon="4.1906">
        <ele>137</ele>
        <time>2014-05-06T09:39:56Z</time>
      </trkpt>
      <trkpt lat="44.40585" lon="4.19066">
        <ele>137</ele>
        <time>2014-05-06T09:40:00Z</time>
      </trkpt>
      <trkpt lat="44.40583" lon="4.19071">
        <ele>137</ele>
        <time>2014-05-06T09:40:05Z</time>
      </trkpt>
      <trkpt lat="44.40581" lon="4.19077">
        <ele>138</ele>
        <time>2014-05-06T09:40:11Z</time>
      </trkpt>
      <trkpt lat="44.40578" lon="4.19083">
        <ele>139</ele>
        <time>2014-05-06T09:40:17Z</time>
      </trkpt>
      <trkpt lat="44.40575" lon="4.19089">
        <ele>139</ele>
        <time>2014-05-06T09:40:21Z</time>
      </trkpt>
      <trkpt lat="44.40571" lon="4.19094">
        <ele>139</ele>
        <time>2014-05-06T09:40:26Z</time>
      </trkpt>
      <trkpt lat="44.40569" lon="4.191">
        <ele>138</ele>
        <time>2014-05-06T09:40:31Z</time>
      </trkpt>
      <trkpt lat="44.40568" lon="4.19108">
        <ele>136</ele>
        <time>2014-05-06T09:40:38Z</time>
      </trkpt>
      <trkpt lat="44.40568" lon="4.1912">
        <ele>136</ele>
        <time>2014-05-06T09:40:48Z</time>
      </trkpt>
      <trkpt lat="44.40568" lon="4.19128">
        <ele>136</ele>
        <time>2014-05-06T09:40:53Z</time>
      </trkpt>
      <trkpt lat="44.40565" lon="4.1914">
        <ele>135</ele>
        <time>2014-05-06T09:41:02Z</time>
      </trkpt>
      <trkpt lat="44.40565" lon="4.19148">
        <ele>133</ele>
        <time>2014-05-06T09:41:10Z</time>
      </trkpt>
      <trkpt lat="44.40565" lon="4.19156">
        <ele>133</ele>
        <time>2014-05-06T09:41:14Z</time>
      </trkpt>
      <trkpt lat="44.40566" lon="4.19162">
        <ele>133</ele>
        <time>2014-05-06T09:41:18Z</time>
      </trkpt>
      <trkpt lat="44.40567" lon="4.19169">
        <ele>133</ele>
        <time>2014-05-06T09:41:24Z</time>
      </trkpt>
      <trkpt lat="44.40567" lon="4.1918">
        <ele>132</ele>
        <time>2014-05-06T09:41:33Z</time>
      </trkpt>
      <trkpt lat="44.40565" lon="4.19195">
        <ele>132</ele>
        <time>2014-05-06T09:41:45Z</time>
      </trkpt>
      <trkpt lat="44.40564" lon="4.19208">
        <ele>133</ele>
        <time>2014-05-06T09:41:53Z</time>
      </trkpt>
      <trkpt lat="44.40559" lon="4.19217">
        <ele>142</ele>
        <time>2014-05-06T09:43:08Z</time>
      </trkpt>
      <trkpt lat="44.40562" lon="4.19227">
        <ele>147</ele>
        <time>2014-05-06T09:44:27Z</time>
      </trkpt>
      <trkpt lat="44.40563" lon="4.19233">
        <ele>151</ele>
        <time>2014-05-06T09:44:50Z</time>
      </trkpt>
      <trkpt lat="44.40561" lon="4.19248">
        <ele>152</ele>
        <time>2014-05-06T09:44:57Z</time>
      </trkpt>
      <trkpt lat="44.40564" lon="4.19262">
        <ele>148</ele>
        <time>2014-05-06T09:45:04Z</time>
      </trkpt>
      <trkpt lat="44.40569" lon="4.19271">
        <ele>145</ele>
        <time>2014-05-06T09:45:11Z</time>
      </trkpt>
      <trkpt lat="44.40567" lon="4.19272">
        <ele>140</ele>
        <time>2014-05-06T09:46:35Z</time>
      </trkpt>
      <trkpt lat="44.40566" lon="4.19281">
        <ele>138</ele>
        <time>2014-05-06T09:47:02Z</time>
      </trkpt>
      <trkpt lat="44.40568" lon="4.19287">
        <ele>135</ele>
        <time>2014-05-06T09:47:05Z</time>
      </trkpt>
      <trkpt lat="44.40569" lon="4.19294">
        <ele>134</ele>
        <time>2014-05-06T09:47:08Z</time>
      </trkpt>
      <trkpt lat="44.40571" lon="4.193">
        <ele>134</ele>
        <time>2014-05-06T09:47:11Z</time>
      </trkpt>
      <trkpt lat="44.40576" lon="4.1931">
        <ele>134</ele>
        <time>2014-05-06T09:47:19Z</time>
      </trkpt>
      <trkpt lat="44.40578" lon="4.19317">
        <ele>134</ele>
        <time>2014-05-06T09:47:24Z</time>
      </trkpt>
      <trkpt lat="44.40579" lon="4.1933">
        <ele>135</ele>
        <time>2014-05-06T09:47:32Z</time>
      </trkpt>
      <trkpt lat="44.40584" lon="4.19341">
        <ele>135</ele>
        <time>2014-05-06T09:47:38Z</time>
      </trkpt>
      <trkpt lat="44.40588" lon="4.19356">
        <ele>133</ele>
        <time>2014-05-06T09:47:47Z</time>
      </trkpt>
      <trkpt lat="44.40588" lon="4.19369">
        <ele>133</ele>
        <time>2014-05-06T09:47:54Z</time>
      </trkpt>
      <trkpt lat="44.40584" lon="4.1938">
        <ele>131</ele>
        <time>2014-05-06T09:48:05Z</time>
      </trkpt>
      <trkpt lat="44.40583" lon="4.19393">
        <ele>132</ele>
        <time>2014-05-06T09:48:16Z</time>
      </trkpt>
      <trkpt lat="44.40586" lon="4.19405">
        <ele>133</ele>
        <time>2014-05-06T09:48:27Z</time>
      </trkpt>
      <trkpt lat="44.4059" lon="4.19417">
        <ele>133</ele>
        <time>2014-05-06T09:48:38Z</time>
      </trkpt>
      <trkpt lat="44.40596" lon="4.19427">
        <ele>132</ele>
        <time>2014-05-06T09:48:49Z</time>
      </trkpt>
      <trkpt lat="44.40599" lon="4.19434">
        <ele>132</ele>
        <time>2014-05-06T09:48:53Z</time>
      </trkpt>
      <trkpt lat="44.40599" lon="4.19446">
        <ele>133</ele>
        <time>2014-05-06T09:49:01Z</time>
      </trkpt>
      <trkpt lat="44.40601" lon="4.19459">
        <ele>135</ele>
        <time>2014-05-06T09:49:09Z</time>
      </trkpt>
      <trkpt lat="44.40601" lon="4.19472">
        <ele>138</ele>
        <time>2014-05-06T09:49:16Z</time>
      </trkpt>
      <trkpt lat="44.40598" lon="4.19485">
        <ele>138</ele>
        <time>2014-05-06T09:49:23Z</time>
      </trkpt>
      <trkpt lat="44.40594" lon="4.19498">
        <ele>136</ele>
        <time>2014-05-06T09:49:32Z</time>
      </trkpt>
      <trkpt lat="44.4059" lon="4.1951">
        <ele>136</ele>
        <time>2014-05-06T09:49:40Z</time>
      </trkpt>
      <trkpt lat="44.40586" lon="4.19519">
        <ele>136</ele>
        <time>2014-05-06T09:49:46Z</time>
      </trkpt>
      <trkpt lat="44.4058" lon="4.19528">
        <ele>136</ele>
        <time>2014-05-06T09:49:58Z</time>
      </trkpt>
      <trkpt lat="44.40572" lon="4.19535">
        <ele>136</ele>
        <time>2014-05-06T09:50:08Z</time>
      </trkpt>
      <trkpt lat="44.40564" lon="4.1954">
        <ele>138</ele>
        <time>2014-05-06T09:50:20Z</time>
      </trkpt>
      <trkpt lat="44.40558" lon="4.19556">
        <ele>137</ele>
        <time>2014-05-06T09:50:43Z</time>
      </trkpt>
      <trkpt lat="44.40551" lon="4.19566">
        <ele>138</ele>
        <time>2014-05-06T09:51:01Z</time>
      </trkpt>
      <trkpt lat="44.40547" lon="4.19572">
        <ele>145</ele>
        <time>2014-05-06T09:51:31Z</time>
      </trkpt>
      <trkpt lat="44.40527" lon="4.1958">
        <ele>157</ele>
        <time>2014-05-06T09:52:00Z</time>
      </trkpt>
      <trkpt lat="44.40522" lon="4.1959">
        <ele>146</ele>
        <time>2014-05-06T09:52:30Z</time>
      </trkpt>
      <trkpt lat="44.40521" lon="4.19599">
        <ele>150</ele>
        <time>2014-05-06T09:53:58Z</time>
      </trkpt>
      <trkpt lat="44.40525" lon="4.19605">
        <ele>152</ele>
        <time>2014-05-06T09:54:28Z</time>
      </trkpt>
      <trkpt lat="44.40525" lon="4.19608">
        <ele>155</ele>
        <time>2014-05-06T09:55:20Z</time>
      </trkpt>
      <trkpt lat="44.40516" lon="4.19613">
        <ele>157</ele>
        <time>2014-05-06T09:55:40Z</time>
      </trkpt>
      <trkpt lat="44.40512" lon="4.19616">
        <ele>159</ele>
        <time>2014-05-06T09:55:56Z</time>
      </trkpt>
      <trkpt lat="44.40509" lon="4.19624">
        <ele>168</ele>
        <time>2014-05-06T09:56:14Z</time>
      </trkpt>
      <trkpt lat="44.40512" lon="4.19634">
        <ele>171</ele>
        <time>2014-05-06T09:56:57Z</time>
      </trkpt>
      <trkpt lat="44.40508" lon="4.19644">
        <ele>174</ele>
        <time>2014-05-06T09:57:40Z</time>
      </trkpt>
      <trkpt lat="44.40519" lon="4.19647">
        <ele>178</ele>
        <time>2014-05-06T09:58:14Z</time>
      </trkpt>
      <trkpt lat="44.40528" lon="4.1965">
        <ele>178</ele>
        <time>2014-05-06T09:58:21Z</time>
      </trkpt>
      <trkpt lat="44.40536" lon="4.19651">
        <ele>178</ele>
        <time>2014-05-06T09:58:32Z</time>
      </trkpt>
      <trkpt lat="44.40543" lon="4.19654">
        <ele>180</ele>
        <time>2014-05-06T09:58:48Z</time>
      </trkpt>
      <trkpt lat="44.40546" lon="4.19654">
        <ele>187</ele>
        <time>2014-05-06T09:59:39Z</time>
      </trkpt>
      <trkpt lat="44.40551" lon="4.19661">
        <ele>181</ele>
        <time>2014-05-06T10:00:31Z</time>
      </trkpt>
      <trkpt lat="44.40553" lon="4.19666">
        <ele>181</ele>
        <time>2014-05-06T10:01:27Z</time>
      </trkpt>
      <trkpt lat="44.40553" lon="4.19672">
        <ele>182</ele>
        <time>2014-05-06T10:01:48Z</time>
      </trkpt>
      <trkpt lat="44.40564" lon="4.19678">
        <ele>182</ele>
        <time>2014-05-06T10:02:01Z</time>
      </trkpt>
      <trkpt lat="44.40574" lon="4.1968">
        <ele>184</ele>
        <time>2014-05-06T10:02:11Z</time>
      </trkpt>
      <trkpt lat="44.40582" lon="4.19683">
        <ele>186</ele>
        <time>2014-05-06T10:02:18Z</time>
      </trkpt>
      <trkpt lat="44.40589" lon="4.19685">
        <ele>187</ele>
        <time>2014-05-06T10:02:23Z</time>
      </trkpt>
      <trkpt lat="44.40593" lon="4.19688">
        <ele>188</ele>
        <time>2014-05-06T10:02:28Z</time>
      </trkpt>
      <trkpt lat="44.40598" lon="4.19699">
        <ele>187</ele>
        <time>2014-05-06T10:02:37Z</time>
      </trkpt>
      <trkpt lat="44.40596" lon="4.19705">
        <ele>180</ele>
        <time>2014-05-06T10:03:02Z</time>
      </trkpt>
      <trkpt lat="44.406" lon="4.19709">
        <ele>179</ele>
        <time>2014-05-06T10:03:13Z</time>
      </trkpt>
      <trkpt lat="44.40598" lon="4.19699">
        <ele>186</ele>
        <time>2014-05-06T10:03:50Z</time>
      </trkpt>
      <trkpt lat="44.4059" lon="4.19705">
        <ele>186</ele>
        <time>2014-05-06T10:04:03Z</time>
      </trkpt>
      <trkpt lat="44.40588" lon="4.19718">
        <ele>185</ele>
        <time>2014-05-06T10:04:13Z</time>
      </trkpt>
      <trkpt lat="44.40586" lon="4.19724">
        <ele>183</ele>
        <time>2014-05-06T10:04:30Z</time>
      </trkpt>
      <trkpt lat="44.40583" lon="4.19734">
        <ele>185</ele>
        <time>2014-05-06T10:04:40Z</time>
      </trkpt>
      <trkpt lat="44.40578" lon="4.19741">
        <ele>184</ele>
        <time>2014-05-06T10:04:43Z</time>
      </trkpt>
      <trkpt lat="44.40573" lon="4.19747">
        <ele>185</ele>
        <time>2014-05-06T10:04:50Z</time>
      </trkpt>
      <trkpt lat="44.40568" lon="4.19753">
        <ele>186</ele>
        <time>2014-05-06T10:04:57Z</time>
      </trkpt>
      <trkpt lat="44.4056" lon="4.19763">
        <ele>187</ele>
        <time>2014-05-06T10:05:07Z</time>
      </trkpt>
      <trkpt lat="44.40555" lon="4.19773">
        <ele>188</ele>
        <time>2014-05-06T10:05:17Z</time>
      </trkpt>
      <trkpt lat="44.40549" lon="4.19785">
        <ele>187</ele>
        <time>2014-05-06T10:05:25Z</time>
      </trkpt>
      <trkpt lat="44.40546" lon="4.19794">
        <ele>186</ele>
        <time>2014-05-06T10:05:42Z</time>
      </trkpt>
      <trkpt lat="44.40542" lon="4.19805">
        <ele>188</ele>
        <time>2014-05-06T10:06:07Z</time>
      </trkpt>
      <trkpt lat="44.40539" lon="4.19817">
        <ele>187</ele>
        <time>2014-05-06T10:06:19Z</time>
      </trkpt>
      <trkpt lat="44.40532" lon="4.19825">
        <ele>186</ele>
        <time>2014-05-06T10:06:36Z</time>
      </trkpt>
      <trkpt lat="44.40536" lon="4.19842">
        <ele>185</ele>
        <time>2014-05-06T10:07:06Z</time>
      </trkpt>
      <trkpt lat="44.40538" lon="4.19854">
        <ele>186</ele>
        <time>2014-05-06T10:07:22Z</time>
      </trkpt>
      <trkpt lat="44.40536" lon="4.19861">
        <ele>190</ele>
        <time>2014-05-06T10:07:37Z</time>
      </trkpt>
      <trkpt lat="44.40536" lon="4.19864">
        <ele>191</ele>
        <time>2014-05-06T10:07:43Z</time>
      </trkpt>
      <trkpt lat="44.40534" lon="4.19869">
        <ele>190</ele>
        <time>2014-05-06T10:07:55Z</time>
      </trkpt>
      <trkpt lat="44.40533" lon="4.19874">
        <ele>190</ele>
        <time>2014-05-06T10:08:23Z</time>
      </trkpt>
      <trkpt lat="44.40534" lon="4.19879">
        <ele>187</ele>
        <time>2014-05-06T10:08:40Z</time>
      </trkpt>
      <trkpt lat="44.40529" lon="4.19885">
        <ele>184</ele>
        <time>2014-05-06T10:08:53Z</time>
      </trkpt>
      <trkpt lat="44.40522" lon="4.19884">
        <ele>185</ele>
        <time>2014-05-06T10:09:19Z</time>
      </trkpt>
      <trkpt lat="44.40522" lon="4.19879">
        <ele>187</ele>
        <time>2014-05-06T10:09:48Z</time>
      </trkpt>
      <trkpt lat="44.40529" lon="4.19872">
        <ele>181</ele>
        <time>2014-05-06T10:12:27Z</time>
      </trkpt>
      <trkpt lat="44.40531" lon="4.19868">
        <ele>179</ele>
        <time>2014-05-06T10:13:00Z</time>
      </trkpt>
      <trkpt lat="44.40535" lon="4.19864">
        <ele>181</ele>
        <time>2014-05-06T10:13:47Z</time>
      </trkpt>
      <trkpt lat="44.40546" lon="4.19855">
        <ele>190</ele>
        <time>2014-05-06T10:14:15Z</time>
      </trkpt>
      <trkpt lat="44.40543" lon="4.19855">
        <ele>193</ele>
        <time>2014-05-06T10:14:37Z</time>
      </trkpt>
      <trkpt lat="44.40537" lon="4.19852">
        <ele>190</ele>
        <time>2014-05-06T10:15:19Z</time>
      </trkpt>
      <trkpt lat="44.40544" lon="4.19866">
        <ele>187</ele>
        <time>2014-05-06T10:15:49Z</time>
      </trkpt>
      <trkpt lat="44.40548" lon="4.19877">
        <ele>183</ele>
        <time>2014-05-06T10:17:02Z</time>
      </trkpt>
      <trkpt lat="44.40558" lon="4.19882">
        <ele>191</ele>
        <time>2014-05-06T10:17:46Z</time>
      </trkpt>
      <trkpt lat="44.40567" lon="4.19882">
        <ele>191</ele>
        <time>2014-05-06T10:18:01Z</time>
      </trkpt>
      <trkpt lat="44.40571" lon="4.19885">
        <ele>187</ele>
        <time>2014-05-06T10:18:30Z</time>
      </trkpt>
      <trkpt lat="44.40574" lon="4.1989">
        <ele>189</ele>
        <time>2014-05-06T10:18:47Z</time>
      </trkpt>
      <trkpt lat="44.40579" lon="4.19895">
        <ele>190</ele>
        <time>2014-05-06T10:19:09Z</time>
      </trkpt>
      <trkpt lat="44.40587" lon="4.19904">
        <ele>195</ele>
        <time>2014-05-06T10:19:51Z</time>
      </trkpt>
      <trkpt lat="44.40582" lon="4.19903">
        <ele>200</ele>
        <time>2014-05-06T10:21:11Z</time>
      </trkpt>
      <trkpt lat="44.40578" lon="4.19899">
        <ele>200</ele>
        <time>2014-05-06T10:21:21Z</time>
      </trkpt>
      <trkpt lat="44.40575" lon="4.19894">
        <ele>200</ele>
        <time>2014-05-06T10:21:26Z</time>
      </trkpt>
      <trkpt lat="44.40569" lon="4.19887">
        <ele>197</ele>
        <time>2014-05-06T10:21:41Z</time>
      </trkpt>
      <trkpt lat="44.40565" lon="4.19875">
        <ele>197</ele>
        <time>2014-05-06T10:21:52Z</time>
      </trkpt>
      <trkpt lat="44.40559" lon="4.19875">
        <ele>196</ele>
        <time>2014-05-06T10:22:04Z</time>
      </trkpt>
      <trkpt lat="44.40556" lon="4.1987">
        <ele>195</ele>
        <time>2014-05-06T10:22:11Z</time>
      </trkpt>
      <trkpt lat="44.40551" lon="4.1986">
        <ele>191</ele>
        <time>2014-05-06T10:22:31Z</time>
      </trkpt>
      <trkpt lat="44.40549" lon="4.19858">
        <ele>187</ele>
        <time>2014-05-06T10:22:43Z</time>
      </trkpt>
      <trkpt lat="44.40542" lon="4.19852">
        <ele>187</ele>
        <time>2014-05-06T10:23:12Z</time>
      </trkpt>
      <trkpt lat="44.40539" lon="4.19846">
        <ele>187</ele>
        <time>2014-05-06T10:23:17Z</time>
      </trkpt>
      <trkpt lat="44.40541" lon="4.19838">
        <ele>188</ele>
        <time>2014-05-06T10:23:24Z</time>
      </trkpt>
      <trkpt lat="44.40545" lon="4.19838">
        <ele>189</ele>
        <time>2014-05-06T10:23:32Z</time>
      </trkpt>
      <trkpt lat="44.40554" lon="4.19835">
        <ele>187</ele>
        <time>2014-05-06T10:23:51Z</time>
      </trkpt>
      <trkpt lat="44.40558" lon="4.19831">
        <ele>186</ele>
        <time>2014-05-06T10:23:55Z</time>
      </trkpt>
      <trkpt lat="44.40566" lon="4.19829">
        <ele>188</ele>
        <time>2014-05-06T10:24:23Z</time>
      </trkpt>
      <trkpt lat="44.40572" lon="4.19828">
        <ele>189</ele>
        <time>2014-05-06T10:24:33Z</time>
      </trkpt>
      <trkpt lat="44.40576" lon="4.19826">
        <ele>190</ele>
        <time>2014-05-06T10:24:40Z</time>
      </trkpt>
      <trkpt lat="44.40585" lon="4.19829">
        <ele>190</ele>
        <time>2014-05-06T10:24:58Z</time>
      </trkpt>
      <trkpt lat="44.4059" lon="4.1983">
        <ele>188</ele>
        <time>2014-05-06T10:25:12Z</time>
      </trkpt>
      <trkpt lat="44.40594" lon="4.19835">
        <ele>187</ele>
        <time>2014-05-06T10:25:26Z</time>
      </trkpt>
      <trkpt lat="44.406" lon="4.19836">
        <ele>190</ele>
        <time>2014-05-06T10:25:48Z</time>
      </trkpt>
      <trkpt lat="44.40609" lon="4.1984">
        <ele>190</ele>
        <time>2014-05-06T10:26:00Z</time>
      </trkpt>
      <trkpt lat="44.40611" lon="4.19842">
        <ele>190</ele>
        <time>2014-05-06T10:26:14Z</time>
      </trkpt>
      <trkpt lat="44.40615" lon="4.19845">
        <ele>192</ele>
        <time>2014-05-06T10:26:30Z</time>
      </trkpt>
      <trkpt lat="44.40618" lon="4.19847">
        <ele>192</ele>
        <time>2014-05-06T10:26:39Z</time>
      </trkpt>
      <trkpt lat="44.40623" lon="4.19846">
        <ele>195</ele>
        <time>2014-05-06T10:26:52Z</time>
      </trkpt>
      <trkpt lat="44.40633" lon="4.19847">
        <ele>197</ele>
        <time>2014-05-06T10:27:04Z</time>
      </trkpt>
      <trkpt lat="44.40639" lon="4.19847">
        <ele>195</ele>
        <time>2014-05-06T10:27:26Z</time>
      </trkpt>
      <trkpt lat="44.40646" lon="4.19846">
        <ele>194</ele>
        <time>2014-05-06T10:27:39Z</time>
      </trkpt>
      <trkpt lat="44.40656" lon="4.19848">
        <ele>194</ele>
        <time>2014-05-06T10:27:52Z</time>
      </trkpt>
      <trkpt lat="44.40666" lon="4.1985">
        <ele>196</ele>
        <time>2014-05-06T10:28:03Z</time>
      </trkpt>
      <trkpt lat="44.4067" lon="4.19852">
        <ele>198</ele>
        <time>2014-05-06T10:28:09Z</time>
      </trkpt>
      <trkpt lat="44.40675" lon="4.19854">
        <ele>202</ele>
        <time>2014-05-06T10:28:28Z</time>
      </trkpt>
      <trkpt lat="44.40674" lon="4.19867">
        <ele>204</ele>
        <time>2014-05-06T10:28:43Z</time>
      </trkpt>
      <trkpt lat="44.40677" lon="4.19878">
        <ele>204</ele>
        <time>2014-05-06T10:28:52Z</time>
      </trkpt>
      <trkpt lat="44.40681" lon="4.19884">
        <ele>203</ele>
        <time>2014-05-06T10:29:01Z</time>
      </trkpt>
      <trkpt lat="44.4068" lon="4.19892">
        <ele>204</ele>
        <time>2014-05-06T10:29:16Z</time>
      </trkpt>
      <trkpt lat="44.40687" lon="4.19902">
        <ele>205</ele>
        <time>2014-05-06T10:29:29Z</time>
      </trkpt>
      <trkpt lat="44.40693" lon="4.1991">
        <ele>205</ele>
        <time>2014-05-06T10:29:45Z</time>
      </trkpt>
      <trkpt lat="44.40702" lon="4.19914">
        <ele>202</ele>
        <time>2014-05-06T10:29:59Z</time>
      </trkpt>
      <trkpt lat="44.40711" lon="4.19918">
        <ele>204</ele>
        <time>2014-05-06T10:30:15Z</time>
      </trkpt>
      <trkpt lat="44.40716" lon="4.19917">
        <ele>206</ele>
        <time>2014-05-06T10:30:19Z</time>
      </trkpt>
      <trkpt lat="44.40721" lon="4.19915">
        <ele>208</ele>
        <time>2014-05-06T10:30:28Z</time>
      </trkpt>
      <trkpt lat="44.40729" lon="4.1992">
        <ele>209</ele>
        <time>2014-05-06T10:30:40Z</time>
      </trkpt>
      <trkpt lat="44.40734" lon="4.19923">
        <ele>210</ele>
        <time>2014-05-06T10:30:47Z</time>
      </trkpt>
      <trkpt lat="44.4074" lon="4.19925">
        <ele>210</ele>
        <time>2014-05-06T10:31:03Z</time>
      </trkpt>
      <trkpt lat="44.40744" lon="4.19927">
        <ele>209</ele>
        <time>2014-05-06T10:31:29Z</time>
      </trkpt>
      <trkpt lat="44.40748" lon="4.19932">
        <ele>210</ele>
        <time>2014-05-06T10:31:56Z</time>
      </trkpt>
      <trkpt lat="44.40751" lon="4.19939">
        <ele>209</ele>
        <time>2014-05-06T10:32:08Z</time>
      </trkpt>
      <trkpt lat="44.40751" lon="4.19952">
        <ele>207</ele>
        <time>2014-05-06T10:32:28Z</time>
      </trkpt>
      <trkpt lat="44.40752" lon="4.19965">
        <ele>207</ele>
        <time>2014-05-06T10:32:43Z</time>
      </trkpt>
      <trkpt lat="44.40757" lon="4.19966">
        <ele>208</ele>
        <time>2014-05-06T10:32:48Z</time>
      </trkpt>
      <trkpt lat="44.40764" lon="4.19974">
        <ele>209</ele>
        <time>2014-05-06T10:33:07Z</time>
      </trkpt>
      <trkpt lat="44.40766" lon="4.19983">
        <ele>209</ele>
        <time>2014-05-06T10:33:22Z</time>
      </trkpt>
      <trkpt lat="44.40767" lon="4.19989">
        <ele>212</ele>
        <time>2014-05-06T10:33:35Z</time>
      </trkpt>
      <trkpt lat="44.40765" lon="4.19996">
        <ele>212</ele>
        <time>2014-05-06T10:33:49Z</time>
      </trkpt>
      <trkpt lat="44.40769" lon="4.2001">
        <ele>212</ele>
        <time>2014-05-06T10:34:09Z</time>
      </trkpt>
      <trkpt lat="44.40775" lon="4.20019">
        <ele>211</ele>
        <time>2014-05-06T10:34:19Z</time>
      </trkpt>
      <trkpt lat="44.40782" lon="4.20019">
        <ele>210</ele>
        <time>2014-05-06T10:34:32Z</time>
      </trkpt>
      <trkpt lat="44.40785" lon="4.20034">
        <ele>210</ele>
        <time>2014-05-06T10:35:06Z</time>
      </trkpt>
      <trkpt lat="44.40788" lon="4.20046">
        <ele>210</ele>
        <time>2014-05-06T10:35:24Z</time>
      </trkpt>
      <trkpt lat="44.40783" lon="4.20058">
        <ele>207</ele>
        <time>2014-05-06T10:35:39Z</time>
      </trkpt>
      <trkpt lat="44.40781" lon="4.2007">
        <ele>207</ele>
        <time>2014-05-06T10:35:57Z</time>
      </trkpt>
      <trkpt lat="44.40781" lon="4.20078">
        <ele>206</ele>
        <time>2014-05-06T10:36:14Z</time>
      </trkpt>
      <trkpt lat="44.40773" lon="4.20085">
        <ele>204</ele>
        <time>2014-05-06T10:37:02Z</time>
      </trkpt>
      <trkpt lat="44.40768" lon="4.2009">
        <ele>208</ele>
        <time>2014-05-06T10:37:19Z</time>
      </trkpt>
      <trkpt lat="44.40765" lon="4.20098">
        <ele>212</ele>
        <time>2014-05-06T10:37:54Z</time>
      </trkpt>
      <trkpt lat="44.40761" lon="4.20101">
        <ele>215</ele>
        <time>2014-05-06T10:38:28Z</time>
      </trkpt>
      <trkpt lat="44.40757" lon="4.20105">
        <ele>213</ele>
        <time>2014-05-06T10:38:57Z</time>
      </trkpt>
      <trkpt lat="44.40755" lon="4.20104">
        <ele>215</ele>
        <time>2014-05-06T10:40:10Z</time>
      </trkpt>
      <trkpt lat="44.40756" lon="4.20107">
        <ele>214</ele>
        <time>2014-05-06T10:41:45Z</time>
      </trkpt>
      <trkpt lat="44.40755" lon="4.20113">
        <ele>215</ele>
        <time>2014-05-06T10:42:07Z</time>
      </trkpt>
      <trkpt lat="44.40752" lon="4.20114">
        <ele>213</ele>
        <time>2014-05-06T11:18:14Z</time>
      </trkpt>
      <trkpt lat="44.40751" lon="4.20111">
        <ele>214</ele>
        <time>2014-05-06T11:18:45Z</time>
      </trkpt>
      <trkpt lat="44.40752" lon="4.20108">
        <ele>214</ele>
        <time>2014-05-06T11:19:24Z</time>
      </trkpt>
      <trkpt lat="44.40753" lon="4.20104">
        <ele>214</ele>
        <time>2014-05-06T11:21:17Z</time>
      </trkpt>
      <trkpt lat="44.40754" lon="4.20101">
        <ele>213</ele>
        <time>2014-05-06T11:21:28Z</time>
      </trkpt>
      <trkpt lat="44.40756" lon="4.20096">
        <ele>212</ele>
        <time>2014-05-06T11:21:55Z</time>
      </trkpt>
      <trkpt lat="44.40757" lon="4.20093">
        <ele>213</ele>
        <time>2014-05-06T11:22:12Z</time>
      </trkpt>
      <trkpt lat="44.40759" lon="4.20087">
        <ele>216</ele>
        <time>2014-05-06T11:23:02Z</time>
      </trkpt>
      <trkpt lat="44.40762" lon="4.20085">
        <ele>217</ele>
        <time>2014-05-06T11:23:14Z</time>
      </trkpt>
      <trkpt lat="44.40765" lon="4.20086">
        <ele>215</ele>
        <time>2014-05-06T11:24:16Z</time>
      </trkpt>
      <trkpt lat="44.40768" lon="4.20087">
        <ele>216</ele>
        <time>2014-05-06T11:24:40Z</time>
      </trkpt>
      <trkpt lat="44.4077" lon="4.20084">
        <ele>217</ele>
        <time>2014-05-06T11:25:14Z</time>
      </trkpt>
      <trkpt lat="44.40775" lon="4.20084">
        <ele>217</ele>
        <time>2014-05-06T11:25:20Z</time>
      </trkpt>
      <trkpt lat="44.40779" lon="4.20079">
        <ele>212</ele>
        <time>2014-05-06T11:25:38Z</time>
      </trkpt>
      <trkpt lat="44.40787" lon="4.20076">
        <ele>210</ele>
        <time>2014-05-06T11:26:08Z</time>
      </trkpt>
      <trkpt lat="44.40795" lon="4.20072">
        <ele>211</ele>
        <time>2014-05-06T11:26:27Z</time>
      </trkpt>
      <trkpt lat="44.40801" lon="4.20079">
        <ele>208</ele>
        <time>2014-05-06T11:26:56Z</time>
      </trkpt>
      <trkpt lat="44.40808" lon="4.20086">
        <ele>208</ele>
        <time>2014-05-06T11:30:56Z</time>
      </trkpt>
      <trkpt lat="44.40813" lon="4.20092">
        <ele>208</ele>
        <time>2014-05-06T11:31:19Z</time>
      </trkpt>
      <trkpt lat="44.40811" lon="4.20102">
        <ele>205</ele>
        <time>2014-05-06T11:31:47Z</time>
      </trkpt>
      <trkpt lat="44.40811" lon="4.2011">
        <ele>205</ele>
        <time>2014-05-06T11:33:05Z</time>
      </trkpt>
      <trkpt lat="44.40811" lon="4.20117">
        <ele>204</ele>
        <time>2014-05-06T11:33:27Z</time>
      </trkpt>
      <trkpt lat="44.40824" lon="4.20133">
        <ele>193</ele>
        <time>2014-05-06T11:34:07Z</time>
      </trkpt>
      <trkpt lat="44.4084" lon="4.20133">
        <ele>192</ele>
        <time>2014-05-06T11:34:32Z</time>
      </trkpt>
      <trkpt lat="44.40853" lon="4.20137">
        <ele>192</ele>
        <time>2014-05-06T11:35:02Z</time>
      </trkpt>
      <trkpt lat="44.4086" lon="4.20134">
        <ele>195</ele>
        <time>2014-05-06T11:35:18Z</time>
      </trkpt>
      <trkpt lat="44.40865" lon="4.2013">
        <ele>193</ele>
        <time>2014-05-06T11:35:33Z</time>
      </trkpt>
      <trkpt lat="44.40874" lon="4.20126">
        <ele>193</ele>
        <time>2014-05-06T11:35:47Z</time>
      </trkpt>
      <trkpt lat="44.40885" lon="4.20121">
        <ele>194</ele>
        <time>2014-05-06T11:36:04Z</time>
      </trkpt>
      <trkpt lat="44.40896" lon="4.20117">
        <ele>191</ele>
        <time>2014-05-06T11:36:30Z</time>
      </trkpt>
      <trkpt lat="44.40901" lon="4.20108">
        <ele>190</ele>
        <time>2014-05-06T11:36:50Z</time>
      </trkpt>
      <trkpt lat="44.40911" lon="4.20104">
        <ele>189</ele>
        <time>2014-05-06T11:37:14Z</time>
      </trkpt>
      <trkpt lat="44.40916" lon="4.20091">
        <ele>190</ele>
        <time>2014-05-06T11:37:28Z</time>
      </trkpt>
      <trkpt lat="44.40926" lon="4.20079">
        <ele>193</ele>
        <time>2014-05-06T11:37:54Z</time>
      </trkpt>
      <trkpt lat="44.40935" lon="4.20074">
        <ele>194</ele>
        <time>2014-05-06T11:38:06Z</time>
      </trkpt>
      <trkpt lat="44.40938" lon="4.20062">
        <ele>191</ele>
        <time>2014-05-06T11:38:26Z</time>
      </trkpt>
      <trkpt lat="44.40947" lon="4.20062">
        <ele>188</ele>
        <time>2014-05-06T11:38:43Z</time>
      </trkpt>
      <trkpt lat="44.40957" lon="4.20071">
        <ele>188</ele>
        <time>2014-05-06T11:39:12Z</time>
      </trkpt>
      <trkpt lat="44.40962" lon="4.20074">
        <ele>182</ele>
        <time>2014-05-06T11:39:46Z</time>
      </trkpt>
      <trkpt lat="44.40964" lon="4.20081">
        <ele>181</ele>
        <time>2014-05-06T11:40:02Z</time>
      </trkpt>
      <trkpt lat="44.40965" lon="4.20088">
        <ele>181</ele>
        <time>2014-05-06T11:40:14Z</time>
      </trkpt>
      <trkpt lat="44.40966" lon="4.20097">
        <ele>180</ele>
        <time>2014-05-06T11:40:29Z</time>
      </trkpt>
      <trkpt lat="44.40966" lon="4.20107">
        <ele>185</ele>
        <time>2014-05-06T11:40:43Z</time>
      </trkpt>
      <trkpt lat="44.40965" lon="4.20114">
        <ele>185</ele>
        <time>2014-05-06T11:40:47Z</time>
      </trkpt>
      <trkpt lat="44.40961" lon="4.20119">
        <ele>185</ele>
        <time>2014-05-06T11:40:51Z</time>
      </trkpt>
      <trkpt lat="44.40959" lon="4.20125">
        <ele>185</ele>
        <time>2014-05-06T11:40:57Z</time>
      </trkpt>
      <trkpt lat="44.40955" lon="4.20131">
        <ele>186</ele>
        <time>2014-05-06T11:41:03Z</time>
      </trkpt>
      <trkpt lat="44.40948" lon="4.20138">
        <ele>188</ele>
        <time>2014-05-06T11:41:20Z</time>
      </trkpt>
      <trkpt lat="44.40942" lon="4.20143">
        <ele>187</ele>
        <time>2014-05-06T11:41:30Z</time>
      </trkpt>
      <trkpt lat="44.40939" lon="4.20143">
        <ele>187</ele>
        <time>2014-05-06T11:41:37Z</time>
      </trkpt>
      <trkpt lat="44.40934" lon="4.20145">
        <ele>186</ele>
        <time>2014-05-06T11:41:58Z</time>
      </trkpt>
      <trkpt lat="44.40928" lon="4.20149">
        <ele>186</ele>
        <time>2014-05-06T11:42:09Z</time>
      </trkpt>
      <trkpt lat="44.40921" lon="4.20152">
        <ele>185</ele>
        <time>2014-05-06T11:42:19Z</time>
      </trkpt>
      <trkpt lat="44.40916" lon="4.20156">
        <ele>184</ele>
        <time>2014-05-06T11:42:35Z</time>
      </trkpt>
      <trkpt lat="44.40913" lon="4.20161">
        <ele>183</ele>
        <time>2014-05-06T11:42:43Z</time>
      </trkpt>
      <trkpt lat="44.40911" lon="4.20165">
        <ele>184</ele>
        <time>2014-05-06T11:43:02Z</time>
      </trkpt>
      <trkpt lat="44.40912" lon="4.20171">
        <ele>184</ele>
        <time>2014-05-06T11:43:18Z</time>
      </trkpt>
      <trkpt lat="44.40908" lon="4.20174">
        <ele>182</ele>
        <time>2014-05-06T11:43:27Z</time>
      </trkpt>
      <trkpt lat="44.40905" lon="4.20174">
        <ele>181</ele>
        <time>2014-05-06T11:43:36Z</time>
      </trkpt>
      <trkpt lat="44.40903" lon="4.2018">
        <ele>179</ele>
        <time>2014-05-06T11:43:53Z</time>
      </trkpt>
      <trkpt lat="44.40898" lon="4.20186">
        <ele>178</ele>
        <time>2014-05-06T11:44:07Z</time>
      </trkpt>
      <trkpt lat="44.40894" lon="4.2019">
        <ele>180</ele>
        <time>2014-05-06T11:44:26Z</time>
      </trkpt>
      <trkpt lat="44.40893" lon="4.20198">
        <ele>180</ele>
        <time>2014-05-06T11:44:58Z</time>
      </trkpt>
      <trkpt lat="44.40891" lon="4.20208">
        <ele>177</ele>
        <time>2014-05-06T11:45:17Z</time>
      </trkpt>
      <trkpt lat="44.4089" lon="4.2022">
        <ele>175</ele>
        <time>2014-05-06T11:45:28Z</time>
      </trkpt>
      <trkpt lat="44.40888" lon="4.20223">
        <ele>171</ele>
        <time>2014-05-06T11:45:39Z</time>
      </trkpt>
      <trkpt lat="44.40889" lon="4.20227">
        <ele>172</ele>
        <time>2014-05-06T11:45:46Z</time>
      </trkpt>
      <trkpt lat="44.40889" lon="4.20232">
        <ele>172</ele>
        <time>2014-05-06T11:45:57Z</time>
      </trkpt>
      <trkpt lat="44.40885" lon="4.2024">
        <ele>172</ele>
        <time>2014-05-06T11:46:14Z</time>
      </trkpt>
      <trkpt lat="44.40883" lon="4.20242">
        <ele>172</ele>
        <time>2014-05-06T11:46:20Z</time>
      </trkpt>
      <trkpt lat="44.40881" lon="4.20247">
        <ele>171</ele>
        <time>2014-05-06T11:46:47Z</time>
      </trkpt>
      <trkpt lat="44.40878" lon="4.20248">
        <ele>170</ele>
        <time>2014-05-06T11:47:05Z</time>
      </trkpt>
      <trkpt lat="44.40878" lon="4.20257">
        <ele>167</ele>
        <time>2014-05-06T11:47:24Z</time>
      </trkpt>
      <trkpt lat="44.40875" lon="4.20265">
        <ele>166</ele>
        <time>2014-05-06T11:47:40Z</time>
      </trkpt>
      <trkpt lat="44.40874" lon="4.20278">
        <ele>164</ele>
        <time>2014-05-06T11:47:59Z</time>
      </trkpt>
      <trkpt lat="44.40872" lon="4.20285">
        <ele>164</ele>
        <time>2014-05-06T11:48:09Z</time>
      </trkpt>
      <trkpt lat="44.40869" lon="4.2029">
        <ele>163</ele>
        <time>2014-05-06T11:48:25Z</time>
      </trkpt>
      <trkpt lat="44.40868" lon="4.20299">
        <ele>169</ele>
        <time>2014-05-06T11:48:53Z</time>
      </trkpt>
      <trkpt lat="44.40866" lon="4.20308">
        <ele>167</ele>
        <time>2014-05-06T11:49:19Z</time>
      </trkpt>
      <trkpt lat="44.40865" lon="4.20316">
        <ele>167</ele>
        <time>2014-05-06T11:49:42Z</time>
      </trkpt>
      <trkpt lat="44.40867" lon="4.20323">
        <ele>167</ele>
        <time>2014-05-06T11:50:00Z</time>
      </trkpt>
      <trkpt lat="44.40868" lon="4.20332">
        <ele>167</ele>
        <time>2014-05-06T11:50:14Z</time>
      </trkpt>
      <trkpt lat="44.40867" lon="4.20333">
        <ele>161</ele>
        <time>2014-05-06T11:52:01Z</time>
      </trkpt>
      <trkpt lat="44.40871" lon="4.20337">
        <ele>160</ele>
        <time>2014-05-06T11:52:29Z</time>
      </trkpt>
      <trkpt lat="44.40872" lon="4.2034">
        <ele>160</ele>
        <time>2014-05-06T11:52:35Z</time>
      </trkpt>
      <trkpt lat="44.40875" lon="4.20341">
        <ele>162</ele>
        <time>2014-05-06T11:52:52Z</time>
      </trkpt>
      <trkpt lat="44.40877" lon="4.20345">
        <ele>165</ele>
        <time>2014-05-06T11:53:18Z</time>
      </trkpt>
      <trkpt lat="44.40887" lon="4.20348">
        <ele>181</ele>
        <time>2014-05-06T11:54:27Z</time>
      </trkpt>
      <trkpt lat="44.40888" lon="4.2036">
        <ele>186</ele>
        <time>2014-05-06T11:55:16Z</time>
      </trkpt>
      <trkpt lat="44.40889" lon="4.20365">
        <ele>186</ele>
        <time>2014-05-06T11:55:26Z</time>
      </trkpt>
      <trkpt lat="44.40887" lon="4.20377">
        <ele>190</ele>
        <time>2014-05-06T11:56:50Z</time>
      </trkpt>
      <trkpt lat="44.40889" lon="4.20375">
        <ele>191</ele>
        <time>2014-05-06T11:56:56Z</time>
      </trkpt>
      <trkpt lat="44.40892" lon="4.20376">
        <ele>192</ele>
        <time>2014-05-06T11:57:06Z</time>
      </trkpt>
      <trkpt lat="44.40894" lon="4.20385">
        <ele>195</ele>
        <time>2014-05-06T11:57:35Z</time>
      </trkpt>
      <trkpt lat="44.40892" lon="4.20388">
        <ele>193</ele>
        <time>2014-05-06T11:57:48Z</time>
      </trkpt>
      <trkpt lat="44.40897" lon="4.20397">
        <ele>195</ele>
        <time>2014-05-06T11:58:50Z</time>
      </trkpt>
      <trkpt lat="44.40897" lon="4.20405">
        <ele>195</ele>
        <time>2014-05-06T11:59:50Z</time>
      </trkpt>
      <trkpt lat="44.40895" lon="4.20409">
        <ele>196</ele>
        <time>2014-05-06T12:00:10Z</time>
      </trkpt>
      <trkpt lat="44.40897" lon="4.20415">
        <ele>197</ele>
        <time>2014-05-06T12:00:13Z</time>
      </trkpt>
      <trkpt lat="44.40899" lon="4.20428">
        <ele>199</ele>
        <time>2014-05-06T12:00:29Z</time>
      </trkpt>
      <trkpt lat="44.409" lon="4.20437">
        <ele>201</ele>
        <time>2014-05-06T12:00:54Z</time>
      </trkpt>
      <trkpt lat="44.40905" lon="4.20444">
        <ele>201</ele>
        <time>2014-05-06T12:01:14Z</time>
      </trkpt>
      <trkpt lat="44.40907" lon="4.20445">
        <ele>202</ele>
        <time>2014-05-06T12:01:25Z</time>
      </trkpt>
      <trkpt lat="44.40911" lon="4.20451">
        <ele>202</ele>
        <time>2014-05-06T12:01:37Z</time>
      </trkpt>
      <trkpt lat="44.40915" lon="4.20454">
        <ele>202</ele>
        <time>2014-05-06T12:01:42Z</time>
      </trkpt>
      <trkpt lat="44.40916" lon="4.20461">
        <ele>201</ele>
        <time>2014-05-06T12:01:50Z</time>
      </trkpt>
      <trkpt lat="44.40913" lon="4.20475">
        <ele>203</ele>
        <time>2014-05-06T12:02:18Z</time>
      </trkpt>
      <trkpt lat="44.40906" lon="4.20483">
        <ele>207</ele>
        <time>2014-05-06T12:02:35Z</time>
      </trkpt>
      <trkpt lat="44.40896" lon="4.20494">
        <ele>206</ele>
        <time>2014-05-06T12:02:54Z</time>
      </trkpt>
      <trkpt lat="44.4089" lon="4.20503">
        <ele>204</ele>
        <time>2014-05-06T12:03:09Z</time>
      </trkpt>
      <trkpt lat="44.40892" lon="4.20516">
        <ele>205</ele>
        <time>2014-05-06T12:03:25Z</time>
      </trkpt>
      <trkpt lat="44.40891" lon="4.20524">
        <ele>208</ele>
        <time>2014-05-06T12:03:47Z</time>
      </trkpt>
      <trkpt lat="44.40889" lon="4.20531">
        <ele>207</ele>
        <time>2014-05-06T12:04:11Z</time>
      </trkpt>
      <trkpt lat="44.40892" lon="4.20537">
        <ele>204</ele>
        <time>2014-05-06T12:04:22Z</time>
      </trkpt>
      <trkpt lat="44.40889" lon="4.20544">
        <ele>205</ele>
        <time>2014-05-06T12:04:30Z</time>
      </trkpt>
      <trkpt lat="44.4089" lon="4.20554">
        <ele>208</ele>
        <time>2014-05-06T12:04:50Z</time>
      </trkpt>
      <trkpt lat="44.4089" lon="4.20565">
        <ele>208</ele>
        <time>2014-05-06T12:05:00Z</time>
      </trkpt>
      <trkpt lat="44.40886" lon="4.20572">
        <ele>210</ele>
        <time>2014-05-06T12:05:14Z</time>
      </trkpt>
      <trkpt lat="44.40885" lon="4.20575">
        <ele>211</ele>
        <time>2014-05-06T12:05:20Z</time>
      </trkpt>
      <trkpt lat="44.40882" lon="4.20583">
        <ele>211</ele>
        <time>2014-05-06T12:05:29Z</time>
      </trkpt>
      <trkpt lat="44.40881" lon="4.2059">
        <ele>211</ele>
        <time>2014-05-06T12:05:34Z</time>
      </trkpt>
      <trkpt lat="44.4088" lon="4.20596">
        <ele>211</ele>
        <time>2014-05-06T12:05:39Z</time>
      </trkpt>
      <trkpt lat="44.40882" lon="4.20602">
        <ele>210</ele>
        <time>2014-05-06T12:05:45Z</time>
      </trkpt>
      <trkpt lat="44.40883" lon="4.20609">
        <ele>209</ele>
        <time>2014-05-06T12:05:53Z</time>
      </trkpt>
      <trkpt lat="44.40882" lon="4.20615">
        <ele>208</ele>
        <time>2014-05-06T12:05:58Z</time>
      </trkpt>
      <trkpt lat="44.40884" lon="4.20624">
        <ele>207</ele>
        <time>2014-05-06T12:06:06Z</time>
      </trkpt>
      <trkpt lat="44.40881" lon="4.2063">
        <ele>206</ele>
        <time>2014-05-06T12:06:15Z</time>
      </trkpt>
      <trkpt lat="44.4088" lon="4.20637">
        <ele>206</ele>
        <time>2014-05-06T12:06:22Z</time>
      </trkpt>
      <trkpt lat="44.4088" lon="4.20649">
        <ele>205</ele>
        <time>2014-05-06T12:06:35Z</time>
      </trkpt>
      <trkpt lat="44.40879" lon="4.20656">
        <ele>204</ele>
        <time>2014-05-06T12:06:41Z</time>
      </trkpt>
      <trkpt lat="44.4088" lon="4.20662">
        <ele>202</ele>
        <time>2014-05-06T12:06:47Z</time>
      </trkpt>
      <trkpt lat="44.40882" lon="4.20666">
        <ele>202</ele>
        <time>2014-05-06T12:06:57Z</time>
      </trkpt>
      <trkpt lat="44.40883" lon="4.20672">
        <ele>203</ele>
        <time>2014-05-06T12:07:12Z</time>
      </trkpt>
      <trkpt lat="44.40884" lon="4.20679">
        <ele>203</ele>
        <time>2014-05-06T12:07:19Z</time>
      </trkpt>
      <trkpt lat="44.40886" lon="4.20685">
        <ele>202</ele>
        <time>2014-05-06T12:07:28Z</time>
      </trkpt>
      <trkpt lat="44.40886" lon="4.20694">
        <ele>200</ele>
        <time>2014-05-06T12:07:44Z</time>
      </trkpt>
      <trkpt lat="44.40886" lon="4.20701">
        <ele>198</ele>
        <time>2014-05-06T12:07:58Z</time>
      </trkpt>
      <trkpt lat="44.40886" lon="4.20709">
        <ele>198</ele>
        <time>2014-05-06T12:08:03Z</time>
      </trkpt>
      <trkpt lat="44.40882" lon="4.20721">
        <ele>197</ele>
        <time>2014-05-06T12:08:14Z</time>
      </trkpt>
      <trkpt lat="44.40882" lon="4.20729">
        <ele>197</ele>
        <time>2014-05-06T12:08:23Z</time>
      </trkpt>
      <trkpt lat="44.40881" lon="4.20735">
        <ele>198</ele>
        <time>2014-05-06T12:08:29Z</time>
      </trkpt>
      <trkpt lat="44.4088" lon="4.20738">
        <ele>199</ele>
        <time>2014-05-06T12:08:39Z</time>
      </trkpt>
      <trkpt lat="44.40878" lon="4.20743">
        <ele>198</ele>
        <time>2014-05-06T12:09:02Z</time>
      </trkpt>
      <trkpt lat="44.40877" lon="4.20747">
        <ele>198</ele>
        <time>2014-05-06T12:09:09Z</time>
      </trkpt>
      <trkpt lat="44.40878" lon="4.20755">
        <ele>196</ele>
        <time>2014-05-06T12:09:19Z</time>
      </trkpt>
      <trkpt lat="44.4088" lon="4.20762">
        <ele>197</ele>
        <time>2014-05-06T12:09:25Z</time>
      </trkpt>
      <trkpt lat="44.40881" lon="4.20769">
        <ele>196</ele>
        <time>2014-05-06T12:09:32Z</time>
      </trkpt>
      <trkpt lat="44.40879" lon="4.2078">
        <ele>194</ele>
        <time>2014-05-06T12:09:52Z</time>
      </trkpt>
      <trkpt lat="44.40878" lon="4.20787">
        <ele>194</ele>
        <time>2014-05-06T12:09:58Z</time>
      </trkpt>
      <trkpt lat="44.4088" lon="4.20793">
        <ele>192</ele>
        <time>2014-05-06T12:10:03Z</time>
      </trkpt>
      <trkpt lat="44.40879" lon="4.208">
        <ele>193</ele>
        <time>2014-05-06T12:10:12Z</time>
      </trkpt>
      <trkpt lat="44.40879" lon="4.20814">
        <ele>193</ele>
        <time>2014-05-06T12:10:24Z</time>
      </trkpt>
      <trkpt lat="44.4088" lon="4.2082">
        <ele>193</ele>
        <time>2014-05-06T12:10:32Z</time>
      </trkpt>
      <trkpt lat="44.40878" lon="4.20826">
        <ele>192</ele>
        <time>2014-05-06T12:10:37Z</time>
      </trkpt>
      <trkpt lat="44.40876" lon="4.20834">
        <ele>193</ele>
        <time>2014-05-06T12:10:54Z</time>
      </trkpt>
      <trkpt lat="44.40873" lon="4.2084">
        <ele>194</ele>
        <time>2014-05-06T12:11:02Z</time>
      </trkpt>
      <trkpt lat="44.40869" lon="4.20846">
        <ele>193</ele>
        <time>2014-05-06T12:11:08Z</time>
      </trkpt>
      <trkpt lat="44.40867" lon="4.20851">
        <ele>193</ele>
        <time>2014-05-06T12:11:13Z</time>
      </trkpt>
      <trkpt lat="44.40863" lon="4.2086">
        <ele>192</ele>
        <time>2014-05-06T12:11:21Z</time>
      </trkpt>
      <trkpt lat="44.40861" lon="4.20866">
        <ele>190</ele>
        <time>2014-05-06T12:11:29Z</time>
      </trkpt>
      <trkpt lat="44.4086" lon="4.20872">
        <ele>188</ele>
        <time>2014-05-06T12:11:39Z</time>
      </trkpt>
      <trkpt lat="44.40858" lon="4.20878">
        <ele>187</ele>
        <time>2014-05-06T12:11:54Z</time>
      </trkpt>
      <trkpt lat="44.40857" lon="4.20881">
        <ele>188</ele>
        <time>2014-05-06T12:13:29Z</time>
      </trkpt>
      <trkpt lat="44.40856" lon="4.20884">
        <ele>189</ele>
        <time>2014-05-06T12:15:35Z</time>
      </trkpt>
      <trkpt lat="44.40855" lon="4.20887">
        <ele>189</ele>
        <time>2014-05-06T12:16:13Z</time>
      </trkpt>
      <trkpt lat="44.40853" lon="4.20893">
        <ele>189</ele>
        <time>2014-05-06T12:16:20Z</time>
      </trkpt>
      <trkpt lat="44.40851" lon="4.209">
        <ele>189</ele>
        <time>2014-05-06T12:16:27Z</time>
      </trkpt>
      <trkpt lat="44.4085" lon="4.20907">
        <ele>186</ele>
        <time>2014-05-06T12:16:34Z</time>
      </trkpt>
      <trkpt lat="44.40851" lon="4.20913">
        <ele>187</ele>
        <time>2014-05-06T12:16:50Z</time>
      </trkpt>
      <trkpt lat="44.40854" lon="4.20919">
        <ele>186</ele>
        <time>2014-05-06T12:16:57Z</time>
      </trkpt>
      <trkpt lat="44.40854" lon="4.20926">
        <ele>187</ele>
        <time>2014-05-06T12:17:05Z</time>
      </trkpt>
      <trkpt lat="44.40854" lon="4.20933">
        <ele>184</ele>
        <time>2014-05-06T12:17:14Z</time>
      </trkpt>
      <trkpt lat="44.40855" lon="4.20946">
        <ele>182</ele>
        <time>2014-05-06T12:17:29Z</time>
      </trkpt>
      <trkpt lat="44.40857" lon="4.20958">
        <ele>180</ele>
        <time>2014-05-06T12:17:43Z</time>
      </trkpt>
      <trkpt lat="44.40859" lon="4.20963">
        <ele>182</ele>
        <time>2014-05-06T12:18:01Z</time>
      </trkpt>
      <trkpt lat="44.40858" lon="4.20973">
        <ele>181</ele>
        <time>2014-05-06T12:18:18Z</time>
      </trkpt>
      <trkpt lat="44.40854" lon="4.20978">
        <ele>181</ele>
        <time>2014-05-06T12:18:37Z</time>
      </trkpt>
      <trkpt lat="44.40852" lon="4.20984">
        <ele>182</ele>
        <time>2014-05-06T12:18:42Z</time>
      </trkpt>
      <trkpt lat="44.4085" lon="4.20991">
        <ele>181</ele>
        <time>2014-05-06T12:18:52Z</time>
      </trkpt>
      <trkpt lat="44.40848" lon="4.20997">
        <ele>181</ele>
        <time>2014-05-06T12:18:59Z</time>
      </trkpt>
      <trkpt lat="44.40846" lon="4.21004">
        <ele>181</ele>
        <time>2014-05-06T12:19:06Z</time>
      </trkpt>
      <trkpt lat="44.40843" lon="4.21011">
        <ele>180</ele>
        <time>2014-05-06T12:19:15Z</time>
      </trkpt>
      <trkpt lat="44.4084" lon="4.2102">
        <ele>180</ele>
        <time>2014-05-06T12:19:23Z</time>
      </trkpt>
      <trkpt lat="44.40838" lon="4.21029">
        <ele>179</ele>
        <time>2014-05-06T12:19:29Z</time>
      </trkpt>
      <trkpt lat="44.40838" lon="4.21037">
        <ele>176</ele>
        <time>2014-05-06T12:19:38Z</time>
      </trkpt>
      <trkpt lat="44.40834" lon="4.21047">
        <ele>175</ele>
        <time>2014-05-06T12:19:49Z</time>
      </trkpt>
      <trkpt lat="44.40831" lon="4.21052">
        <ele>174</ele>
        <time>2014-05-06T12:19:58Z</time>
      </trkpt>
      <trkpt lat="44.40827" lon="4.21061">
        <ele>175</ele>
        <time>2014-05-06T12:20:08Z</time>
      </trkpt>
      <trkpt lat="44.40826" lon="4.21069">
        <ele>175</ele>
        <time>2014-05-06T12:20:14Z</time>
      </trkpt>
      <trkpt lat="44.40825" lon="4.21079">
        <ele>174</ele>
        <time>2014-05-06T12:20:24Z</time>
      </trkpt>
      <trkpt lat="44.40825" lon="4.21083">
        <ele>175</ele>
        <time>2014-05-06T12:20:35Z</time>
      </trkpt>
      <trkpt lat="44.40822" lon="4.21088">
        <ele>175</ele>
        <time>2014-05-06T12:20:42Z</time>
      </trkpt>
      <trkpt lat="44.4082" lon="4.21095">
        <ele>173</ele>
        <time>2014-05-06T12:20:48Z</time>
      </trkpt>
      <trkpt lat="44.4082" lon="4.21103">
        <ele>171</ele>
        <time>2014-05-06T12:20:56Z</time>
      </trkpt>
      <trkpt lat="44.40819" lon="4.21116">
        <ele>168</ele>
        <time>2014-05-06T12:21:12Z</time>
      </trkpt>
      <trkpt lat="44.40815" lon="4.21123">
        <ele>167</ele>
        <time>2014-05-06T12:21:20Z</time>
      </trkpt>
      <trkpt lat="44.40812" lon="4.21128">
        <ele>165</ele>
        <time>2014-05-06T12:21:24Z</time>
      </trkpt>
      <trkpt lat="44.40809" lon="4.21135">
        <ele>165</ele>
        <time>2014-05-06T12:21:31Z</time>
      </trkpt>
      <trkpt lat="44.40804" lon="4.21141">
        <ele>165</ele>
        <time>2014-05-06T12:21:39Z</time>
      </trkpt>
      <trkpt lat="44.40801" lon="4.21146">
        <ele>164</ele>
        <time>2014-05-06T12:21:51Z</time>
      </trkpt>
      <trkpt lat="44.40795" lon="4.21143">
        <ele>163</ele>
        <time>2014-05-06T12:22:06Z</time>
      </trkpt>
      <trkpt lat="44.40792" lon="4.21146">
        <ele>160</ele>
        <time>2014-05-06T12:22:48Z</time>
      </trkpt>
      <trkpt lat="44.40796" lon="4.21143">
        <ele>165</ele>
        <time>2014-05-06T12:24:58Z</time>
      </trkpt>
      <trkpt lat="44.40798" lon="4.21145">
        <ele>165</ele>
        <time>2014-05-06T12:25:08Z</time>
      </trkpt>
      <trkpt lat="44.408" lon="4.2115">
        <ele>165</ele>
        <time>2014-05-06T12:25:17Z</time>
      </trkpt>
      <trkpt lat="44.40802" lon="4.21152">
        <ele>164</ele>
        <time>2014-05-06T12:25:33Z</time>
      </trkpt>
      <trkpt lat="44.40801" lon="4.21161">
        <ele>163</ele>
        <time>2014-05-06T12:25:56Z</time>
      </trkpt>
      <trkpt lat="44.40801" lon="4.21173">
        <ele>162</ele>
        <time>2014-05-06T12:26:05Z</time>
      </trkpt>
      <trkpt lat="44.408" lon="4.21177">
        <ele>161</ele>
        <time>2014-05-06T12:26:13Z</time>
      </trkpt>
      <trkpt lat="44.40799" lon="4.21183">
        <ele>161</ele>
        <time>2014-05-06T12:26:16Z</time>
      </trkpt>
      <trkpt lat="44.40797" lon="4.2119">
        <ele>160</ele>
        <time>2014-05-06T12:26:25Z</time>
      </trkpt>
      <trkpt lat="44.40792" lon="4.21199">
        <ele>162</ele>
        <time>2014-05-06T12:26:32Z</time>
      </trkpt>
      <trkpt lat="44.40785" lon="4.21203">
        <ele>160</ele>
        <time>2014-05-06T12:26:42Z</time>
      </trkpt>
      <trkpt lat="44.40782" lon="4.21204">
        <ele>160</ele>
        <time>2014-05-06T12:27:03Z</time>
      </trkpt>
      <trkpt lat="44.40779" lon="4.21204">
        <ele>162</ele>
        <time>2014-05-06T12:28:05Z</time>
      </trkpt>
      <trkpt lat="44.40777" lon="4.21207">
        <ele>162</ele>
        <time>2014-05-06T12:28:35Z</time>
      </trkpt>
      <trkpt lat="44.40773" lon="4.21209">
        <ele>163</ele>
        <time>2014-05-06T12:30:16Z</time>
      </trkpt>
      <trkpt lat="44.40773" lon="4.21216">
        <ele>162</ele>
        <time>2014-05-06T12:30:24Z</time>
      </trkpt>
      <trkpt lat="44.40772" lon="4.21219">
        <ele>163</ele>
        <time>2014-05-06T12:30:30Z</time>
      </trkpt>
      <trkpt lat="44.40771" lon="4.21226">
        <ele>163</ele>
        <time>2014-05-06T12:30:36Z</time>
      </trkpt>
      <trkpt lat="44.40769" lon="4.21233">
        <ele>164</ele>
        <time>2014-05-06T12:30:43Z</time>
      </trkpt>
      <trkpt lat="44.40768" lon="4.21239">
        <ele>163</ele>
        <time>2014-05-06T12:30:50Z</time>
      </trkpt>
      <trkpt lat="44.40768" lon="4.21246">
        <ele>163</ele>
        <time>2014-05-06T12:30:56Z</time>
      </trkpt>
      <trkpt lat="44.40769" lon="4.21253">
        <ele>162</ele>
        <time>2014-05-06T12:31:03Z</time>
      </trkpt>
      <trkpt lat="44.40771" lon="4.21259">
        <ele>160</ele>
        <time>2014-05-06T12:31:19Z</time>
      </trkpt>
      <trkpt lat="44.40771" lon="4.21262">
        <ele>162</ele>
        <time>2014-05-06T12:32:09Z</time>
      </trkpt>
      <trkpt lat="44.40774" lon="4.21271">
        <ele>161</ele>
        <time>2014-05-06T12:32:18Z</time>
      </trkpt>
      <trkpt lat="44.40776" lon="4.21276">
        <ele>159</ele>
        <time>2014-05-06T12:32:26Z</time>
      </trkpt>
      <trkpt lat="44.4078" lon="4.21283">
        <ele>158</ele>
        <time>2014-05-06T12:32:36Z</time>
      </trkpt>
      <trkpt lat="44.40784" lon="4.2129">
        <ele>158</ele>
        <time>2014-05-06T12:32:46Z</time>
      </trkpt>
      <trkpt lat="44.40788" lon="4.21293">
        <ele>158</ele>
        <time>2014-05-06T12:32:52Z</time>
      </trkpt>
      <trkpt lat="44.40789" lon="4.21298">
        <ele>159</ele>
        <time>2014-05-06T12:33:08Z</time>
      </trkpt>
      <trkpt lat="44.40788" lon="4.21308">
        <ele>160</ele>
        <time>2014-05-06T12:33:22Z</time>
      </trkpt>
      <trkpt lat="44.40788" lon="4.21318">
        <ele>159</ele>
        <time>2014-05-06T12:33:33Z</time>
      </trkpt>
      <trkpt lat="44.40791" lon="4.21327">
        <ele>158</ele>
        <time>2014-05-06T12:33:41Z</time>
      </trkpt>
      <trkpt lat="44.4079" lon="4.21335">
        <ele>158</ele>
        <time>2014-05-06T12:33:56Z</time>
      </trkpt>
      <trkpt lat="44.40789" lon="4.21344">
        <ele>157</ele>
        <time>2014-05-06T12:34:49Z</time>
      </trkpt>
      <trkpt lat="44.40784" lon="4.21349">
        <ele>155</ele>
        <time>2014-05-06T12:34:54Z</time>
      </trkpt>
      <trkpt lat="44.4078" lon="4.2135">
        <ele>156</ele>
        <time>2014-05-06T12:35:00Z</time>
      </trkpt>
      <trkpt lat="44.40774" lon="4.21354">
        <ele>158</ele>
        <time>2014-05-06T12:35:08Z</time>
      </trkpt>
      <trkpt lat="44.40766" lon="4.21355">
        <ele>158</ele>
        <time>2014-05-06T12:35:16Z</time>
      </trkpt>
      <trkpt lat="44.4076" lon="4.21357">
        <ele>156</ele>
        <time>2014-05-06T12:35:22Z</time>
      </trkpt>
      <trkpt lat="44.40755" lon="4.21358">
        <ele>156</ele>
        <time>2014-05-06T12:35:28Z</time>
      </trkpt>
      <trkpt lat="44.40752" lon="4.21362">
        <ele>157</ele>
        <time>2014-05-06T12:35:32Z</time>
      </trkpt>
      <trkpt lat="44.40748" lon="4.21367">
        <ele>159</ele>
        <time>2014-05-06T12:35:37Z</time>
      </trkpt>
      <trkpt lat="44.40744" lon="4.21371">
        <ele>160</ele>
        <time>2014-05-06T12:35:42Z</time>
      </trkpt>
      <trkpt lat="44.4074" lon="4.21375">
        <ele>159</ele>
        <time>2014-05-06T12:35:46Z</time>
      </trkpt>
      <trkpt lat="44.40737" lon="4.2138">
        <ele>157</ele>
        <time>2014-05-06T12:35:54Z</time>
      </trkpt>
      <trkpt lat="44.40733" lon="4.2139">
        <ele>158</ele>
        <time>2014-05-06T12:36:13Z</time>
      </trkpt>
      <trkpt lat="44.40734" lon="4.21396">
        <ele>161</ele>
        <time>2014-05-06T12:36:20Z</time>
      </trkpt>
      <trkpt lat="44.40735" lon="4.21403">
        <ele>160</ele>
        <time>2014-05-06T12:36:27Z</time>
      </trkpt>
      <trkpt lat="44.40737" lon="4.2141">
        <ele>158</ele>
        <time>2014-05-06T12:36:33Z</time>
      </trkpt>
      <trkpt lat="44.40736" lon="4.21417">
        <ele>158</ele>
        <time>2014-05-06T12:36:51Z</time>
      </trkpt>
      <trkpt lat="44.40735" lon="4.21428">
        <ele>157</ele>
        <time>2014-05-06T12:37:10Z</time>
      </trkpt>
      <trkpt lat="44.40734" lon="4.21436">
        <ele>157</ele>
        <time>2014-05-06T12:37:16Z</time>
      </trkpt>
      <trkpt lat="44.40733" lon="4.21443">
        <ele>156</ele>
        <time>2014-05-06T12:37:22Z</time>
      </trkpt>
      <trkpt lat="44.40726" lon="4.21449">
        <ele>155</ele>
        <time>2014-05-06T12:37:32Z</time>
      </trkpt>
      <trkpt lat="44.4072" lon="4.21449">
        <ele>152</ele>
        <time>2014-05-06T12:37:47Z</time>
      </trkpt>
      <trkpt lat="44.40714" lon="4.21452">
        <ele>151</ele>
        <time>2014-05-06T12:37:59Z</time>
      </trkpt>
      <trkpt lat="44.4071" lon="4.21456">
        <ele>151</ele>
        <time>2014-05-06T12:38:04Z</time>
      </trkpt>
      <trkpt lat="44.40705" lon="4.21467">
        <ele>151</ele>
        <time>2014-05-06T12:38:13Z</time>
      </trkpt>
      <trkpt lat="44.40703" lon="4.21473">
        <ele>152</ele>
        <time>2014-05-06T12:38:16Z</time>
      </trkpt>
      <trkpt lat="44.40703" lon="4.21478">
        <ele>151</ele>
        <time>2014-05-06T12:38:34Z</time>
      </trkpt>
      <trkpt lat="44.40704" lon="4.21484">
        <ele>149</ele>
        <time>2014-05-06T12:38:40Z</time>
      </trkpt>
      <trkpt lat="44.40706" lon="4.2149">
        <ele>149</ele>
        <time>2014-05-06T12:38:47Z</time>
      </trkpt>
      <trkpt lat="44.40706" lon="4.21497">
        <ele>149</ele>
        <time>2014-05-06T12:38:53Z</time>
      </trkpt>
      <trkpt lat="44.40703" lon="4.2151">
        <ele>151</ele>
        <time>2014-05-06T12:39:02Z</time>
      </trkpt>
      <trkpt lat="44.40703" lon="4.21517">
        <ele>153</ele>
        <time>2014-05-06T12:39:09Z</time>
      </trkpt>
      <trkpt lat="44.40703" lon="4.21524">
        <ele>152</ele>
        <time>2014-05-06T12:39:15Z</time>
      </trkpt>
      <trkpt lat="44.40704" lon="4.21532">
        <ele>152</ele>
        <time>2014-05-06T12:39:22Z</time>
      </trkpt>
      <trkpt lat="44.40705" lon="4.21538">
        <ele>150</ele>
        <time>2014-05-06T12:39:29Z</time>
      </trkpt>
      <trkpt lat="44.40707" lon="4.21549">
        <ele>150</ele>
        <time>2014-05-06T12:39:38Z</time>
      </trkpt>
      <trkpt lat="44.40705" lon="4.21554">
        <ele>146</ele>
        <time>2014-05-06T12:39:48Z</time>
      </trkpt>
      <trkpt lat="44.40709" lon="4.21559">
        <ele>148</ele>
        <time>2014-05-06T12:40:02Z</time>
      </trkpt>
      <trkpt lat="44.40712" lon="4.21565">
        <ele>149</ele>
        <time>2014-05-06T12:40:07Z</time>
      </trkpt>
      <trkpt lat="44.40714" lon="4.21573">
        <ele>151</ele>
        <time>2014-05-06T12:40:17Z</time>
      </trkpt>
      <trkpt lat="44.40717" lon="4.21582">
        <ele>147</ele>
        <time>2014-05-06T12:40:32Z</time>
      </trkpt>
      <trkpt lat="44.40722" lon="4.21585">
        <ele>147</ele>
        <time>2014-05-06T12:40:38Z</time>
      </trkpt>
      <trkpt lat="44.40725" lon="4.2159">
        <ele>146</ele>
        <time>2014-05-06T12:40:46Z</time>
      </trkpt>
      <trkpt lat="44.40729" lon="4.21592">
        <ele>144</ele>
        <time>2014-05-06T12:40:53Z</time>
      </trkpt>
      <trkpt lat="44.40733" lon="4.21602">
        <ele>141</ele>
        <time>2014-05-06T12:41:13Z</time>
      </trkpt>
      <trkpt lat="44.40728" lon="4.21605">
        <ele>139</ele>
        <time>2014-05-06T12:41:31Z</time>
      </trkpt>
      <trkpt lat="44.40724" lon="4.21606">
        <ele>138</ele>
        <time>2014-05-06T12:41:39Z</time>
      </trkpt>
      <trkpt lat="44.40714" lon="4.21609">
        <ele>139</ele>
        <time>2014-05-06T12:41:59Z</time>
      </trkpt>
      <trkpt lat="44.40708" lon="4.21611">
        <ele>138</ele>
        <time>2014-05-06T12:42:11Z</time>
      </trkpt>
      <trkpt lat="44.40703" lon="4.21613">
        <ele>139</ele>
        <time>2014-05-06T12:42:17Z</time>
      </trkpt>
      <trkpt lat="44.407" lon="4.21614">
        <ele>140</ele>
        <time>2014-05-06T12:42:23Z</time>
      </trkpt>
      <trkpt lat="44.40694" lon="4.21615">
        <ele>142</ele>
        <time>2014-05-06T12:42:29Z</time>
      </trkpt>
      <trkpt lat="44.40687" lon="4.21615">
        <ele>142</ele>
        <time>2014-05-06T12:42:39Z</time>
      </trkpt>
      <trkpt lat="44.40682" lon="4.21613">
        <ele>140</ele>
        <time>2014-05-06T12:42:44Z</time>
      </trkpt>
      <trkpt lat="44.40678" lon="4.21611">
        <ele>140</ele>
        <time>2014-05-06T12:42:47Z</time>
      </trkpt>
      <trkpt lat="44.40674" lon="4.21606">
        <ele>140</ele>
        <time>2014-05-06T12:42:54Z</time>
      </trkpt>
      <trkpt lat="44.40671" lon="4.21606">
        <ele>140</ele>
        <time>2014-05-06T12:43:11Z</time>
      </trkpt>
      <trkpt lat="44.40674" lon="4.21608">
        <ele>145</ele>
        <time>2014-05-06T12:46:55Z</time>
      </trkpt>
      <trkpt lat="44.40673" lon="4.21607">
        <ele>146</ele>
        <time>2014-05-06T12:48:12Z</time>
      </trkpt>
      <trkpt lat="44.40673" lon="4.21609">
        <ele>146</ele>
        <time>2014-05-06T12:49:41Z</time>
      </trkpt>
      <trkpt lat="44.40677" lon="4.21613">
        <ele>146</ele>
        <time>2014-05-06T12:49:46Z</time>
      </trkpt>
      <trkpt lat="44.40682" lon="4.21615">
        <ele>146</ele>
        <time>2014-05-06T12:49:50Z</time>
      </trkpt>
      <trkpt lat="44.40687" lon="4.21616">
        <ele>146</ele>
        <time>2014-05-06T12:49:54Z</time>
      </trkpt>
      <trkpt lat="44.40692" lon="4.21618">
        <ele>146</ele>
        <time>2014-05-06T12:49:57Z</time>
      </trkpt>
      <trkpt lat="44.40697" lon="4.21619">
        <ele>147</ele>
        <time>2014-05-06T12:50:01Z</time>
      </trkpt>
      <trkpt lat="44.40702" lon="4.21619">
        <ele>148</ele>
        <time>2014-05-06T12:50:05Z</time>
      </trkpt>
      <trkpt lat="44.40707" lon="4.21619">
        <ele>149</ele>
        <time>2014-05-06T12:50:11Z</time>
      </trkpt>
      <trkpt lat="44.40713" lon="4.21622">
        <ele>149</ele>
        <time>2014-05-06T12:50:19Z</time>
      </trkpt>
      <trkpt lat="44.40719" lon="4.21623">
        <ele>151</ele>
        <time>2014-05-06T12:50:24Z</time>
      </trkpt>
      <trkpt lat="44.40724" lon="4.21623">
        <ele>153</ele>
        <time>2014-05-06T12:50:29Z</time>
      </trkpt>
      <trkpt lat="44.40729" lon="4.21622">
        <ele>154</ele>
        <time>2014-05-06T12:50:33Z</time>
      </trkpt>
      <trkpt lat="44.40734" lon="4.21621">
        <ele>154</ele>
        <time>2014-05-06T12:50:37Z</time>
      </trkpt>
      <trkpt lat="44.40739" lon="4.2162">
        <ele>152</ele>
        <time>2014-05-06T12:50:44Z</time>
      </trkpt>
      <trkpt lat="44.40743" lon="4.2162">
        <ele>151</ele>
        <time>2014-05-06T12:50:50Z</time>
      </trkpt>
      <trkpt lat="44.40749" lon="4.21622">
        <ele>151</ele>
        <time>2014-05-06T12:50:57Z</time>
      </trkpt>
      <trkpt lat="44.40754" lon="4.21623">
        <ele>151</ele>
        <time>2014-05-06T12:51:02Z</time>
      </trkpt>
      <trkpt lat="44.40761" lon="4.21626">
        <ele>152</ele>
        <time>2014-05-06T12:51:10Z</time>
      </trkpt>
      <trkpt lat="44.40766" lon="4.21627">
        <ele>154</ele>
        <time>2014-05-06T12:51:16Z</time>
      </trkpt>
      <trkpt lat="44.40771" lon="4.21629">
        <ele>153</ele>
        <time>2014-05-06T12:51:20Z</time>
      </trkpt>
      <trkpt lat="44.40776" lon="4.21632">
        <ele>152</ele>
        <time>2014-05-06T12:51:25Z</time>
      </trkpt>
      <trkpt lat="44.40781" lon="4.21634">
        <ele>152</ele>
        <time>2014-05-06T12:51:31Z</time>
      </trkpt>
      <trkpt lat="44.40786" lon="4.21637">
        <ele>153</ele>
        <time>2014-05-06T12:51:36Z</time>
      </trkpt>
      <trkpt lat="44.4079" lon="4.21639">
        <ele>153</ele>
        <time>2014-05-06T12:51:39Z</time>
      </trkpt>
      <trkpt lat="44.40796" lon="4.21641">
        <ele>154</ele>
        <time>2014-05-06T12:51:45Z</time>
      </trkpt>
      <trkpt lat="44.408" lon="4.21643">
        <ele>154</ele>
        <time>2014-05-06T12:51:49Z</time>
      </trkpt>
      <trkpt lat="44.40806" lon="4.21645">
        <ele>155</ele>
        <time>2014-05-06T12:51:56Z</time>
      </trkpt>
      <trkpt lat="44.40811" lon="4.21646">
        <ele>154</ele>
        <time>2014-05-06T12:52:02Z</time>
      </trkpt>
      <trkpt lat="44.40816" lon="4.21648">
        <ele>155</ele>
        <time>2014-05-06T12:52:07Z</time>
      </trkpt>
      <trkpt lat="44.40823" lon="4.21647">
        <ele>155</ele>
        <time>2014-05-06T12:52:13Z</time>
      </trkpt>
      <trkpt lat="44.40827" lon="4.2165">
        <ele>156</ele>
        <time>2014-05-06T12:52:16Z</time>
      </trkpt>
      <trkpt lat="44.40832" lon="4.21652">
        <ele>155</ele>
        <time>2014-05-06T12:52:20Z</time>
      </trkpt>
      <trkpt lat="44.40837" lon="4.21653">
        <ele>156</ele>
        <time>2014-05-06T12:52:25Z</time>
      </trkpt>
      <trkpt lat="44.40841" lon="4.21652">
        <ele>157</ele>
        <time>2014-05-06T12:52:29Z</time>
      </trkpt>
      <trkpt lat="44.40846" lon="4.2165">
        <ele>158</ele>
        <time>2014-05-06T12:52:34Z</time>
      </trkpt>
      <trkpt lat="44.40855" lon="4.21648">
        <ele>157</ele>
        <time>2014-05-06T12:52:42Z</time>
      </trkpt>
      <trkpt lat="44.4086" lon="4.21648">
        <ele>157</ele>
        <time>2014-05-06T12:52:46Z</time>
      </trkpt>
      <trkpt lat="44.40865" lon="4.21647">
        <ele>157</ele>
        <time>2014-05-06T12:52:52Z</time>
      </trkpt>
      <trkpt lat="44.40871" lon="4.21643">
        <ele>157</ele>
        <time>2014-05-06T12:53:02Z</time>
      </trkpt>
      <trkpt lat="44.40875" lon="4.21641">
        <ele>157</ele>
        <time>2014-05-06T12:53:06Z</time>
      </trkpt>
      <trkpt lat="44.4088" lon="4.21637">
        <ele>156</ele>
        <time>2014-05-06T12:53:13Z</time>
      </trkpt>
      <trkpt lat="44.40882" lon="4.2163">
        <ele>155</ele>
        <time>2014-05-06T12:53:18Z</time>
      </trkpt>
      <trkpt lat="44.40883" lon="4.21623">
        <ele>155</ele>
        <time>2014-05-06T12:53:25Z</time>
      </trkpt>
      <trkpt lat="44.40884" lon="4.21617">
        <ele>156</ele>
        <time>2014-05-06T12:53:32Z</time>
      </trkpt>
      <trkpt lat="44.40888" lon="4.21613">
        <ele>159</ele>
        <time>2014-05-06T12:53:42Z</time>
      </trkpt>
      <trkpt lat="44.40896" lon="4.2161">
        <ele>158</ele>
        <time>2014-05-06T12:53:55Z</time>
      </trkpt>
      <trkpt lat="44.40899" lon="4.21608">
        <ele>158</ele>
        <time>2014-05-06T12:54:07Z</time>
      </trkpt>
      <trkpt lat="44.40903" lon="4.21604">
        <ele>160</ele>
        <time>2014-05-06T12:54:15Z</time>
      </trkpt>
      <trkpt lat="44.40906" lon="4.216">
        <ele>161</ele>
        <time>2014-05-06T12:54:21Z</time>
      </trkpt>
      <trkpt lat="44.40911" lon="4.21598">
        <ele>163</ele>
        <time>2014-05-06T12:54:31Z</time>
      </trkpt>
      <trkpt lat="44.40914" lon="4.21596">
        <ele>164</ele>
        <time>2014-05-06T12:54:38Z</time>
      </trkpt>
      <trkpt lat="44.40916" lon="4.21587">
        <ele>164</ele>
        <time>2014-05-06T12:54:50Z</time>
      </trkpt>
      <trkpt lat="44.40916" lon="4.21578">
        <ele>165</ele>
        <time>2014-05-06T12:55:05Z</time>
      </trkpt>
      <trkpt lat="44.40919" lon="4.21572">
        <ele>164</ele>
        <time>2014-05-06T12:55:12Z</time>
      </trkpt>
      <trkpt lat="44.40919" lon="4.21568">
        <ele>165</ele>
        <time>2014-05-06T12:55:22Z</time>
      </trkpt>
      <trkpt lat="44.40925" lon="4.21558">
        <ele>169</ele>
        <time>2014-05-06T12:55:40Z</time>
      </trkpt>
      <trkpt lat="44.40926" lon="4.21551">
        <ele>170</ele>
        <time>2014-05-06T12:55:47Z</time>
      </trkpt>
      <trkpt lat="44.4093" lon="4.21548">
        <ele>169</ele>
        <time>2014-05-06T12:55:55Z</time>
      </trkpt>
      <trkpt lat="44.40936" lon="4.21542">
        <ele>169</ele>
        <time>2014-05-06T12:56:07Z</time>
      </trkpt>
      <trkpt lat="44.4094" lon="4.21538">
        <ele>170</ele>
        <time>2014-05-06T12:56:13Z</time>
      </trkpt>
      <trkpt lat="44.40944" lon="4.21534">
        <ele>170</ele>
        <time>2014-05-06T12:56:20Z</time>
      </trkpt>
      <trkpt lat="44.4095" lon="4.21531">
        <ele>170</ele>
        <time>2014-05-06T12:56:29Z</time>
      </trkpt>
      <trkpt lat="44.40954" lon="4.21528">
        <ele>170</ele>
        <time>2014-05-06T12:56:38Z</time>
      </trkpt>
      <trkpt lat="44.40959" lon="4.21525">
        <ele>171</ele>
        <time>2014-05-06T12:56:45Z</time>
      </trkpt>
      <trkpt lat="44.40963" lon="4.21524">
        <ele>172</ele>
        <time>2014-05-06T12:56:54Z</time>
      </trkpt>
      <trkpt lat="44.40968" lon="4.2152">
        <ele>174</ele>
        <time>2014-05-06T12:57:02Z</time>
      </trkpt>
      <trkpt lat="44.40973" lon="4.21515">
        <ele>176</ele>
        <time>2014-05-06T12:57:11Z</time>
      </trkpt>
      <trkpt lat="44.40978" lon="4.21514">
        <ele>178</ele>
        <time>2014-05-06T12:57:19Z</time>
      </trkpt>
      <trkpt lat="44.4098" lon="4.21514">
        <ele>178</ele>
        <time>2014-05-06T12:57:25Z</time>
      </trkpt>
      <trkpt lat="44.40985" lon="4.21512">
        <ele>179</ele>
        <time>2014-05-06T12:57:35Z</time>
      </trkpt>
      <trkpt lat="44.4099" lon="4.21511">
        <ele>180</ele>
        <time>2014-05-06T12:57:43Z</time>
      </trkpt>
      <trkpt lat="44.40993" lon="4.21507">
        <ele>180</ele>
        <time>2014-05-06T12:57:50Z</time>
      </trkpt>
      <trkpt lat="44.40996" lon="4.21502">
        <ele>180</ele>
        <time>2014-05-06T12:57:57Z</time>
      </trkpt>
      <trkpt lat="44.41" lon="4.21493">
        <ele>180</ele>
        <time>2014-05-06T12:58:13Z</time>
      </trkpt>
      <trkpt lat="44.41007" lon="4.21484">
        <ele>185</ele>
        <time>2014-05-06T12:58:30Z</time>
      </trkpt>
      <trkpt lat="44.4101" lon="4.21478">
        <ele>186</ele>
        <time>2014-05-06T12:58:36Z</time>
      </trkpt>
      <trkpt lat="44.41015" lon="4.21475">
        <ele>187</ele>
        <time>2014-05-06T12:58:42Z</time>
      </trkpt>
      <trkpt lat="44.41022" lon="4.21468">
        <ele>186</ele>
        <time>2014-05-06T12:58:55Z</time>
      </trkpt>
      <trkpt lat="44.4103" lon="4.21465">
        <ele>189</ele>
        <time>2014-05-06T12:59:05Z</time>
      </trkpt>
      <trkpt lat="44.41035" lon="4.21464">
        <ele>191</ele>
        <time>2014-05-06T12:59:13Z</time>
      </trkpt>
      <trkpt lat="44.41039" lon="4.21459">
        <ele>192</ele>
        <time>2014-05-06T12:59:20Z</time>
      </trkpt>
      <trkpt lat="44.41043" lon="4.21455">
        <ele>193</ele>
        <time>2014-05-06T12:59:26Z</time>
      </trkpt>
      <trkpt lat="44.41049" lon="4.21454">
        <ele>193</ele>
        <time>2014-05-06T12:59:37Z</time>
      </trkpt>
      <trkpt lat="44.41054" lon="4.21456">
        <ele>193</ele>
        <time>2014-05-06T12:59:44Z</time>
      </trkpt>
      <trkpt lat="44.41058" lon="4.21457">
        <ele>193</ele>
        <time>2014-05-06T12:59:51Z</time>
      </trkpt>
      <trkpt lat="44.41064" lon="4.21453">
        <ele>194</ele>
        <time>2014-05-06T13:00:20Z</time>
      </trkpt>
      <trkpt lat="44.41068" lon="4.2145">
        <ele>193</ele>
        <time>2014-05-06T13:00:26Z</time>
      </trkpt>
      <trkpt lat="44.41075" lon="4.21447">
        <ele>194</ele>
        <time>2014-05-06T13:00:43Z</time>
      </trkpt>
      <trkpt lat="44.41082" lon="4.21444">
        <ele>197</ele>
        <time>2014-05-06T13:00:59Z</time>
      </trkpt>
      <trkpt lat="44.41087" lon="4.21441">
        <ele>197</ele>
        <time>2014-05-06T13:01:05Z</time>
      </trkpt>
      <trkpt lat="44.41091" lon="4.21439">
        <ele>198</ele>
        <time>2014-05-06T13:01:12Z</time>
      </trkpt>
      <trkpt lat="44.41096" lon="4.21436">
        <ele>198</ele>
        <time>2014-05-06T13:01:19Z</time>
      </trkpt>
      <trkpt lat="44.41101" lon="4.21433">
        <ele>198</ele>
        <time>2014-05-06T13:01:31Z</time>
      </trkpt>
      <trkpt lat="44.41106" lon="4.2143">
        <ele>198</ele>
        <time>2014-05-06T13:01:38Z</time>
      </trkpt>
      <trkpt lat="44.41114" lon="4.21423">
        <ele>200</ele>
        <time>2014-05-06T13:01:48Z</time>
      </trkpt>
      <trkpt lat="44.41117" lon="4.21419">
        <ele>202</ele>
        <time>2014-05-06T13:01:55Z</time>
      </trkpt>
      <trkpt lat="44.41121" lon="4.2141">
        <ele>202</ele>
        <time>2014-05-06T13:02:06Z</time>
      </trkpt>
      <trkpt lat="44.41122" lon="4.21401">
        <ele>203</ele>
        <time>2014-05-06T13:02:17Z</time>
      </trkpt>
      <trkpt lat="44.41124" lon="4.21394">
        <ele>202</ele>
        <time>2014-05-06T13:02:23Z</time>
      </trkpt>
      <trkpt lat="44.41127" lon="4.21389">
        <ele>202</ele>
        <time>2014-05-06T13:02:30Z</time>
      </trkpt>
      <trkpt lat="44.41127" lon="4.21382">
        <ele>203</ele>
        <time>2014-05-06T13:02:38Z</time>
      </trkpt>
      <trkpt lat="44.41124" lon="4.21376">
        <ele>202</ele>
        <time>2014-05-06T13:02:45Z</time>
      </trkpt>
      <trkpt lat="44.41118" lon="4.2137">
        <ele>202</ele>
        <time>2014-05-06T13:03:09Z</time>
      </trkpt>
      <trkpt lat="44.41115" lon="4.21364">
        <ele>203</ele>
        <time>2014-05-06T13:03:14Z</time>
      </trkpt>
      <trkpt lat="44.41114" lon="4.21358">
        <ele>204</ele>
        <time>2014-05-06T13:03:21Z</time>
      </trkpt>
      <trkpt lat="44.41113" lon="4.21352">
        <ele>206</ele>
        <time>2014-05-06T13:03:28Z</time>
      </trkpt>
      <trkpt lat="44.41113" lon="4.21345">
        <ele>208</ele>
        <time>2014-05-06T13:03:37Z</time>
      </trkpt>
      <trkpt lat="44.41118" lon="4.21342">
        <ele>209</ele>
        <time>2014-05-06T13:03:47Z</time>
      </trkpt>
      <trkpt lat="44.41122" lon="4.2134">
        <ele>210</ele>
        <time>2014-05-06T13:03:54Z</time>
      </trkpt>
      <trkpt lat="44.41128" lon="4.21338">
        <ele>211</ele>
        <time>2014-05-06T13:04:00Z</time>
      </trkpt>
      <trkpt lat="44.41133" lon="4.21338">
        <ele>213</ele>
        <time>2014-05-06T13:04:06Z</time>
      </trkpt>
      <trkpt lat="44.41137" lon="4.21337">
        <ele>214</ele>
        <time>2014-05-06T13:04:14Z</time>
      </trkpt>
      <trkpt lat="44.41141" lon="4.21333">
        <ele>215</ele>
        <time>2014-05-06T13:04:20Z</time>
      </trkpt>
      <trkpt lat="44.41146" lon="4.21331">
        <ele>215</ele>
        <time>2014-05-06T13:04:28Z</time>
      </trkpt>
      <trkpt lat="44.41152" lon="4.21323">
        <ele>215</ele>
        <time>2014-05-06T13:04:43Z</time>
      </trkpt>
      <trkpt lat="44.41154" lon="4.21318">
        <ele>216</ele>
        <time>2014-05-06T13:04:49Z</time>
      </trkpt>
      <trkpt lat="44.41157" lon="4.21312">
        <ele>218</ele>
        <time>2014-05-06T13:04:56Z</time>
      </trkpt>
      <trkpt lat="44.4116" lon="4.21307">
        <ele>218</ele>
        <time>2014-05-06T13:05:05Z</time>
      </trkpt>
      <trkpt lat="44.41164" lon="4.21303">
        <ele>218</ele>
        <time>2014-05-06T13:05:12Z</time>
      </trkpt>
      <trkpt lat="44.41169" lon="4.21301">
        <ele>220</ele>
        <time>2014-05-06T13:05:20Z</time>
      </trkpt>
      <trkpt lat="44.41173" lon="4.21298">
        <ele>221</ele>
        <time>2014-05-06T13:05:29Z</time>
      </trkpt>
      <trkpt lat="44.41176" lon="4.21294">
        <ele>221</ele>
        <time>2014-05-06T13:05:34Z</time>
      </trkpt>
      <trkpt lat="44.4118" lon="4.2129">
        <ele>221</ele>
        <time>2014-05-06T13:05:40Z</time>
      </trkpt>
      <trkpt lat="44.41185" lon="4.21286">
        <ele>222</ele>
        <time>2014-05-06T13:05:46Z</time>
      </trkpt>
      <trkpt lat="44.4119" lon="4.21283">
        <ele>225</ele>
        <time>2014-05-06T13:05:53Z</time>
      </trkpt>
      <trkpt lat="44.41195" lon="4.21281">
        <ele>226</ele>
        <time>2014-05-06T13:06:00Z</time>
      </trkpt>
      <trkpt lat="44.412" lon="4.21279">
        <ele>227</ele>
        <time>2014-05-06T13:06:07Z</time>
      </trkpt>
      <trkpt lat="44.41204" lon="4.21276">
        <ele>227</ele>
        <time>2014-05-06T13:06:14Z</time>
      </trkpt>
      <trkpt lat="44.41209" lon="4.21273">
        <ele>227</ele>
        <time>2014-05-06T13:06:20Z</time>
      </trkpt>
      <trkpt lat="44.41213" lon="4.21269">
        <ele>228</ele>
        <time>2014-05-06T13:06:27Z</time>
      </trkpt>
      <trkpt lat="44.41217" lon="4.21264">
        <ele>227</ele>
        <time>2014-05-06T13:06:34Z</time>
      </trkpt>
      <trkpt lat="44.41219" lon="4.21258">
        <ele>228</ele>
        <time>2014-05-06T13:06:40Z</time>
      </trkpt>
      <trkpt lat="44.41222" lon="4.21253">
        <ele>229</ele>
        <time>2014-05-06T13:06:48Z</time>
      </trkpt>
      <trkpt lat="44.41226" lon="4.21249">
        <ele>229</ele>
        <time>2014-05-06T13:06:53Z</time>
      </trkpt>
      <trkpt lat="44.41229" lon="4.21244">
        <ele>230</ele>
        <time>2014-05-06T13:06:59Z</time>
      </trkpt>
      <trkpt lat="44.41232" lon="4.21239">
        <ele>230</ele>
        <time>2014-05-06T13:07:04Z</time>
      </trkpt>
      <trkpt lat="44.41236" lon="4.21234">
        <ele>230</ele>
        <time>2014-05-06T13:07:09Z</time>
      </trkpt>
      <trkpt lat="44.41241" lon="4.21233">
        <ele>230</ele>
        <time>2014-05-06T13:07:15Z</time>
      </trkpt>
      <trkpt lat="44.41245" lon="4.2123">
        <ele>231</ele>
        <time>2014-05-06T13:07:20Z</time>
      </trkpt>
      <trkpt lat="44.4125" lon="4.21228">
        <ele>231</ele>
        <time>2014-05-06T13:07:28Z</time>
      </trkpt>
      <trkpt lat="44.41255" lon="4.21228">
        <ele>231</ele>
        <time>2014-05-06T13:07:34Z</time>
      </trkpt>
      <trkpt lat="44.4126" lon="4.21229">
        <ele>232</ele>
        <time>2014-05-06T13:07:39Z</time>
      </trkpt>
      <trkpt lat="44.41265" lon="4.21231">
        <ele>234</ele>
        <time>2014-05-06T13:07:45Z</time>
      </trkpt>
      <trkpt lat="44.41269" lon="4.21232">
        <ele>235</ele>
        <time>2014-05-06T13:07:52Z</time>
      </trkpt>
      <trkpt lat="44.41274" lon="4.21232">
        <ele>235</ele>
        <time>2014-05-06T13:07:57Z</time>
      </trkpt>
      <trkpt lat="44.4128" lon="4.21234">
        <ele>235</ele>
        <time>2014-05-06T13:08:04Z</time>
      </trkpt>
      <trkpt lat="44.41286" lon="4.21234">
        <ele>235</ele>
        <time>2014-05-06T13:08:12Z</time>
      </trkpt>
      <trkpt lat="44.41294" lon="4.21233">
        <ele>236</ele>
        <time>2014-05-06T13:08:22Z</time>
      </trkpt>
      <trkpt lat="44.413" lon="4.21234">
        <ele>237</ele>
        <time>2014-05-06T13:08:29Z</time>
      </trkpt>
      <trkpt lat="44.41305" lon="4.21236">
        <ele>239</ele>
        <time>2014-05-06T13:08:34Z</time>
      </trkpt>
      <trkpt lat="44.4131" lon="4.21239">
        <ele>240</ele>
        <time>2014-05-06T13:08:38Z</time>
      </trkpt>
      <trkpt lat="44.41314" lon="4.21241">
        <ele>240</ele>
        <time>2014-05-06T13:08:44Z</time>
      </trkpt>
      <trkpt lat="44.41319" lon="4.21241">
        <ele>241</ele>
        <time>2014-05-06T13:08:51Z</time>
      </trkpt>
      <trkpt lat="44.41324" lon="4.21244">
        <ele>241</ele>
        <time>2014-05-06T13:08:57Z</time>
      </trkpt>
      <trkpt lat="44.41331" lon="4.21247">
        <ele>241</ele>
        <time>2014-05-06T13:09:06Z</time>
      </trkpt>
      <trkpt lat="44.41339" lon="4.21246">
        <ele>243</ele>
        <time>2014-05-06T13:09:17Z</time>
      </trkpt>
      <trkpt lat="44.41344" lon="4.21244">
        <ele>243</ele>
        <time>2014-05-06T13:09:21Z</time>
      </trkpt>
      <trkpt lat="44.41347" lon="4.21244">
        <ele>243</ele>
        <time>2014-05-06T13:09:27Z</time>
      </trkpt>
      <trkpt lat="44.41349" lon="4.21245">
        <ele>243</ele>
        <time>2014-05-06T13:09:33Z</time>
      </trkpt>
      <trkpt lat="44.41354" lon="4.21243">
        <ele>244</ele>
        <time>2014-05-06T13:09:39Z</time>
      </trkpt>
      <trkpt lat="44.41358" lon="4.21241">
        <ele>244</ele>
        <time>2014-05-06T13:09:45Z</time>
      </trkpt>
      <trkpt lat="44.41363" lon="4.2124">
        <ele>245</ele>
        <time>2014-05-06T13:09:51Z</time>
      </trkpt>
      <trkpt lat="44.41368" lon="4.21239">
        <ele>248</ele>
        <time>2014-05-06T13:09:57Z</time>
      </trkpt>
      <trkpt lat="44.41372" lon="4.21236">
        <ele>248</ele>
        <time>2014-05-06T13:10:03Z</time>
      </trkpt>
      <trkpt lat="44.41377" lon="4.21226">
        <ele>248</ele>
        <time>2014-05-06T13:10:14Z</time>
      </trkpt>
      <trkpt lat="44.41381" lon="4.21222">
        <ele>248</ele>
        <time>2014-05-06T13:10:19Z</time>
      </trkpt>
      <trkpt lat="44.41386" lon="4.21221">
        <ele>250</ele>
        <time>2014-05-06T13:10:30Z</time>
      </trkpt>
      <trkpt lat="44.41395" lon="4.21218">
        <ele>251</ele>
        <time>2014-05-06T13:10:44Z</time>
      </trkpt>
      <trkpt lat="44.414" lon="4.21216">
        <ele>248</ele>
        <time>2014-05-06T13:11:00Z</time>
      </trkpt>
      <trkpt lat="44.41401" lon="4.21211">
        <ele>244</ele>
        <time>2014-05-06T13:11:45Z</time>
      </trkpt>
      <trkpt lat="44.41401" lon="4.21204">
        <ele>245</ele>
        <time>2014-05-06T13:11:51Z</time>
      </trkpt>
      <trkpt lat="44.41401" lon="4.21198">
        <ele>247</ele>
        <time>2014-05-06T13:11:57Z</time>
      </trkpt>
      <trkpt lat="44.41402" lon="4.21191">
        <ele>248</ele>
        <time>2014-05-06T13:12:03Z</time>
      </trkpt>
      <trkpt lat="44.41405" lon="4.21184">
        <ele>251</ele>
        <time>2014-05-06T13:12:09Z</time>
      </trkpt>
      <trkpt lat="44.41411" lon="4.21177">
        <ele>251</ele>
        <time>2014-05-06T13:12:18Z</time>
      </trkpt>
      <trkpt lat="44.41415" lon="4.21171">
        <ele>252</ele>
        <time>2014-05-06T13:12:26Z</time>
      </trkpt>
      <trkpt lat="44.41416" lon="4.21165">
        <ele>252</ele>
        <time>2014-05-06T13:12:31Z</time>
      </trkpt>
      <trkpt lat="44.41419" lon="4.21159">
        <ele>252</ele>
        <time>2014-05-06T13:12:37Z</time>
      </trkpt>
      <trkpt lat="44.41421" lon="4.21153">
        <ele>254</ele>
        <time>2014-05-06T13:12:43Z</time>
      </trkpt>
      <trkpt lat="44.41424" lon="4.21149">
        <ele>254</ele>
        <time>2014-05-06T13:12:51Z</time>
      </trkpt>
      <trkpt lat="44.41426" lon="4.21149">
        <ele>252</ele>
        <time>2014-05-06T13:14:09Z</time>
      </trkpt>
      <trkpt lat="44.41424" lon="4.21141">
        <ele>251</ele>
        <time>2014-05-06T13:14:38Z</time>
      </trkpt>
      <trkpt lat="44.4142" lon="4.21137">
        <ele>251</ele>
        <time>2014-05-06T13:14:41Z</time>
      </trkpt>
      <trkpt lat="44.41415" lon="4.21134">
        <ele>252</ele>
        <time>2014-05-06T13:14:48Z</time>
      </trkpt>
      <trkpt lat="44.4141" lon="4.21132">
        <ele>253</ele>
        <time>2014-05-06T13:14:54Z</time>
      </trkpt>
      <trkpt lat="44.41405" lon="4.2113">
        <ele>252</ele>
        <time>2014-05-06T13:14:58Z</time>
      </trkpt>
      <trkpt lat="44.414" lon="4.21128">
        <ele>251</ele>
        <time>2014-05-06T13:15:01Z</time>
      </trkpt>
      <trkpt lat="44.41396" lon="4.21126">
        <ele>250</ele>
        <time>2014-05-06T13:15:05Z</time>
      </trkpt>
      <trkpt lat="44.41391" lon="4.21124">
        <ele>251</ele>
        <time>2014-05-06T13:15:10Z</time>
      </trkpt>
      <trkpt lat="44.41386" lon="4.21123">
        <ele>251</ele>
        <time>2014-05-06T13:15:16Z</time>
      </trkpt>
      <trkpt lat="44.41382" lon="4.21122">
        <ele>251</ele>
        <time>2014-05-06T13:15:20Z</time>
      </trkpt>
      <trkpt lat="44.41377" lon="4.21121">
        <ele>250</ele>
        <time>2014-05-06T13:15:25Z</time>
      </trkpt>
      <trkpt lat="44.41368" lon="4.2112">
        <ele>251</ele>
        <time>2014-05-06T13:15:34Z</time>
      </trkpt>
      <trkpt lat="44.41361" lon="4.21118">
        <ele>251</ele>
        <time>2014-05-06T13:15:41Z</time>
      </trkpt>
      <trkpt lat="44.41356" lon="4.21116">
        <ele>250</ele>
        <time>2014-05-06T13:15:46Z</time>
      </trkpt>
      <trkpt lat="44.41352" lon="4.21116">
        <ele>250</ele>
        <time>2014-05-06T13:15:50Z</time>
      </trkpt>
      <trkpt lat="44.41347" lon="4.21115">
        <ele>249</ele>
        <time>2014-05-06T13:15:57Z</time>
      </trkpt>
      <trkpt lat="44.41342" lon="4.21113">
        <ele>249</ele>
        <time>2014-05-06T13:16:01Z</time>
      </trkpt>
      <trkpt lat="44.41337" lon="4.21109">
        <ele>250</ele>
        <time>2014-05-06T13:16:06Z</time>
      </trkpt>
      <trkpt lat="44.41333" lon="4.21107">
        <ele>250</ele>
        <time>2014-05-06T13:16:10Z</time>
      </trkpt>
      <trkpt lat="44.41328" lon="4.21105">
        <ele>251</ele>
        <time>2014-05-06T13:16:15Z</time>
      </trkpt>
      <trkpt lat="44.41323" lon="4.21103">
        <ele>250</ele>
        <time>2014-05-06T13:16:20Z</time>
      </trkpt>
      <trkpt lat="44.41318" lon="4.21103">
        <ele>249</ele>
        <time>2014-05-06T13:16:26Z</time>
      </trkpt>
      <trkpt lat="44.41314" lon="4.21103">
        <ele>249</ele>
        <time>2014-05-06T13:16:30Z</time>
      </trkpt>
      <trkpt lat="44.41308" lon="4.21101">
        <ele>248</ele>
        <time>2014-05-06T13:16:35Z</time>
      </trkpt>
      <trkpt lat="44.41303" lon="4.21101">
        <ele>246</ele>
        <time>2014-05-06T13:16:41Z</time>
      </trkpt>
      <trkpt lat="44.41298" lon="4.21098">
        <ele>246</ele>
        <time>2014-05-06T13:16:47Z</time>
      </trkpt>
      <trkpt lat="44.41295" lon="4.21093">
        <ele>245</ele>
        <time>2014-05-06T13:16:52Z</time>
      </trkpt>
      <trkpt lat="44.41289" lon="4.21083">
        <ele>242</ele>
        <time>2014-05-06T13:17:00Z</time>
      </trkpt>
      <trkpt lat="44.41285" lon="4.21079">
        <ele>242</ele>
        <time>2014-05-06T13:17:06Z</time>
      </trkpt>
      <trkpt lat="44.41278" lon="4.21072">
        <ele>242</ele>
        <time>2014-05-06T13:17:14Z</time>
      </trkpt>
      <trkpt lat="44.41271" lon="4.21068">
        <ele>242</ele>
        <time>2014-05-06T13:17:24Z</time>
      </trkpt>
      <trkpt lat="44.41268" lon="4.21063">
        <ele>241</ele>
        <time>2014-05-06T13:17:29Z</time>
      </trkpt>
      <trkpt lat="44.41265" lon="4.21058">
        <ele>240</ele>
        <time>2014-05-06T13:17:33Z</time>
      </trkpt>
      <trkpt lat="44.41261" lon="4.2105">
        <ele>239</ele>
        <time>2014-05-06T13:17:40Z</time>
      </trkpt>
      <trkpt lat="44.41257" lon="4.21043">
        <ele>237</ele>
        <time>2014-05-06T13:17:46Z</time>
      </trkpt>
      <trkpt lat="44.41254" lon="4.21037">
        <ele>237</ele>
        <time>2014-05-06T13:17:51Z</time>
      </trkpt>
      <trkpt lat="44.41252" lon="4.21031">
        <ele>236</ele>
        <time>2014-05-06T13:17:57Z</time>
      </trkpt>
      <trkpt lat="44.41247" lon="4.21026">
        <ele>235</ele>
        <time>2014-05-06T13:18:07Z</time>
      </trkpt>
      <trkpt lat="44.41241" lon="4.21021">
        <ele>235</ele>
        <time>2014-05-06T13:18:15Z</time>
      </trkpt>
      <trkpt lat="44.41236" lon="4.21019">
        <ele>235</ele>
        <time>2014-05-06T13:18:21Z</time>
      </trkpt>
      <trkpt lat="44.41232" lon="4.21016">
        <ele>235</ele>
        <time>2014-05-06T13:18:29Z</time>
      </trkpt>
      <trkpt lat="44.41227" lon="4.21016">
        <ele>235</ele>
        <time>2014-05-06T13:18:33Z</time>
      </trkpt>
      <trkpt lat="44.41222" lon="4.21015">
        <ele>235</ele>
        <time>2014-05-06T13:18:38Z</time>
      </trkpt>
      <trkpt lat="44.4122" lon="4.21009">
        <ele>235</ele>
        <time>2014-05-06T13:18:44Z</time>
      </trkpt>
      <trkpt lat="44.41222" lon="4.21003">
        <ele>234</ele>
        <time>2014-05-06T13:18:51Z</time>
      </trkpt>
      <trkpt lat="44.41223" lon="4.20997">
        <ele>234</ele>
        <time>2014-05-06T13:18:56Z</time>
      </trkpt>
      <trkpt lat="44.41225" lon="4.20991">
        <ele>233</ele>
        <time>2014-05-06T13:19:02Z</time>
      </trkpt>
      <trkpt lat="44.41227" lon="4.20985">
        <ele>231</ele>
        <time>2014-05-06T13:19:07Z</time>
      </trkpt>
      <trkpt lat="44.41233" lon="4.20975">
        <ele>229</ele>
        <time>2014-05-06T13:19:17Z</time>
      </trkpt>
      <trkpt lat="44.41236" lon="4.20968">
        <ele>230</ele>
        <time>2014-05-06T13:19:23Z</time>
      </trkpt>
      <trkpt lat="44.41238" lon="4.20962">
        <ele>229</ele>
        <time>2014-05-06T13:19:32Z</time>
      </trkpt>
      <trkpt lat="44.41241" lon="4.20954">
        <ele>228</ele>
        <time>2014-05-06T13:19:39Z</time>
      </trkpt>
      <trkpt lat="44.41244" lon="4.20948">
        <ele>227</ele>
        <time>2014-05-06T13:19:44Z</time>
      </trkpt>
      <trkpt lat="44.41245" lon="4.20937">
        <ele>226</ele>
        <time>2014-05-06T13:19:53Z</time>
      </trkpt>
      <trkpt lat="44.41243" lon="4.20924">
        <ele>221</ele>
        <time>2014-05-06T13:20:06Z</time>
      </trkpt>
      <trkpt lat="44.41237" lon="4.20916">
        <ele>222</ele>
        <time>2014-05-06T13:20:14Z</time>
      </trkpt>
      <trkpt lat="44.41233" lon="4.2091">
        <ele>221</ele>
        <time>2014-05-06T13:20:22Z</time>
      </trkpt>
      <trkpt lat="44.41224" lon="4.20906">
        <ele>221</ele>
        <time>2014-05-06T13:20:31Z</time>
      </trkpt>
      <trkpt lat="44.41221" lon="4.209">
        <ele>221</ele>
        <time>2014-05-06T13:20:36Z</time>
      </trkpt>
      <trkpt lat="44.41218" lon="4.20894">
        <ele>222</ele>
        <time>2014-05-06T13:20:40Z</time>
      </trkpt>
      <trkpt lat="44.41223" lon="4.20889">
        <ele>226</ele>
        <time>2014-05-06T13:21:32Z</time>
      </trkpt>
      <trkpt lat="44.41223" lon="4.2088">
        <ele>223</ele>
        <time>2014-05-06T13:21:40Z</time>
      </trkpt>
      <trkpt lat="44.41223" lon="4.20873">
        <ele>222</ele>
        <time>2014-05-06T13:21:43Z</time>
      </trkpt>
      <trkpt lat="44.41227" lon="4.20869">
        <ele>222</ele>
        <time>2014-05-06T13:21:48Z</time>
      </trkpt>
      <trkpt lat="44.4123" lon="4.20864">
        <ele>224</ele>
        <time>2014-05-06T13:22:01Z</time>
      </trkpt>
      <trkpt lat="44.4123" lon="4.20854">
        <ele>224</ele>
        <time>2014-05-06T13:22:15Z</time>
      </trkpt>
      <trkpt lat="44.41237" lon="4.20855">
        <ele>222</ele>
        <time>2014-05-06T13:22:37Z</time>
      </trkpt>
      <trkpt lat="44.41244" lon="4.20854">
        <ele>223</ele>
        <time>2014-05-06T13:22:43Z</time>
      </trkpt>
      <trkpt lat="44.41249" lon="4.20854">
        <ele>223</ele>
        <time>2014-05-06T13:22:48Z</time>
      </trkpt>
      <trkpt lat="44.41253" lon="4.20855">
        <ele>224</ele>
        <time>2014-05-06T13:22:54Z</time>
      </trkpt>
      <trkpt lat="44.41258" lon="4.20853">
        <ele>222</ele>
        <time>2014-05-06T13:23:02Z</time>
      </trkpt>
      <trkpt lat="44.41264" lon="4.20851">
        <ele>221</ele>
        <time>2014-05-06T13:23:40Z</time>
      </trkpt>
      <trkpt lat="44.41267" lon="4.20856">
        <ele>222</ele>
        <time>2014-05-06T13:23:45Z</time>
      </trkpt>
      <trkpt lat="44.41271" lon="4.20856">
        <ele>222</ele>
        <time>2014-05-06T13:23:53Z</time>
      </trkpt>
      <trkpt lat="44.41277" lon="4.20855">
        <ele>223</ele>
        <time>2014-05-06T13:24:01Z</time>
      </trkpt>
      <trkpt lat="44.41282" lon="4.20857">
        <ele>224</ele>
        <time>2014-05-06T13:24:07Z</time>
      </trkpt>
      <trkpt lat="44.41291" lon="4.2086">
        <ele>222</ele>
        <time>2014-05-06T13:24:23Z</time>
      </trkpt>
      <trkpt lat="44.41297" lon="4.20859">
        <ele>220</ele>
        <time>2014-05-06T13:24:30Z</time>
      </trkpt>
      <trkpt lat="44.41302" lon="4.20858">
        <ele>220</ele>
        <time>2014-05-06T13:24:35Z</time>
      </trkpt>
      <trkpt lat="44.41311" lon="4.2086">
        <ele>221</ele>
        <time>2014-05-06T13:24:45Z</time>
      </trkpt>
      <trkpt lat="44.41319" lon="4.20863">
        <ele>223</ele>
        <time>2014-05-06T13:24:53Z</time>
      </trkpt>
      <trkpt lat="44.41323" lon="4.20867">
        <ele>223</ele>
        <time>2014-05-06T13:24:57Z</time>
      </trkpt>
      <trkpt lat="44.41329" lon="4.20869">
        <ele>223</ele>
        <time>2014-05-06T13:25:02Z</time>
      </trkpt>
      <trkpt lat="44.41335" lon="4.20871">
        <ele>222</ele>
        <time>2014-05-06T13:25:10Z</time>
      </trkpt>
      <trkpt lat="44.4134" lon="4.20872">
        <ele>222</ele>
        <time>2014-05-06T13:25:15Z</time>
      </trkpt>
      <trkpt lat="44.41345" lon="4.20874">
        <ele>223</ele>
        <time>2014-05-06T13:25:21Z</time>
      </trkpt>
      <trkpt lat="44.41352" lon="4.20879">
        <ele>224</ele>
        <time>2014-05-06T13:25:29Z</time>
      </trkpt>
      <trkpt lat="44.41355" lon="4.20884">
        <ele>223</ele>
        <time>2014-05-06T13:25:33Z</time>
      </trkpt>
      <trkpt lat="44.41363" lon="4.2089">
        <ele>223</ele>
        <time>2014-05-06T13:25:42Z</time>
      </trkpt>
      <trkpt lat="44.41368" lon="4.2089">
        <ele>223</ele>
        <time>2014-05-06T13:25:48Z</time>
      </trkpt>
      <trkpt lat="44.4137" lon="4.20892">
        <ele>223</ele>
        <time>2014-05-06T13:25:54Z</time>
      </trkpt>
      <trkpt lat="44.41377" lon="4.20891">
        <ele>225</ele>
        <time>2014-05-06T13:26:17Z</time>
      </trkpt>
      <trkpt lat="44.41382" lon="4.20891">
        <ele>226</ele>
        <time>2014-05-06T13:26:22Z</time>
      </trkpt>
      <trkpt lat="44.41387" lon="4.20893">
        <ele>227</ele>
        <time>2014-05-06T13:26:26Z</time>
      </trkpt>
      <trkpt lat="44.41392" lon="4.20896">
        <ele>226</ele>
        <time>2014-05-06T13:26:33Z</time>
      </trkpt>
      <trkpt lat="44.41396" lon="4.20899">
        <ele>225</ele>
        <time>2014-05-06T13:26:50Z</time>
      </trkpt>
      <trkpt lat="44.41399" lon="4.20905">
        <ele>224</ele>
        <time>2014-05-06T13:26:57Z</time>
      </trkpt>
      <trkpt lat="44.41403" lon="4.20909">
        <ele>225</ele>
        <time>2014-05-06T13:27:02Z</time>
      </trkpt>
      <trkpt lat="44.41411" lon="4.20916">
        <ele>225</ele>
        <time>2014-05-06T13:27:15Z</time>
      </trkpt>
      <trkpt lat="44.41416" lon="4.20919">
        <ele>227</ele>
        <time>2014-05-06T13:27:21Z</time>
      </trkpt>
      <trkpt lat="44.41421" lon="4.2092">
        <ele>227</ele>
        <time>2014-05-06T13:27:25Z</time>
      </trkpt>
      <trkpt lat="44.41425" lon="4.20922">
        <ele>227</ele>
        <time>2014-05-06T13:27:30Z</time>
      </trkpt>
      <trkpt lat="44.4143" lon="4.20926">
        <ele>229</ele>
        <time>2014-05-06T13:27:36Z</time>
      </trkpt>
      <trkpt lat="44.41433" lon="4.2093">
        <ele>231</ele>
        <time>2014-05-06T13:27:41Z</time>
      </trkpt>
      <trkpt lat="44.41437" lon="4.20935">
        <ele>231</ele>
        <time>2014-05-06T13:27:46Z</time>
      </trkpt>
      <trkpt lat="44.41441" lon="4.20931">
        <ele>231</ele>
        <time>2014-05-06T13:27:53Z</time>
      </trkpt>
      <trkpt lat="44.41441" lon="4.20923">
        <ele>231</ele>
        <time>2014-05-06T13:28:00Z</time>
      </trkpt>
      <trkpt lat="44.41442" lon="4.20916">
        <ele>231</ele>
        <time>2014-05-06T13:28:07Z</time>
      </trkpt>
      <trkpt lat="44.41448" lon="4.20914">
        <ele>233</ele>
        <time>2014-05-06T13:28:21Z</time>
      </trkpt>
      <trkpt lat="44.41453" lon="4.20915">
        <ele>233</ele>
        <time>2014-05-06T13:28:25Z</time>
      </trkpt>
      <trkpt lat="44.41458" lon="4.20918">
        <ele>232</ele>
        <time>2014-05-06T13:28:29Z</time>
      </trkpt>
      <trkpt lat="44.41465" lon="4.20923">
        <ele>232</ele>
        <time>2014-05-06T13:28:43Z</time>
      </trkpt>
      <trkpt lat="44.41469" lon="4.20927">
        <ele>231</ele>
        <time>2014-05-06T13:28:50Z</time>
      </trkpt>
      <trkpt lat="44.41478" lon="4.20928">
        <ele>231</ele>
        <time>2014-05-06T13:29:00Z</time>
      </trkpt>
      <trkpt lat="44.41482" lon="4.20932">
        <ele>230</ele>
        <time>2014-05-06T13:29:06Z</time>
      </trkpt>
      <trkpt lat="44.41485" lon="4.20939">
        <ele>227</ele>
        <time>2014-05-06T13:29:15Z</time>
      </trkpt>
      <trkpt lat="44.41487" lon="4.20947">
        <ele>225</ele>
        <time>2014-05-06T13:29:20Z</time>
      </trkpt>
      <trkpt lat="44.41486" lon="4.20954">
        <ele>226</ele>
        <time>2014-05-06T13:29:28Z</time>
      </trkpt>
      <trkpt lat="44.41486" lon="4.20961">
        <ele>225</ele>
        <time>2014-05-06T13:29:35Z</time>
      </trkpt>
      <trkpt lat="44.41492" lon="4.20958">
        <ele>225</ele>
        <time>2014-05-06T13:29:47Z</time>
      </trkpt>
      <trkpt lat="44.41497" lon="4.20952">
        <ele>225</ele>
        <time>2014-05-06T13:29:52Z</time>
      </trkpt>
      <trkpt lat="44.41499" lon="4.20947">
        <ele>225</ele>
        <time>2014-05-06T13:29:58Z</time>
      </trkpt>
      <trkpt lat="44.41504" lon="4.20943">
        <ele>226</ele>
        <time>2014-05-06T13:30:08Z</time>
      </trkpt>
      <trkpt lat="44.41506" lon="4.20941">
        <ele>226</ele>
        <time>2014-05-06T13:30:14Z</time>
      </trkpt>
      <trkpt lat="44.41512" lon="4.20935">
        <ele>224</ele>
        <time>2014-05-06T13:30:30Z</time>
      </trkpt>
      <trkpt lat="44.41522" lon="4.20926">
        <ele>227</ele>
        <time>2014-05-06T13:31:31Z</time>
      </trkpt>
      <trkpt lat="44.41532" lon="4.20928">
        <ele>226</ele>
        <time>2014-05-06T13:31:42Z</time>
      </trkpt>
      <trkpt lat="44.41537" lon="4.20928">
        <ele>228</ele>
        <time>2014-05-06T13:31:46Z</time>
      </trkpt>
      <trkpt lat="44.41545" lon="4.20926">
        <ele>229</ele>
        <time>2014-05-06T13:31:54Z</time>
      </trkpt>
      <trkpt lat="44.4155" lon="4.20917">
        <ele>230</ele>
        <time>2014-05-06T13:32:02Z</time>
      </trkpt>
      <trkpt lat="44.41553" lon="4.20911">
        <ele>229</ele>
        <time>2014-05-06T13:32:06Z</time>
      </trkpt>
      <trkpt lat="44.41558" lon="4.20911">
        <ele>229</ele>
        <time>2014-05-06T13:32:44Z</time>
      </trkpt>
      <trkpt lat="44.41555" lon="4.20908">
        <ele>228</ele>
        <time>2014-05-06T13:35:23Z</time>
      </trkpt>
      <trkpt lat="44.41555" lon="4.20901">
        <ele>229</ele>
        <time>2014-05-06T13:38:18Z</time>
      </trkpt>
      <trkpt lat="44.41562" lon="4.20902">
        <ele>229</ele>
        <time>2014-05-06T13:39:57Z</time>
      </trkpt>
      <trkpt lat="44.41618" lon="4.20862">
        <ele>229</ele>
        <time>2014-05-06T13:59:14Z</time>
      </trkpt>
      <trkpt lat="44.41625" lon="4.20861">
        <ele>228</ele>
        <time>2014-05-06T13:59:21Z</time>
      </trkpt>
      <trkpt lat="44.41627" lon="4.20863">
        <ele>227</ele>
        <time>2014-05-06T13:59:28Z</time>
      </trkpt>
      <trkpt lat="44.41634" lon="4.20857">
        <ele>227</ele>
        <time>2014-05-06T13:59:37Z</time>
      </trkpt>
      <trkpt lat="44.41635" lon="4.2085">
        <ele>225</ele>
        <time>2014-05-06T13:59:48Z</time>
      </trkpt>
      <trkpt lat="44.41643" lon="4.20841">
        <ele>226</ele>
        <time>2014-05-06T13:59:55Z</time>
      </trkpt>
      <trkpt lat="44.41646" lon="4.20831">
        <ele>228</ele>
        <time>2014-05-06T14:00:05Z</time>
      </trkpt>
      <trkpt lat="44.41646" lon="4.20825">
        <ele>229</ele>
        <time>2014-05-06T14:00:11Z</time>
      </trkpt>
      <trkpt lat="44.41651" lon="4.20819">
        <ele>230</ele>
        <time>2014-05-06T14:00:19Z</time>
      </trkpt>
      <trkpt lat="44.41655" lon="4.20811">
        <ele>230</ele>
        <time>2014-05-06T14:00:32Z</time>
      </trkpt>
      <trkpt lat="44.41657" lon="4.20809">
        <ele>231</ele>
        <time>2014-05-06T14:00:38Z</time>
      </trkpt>
      <trkpt lat="44.41662" lon="4.20802">
        <ele>232</ele>
        <time>2014-05-06T14:00:46Z</time>
      </trkpt>
      <trkpt lat="44.41666" lon="4.20796">
        <ele>233</ele>
        <time>2014-05-06T14:00:53Z</time>
      </trkpt>
      <trkpt lat="44.4167" lon="4.20791">
        <ele>233</ele>
        <time>2014-05-06T14:00:58Z</time>
      </trkpt>
      <trkpt lat="44.41673" lon="4.20785">
        <ele>232</ele>
        <time>2014-05-06T14:01:04Z</time>
      </trkpt>
      <trkpt lat="44.41677" lon="4.20777">
        <ele>232</ele>
        <time>2014-05-06T14:01:14Z</time>
      </trkpt>
      <trkpt lat="44.41685" lon="4.20763">
        <ele>230</ele>
        <time>2014-05-06T14:01:33Z</time>
      </trkpt>
      <trkpt lat="44.41687" lon="4.20753">
        <ele>231</ele>
        <time>2014-05-06T14:01:41Z</time>
      </trkpt>
      <trkpt lat="44.41684" lon="4.20741">
        <ele>231</ele>
        <time>2014-05-06T14:01:49Z</time>
      </trkpt>
      <trkpt lat="44.41687" lon="4.20736">
        <ele>232</ele>
        <time>2014-05-06T14:01:55Z</time>
      </trkpt>
      <trkpt lat="44.41692" lon="4.2073">
        <ele>231</ele>
        <time>2014-05-06T14:02:02Z</time>
      </trkpt>
      <trkpt lat="44.41697" lon="4.20721">
        <ele>229</ele>
        <time>2014-05-06T14:02:12Z</time>
      </trkpt>
      <trkpt lat="44.417" lon="4.20714">
        <ele>230</ele>
        <time>2014-05-06T14:02:18Z</time>
      </trkpt>
      <trkpt lat="44.41706" lon="4.20706">
        <ele>231</ele>
        <time>2014-05-06T14:02:24Z</time>
      </trkpt>
      <trkpt lat="44.41709" lon="4.20696">
        <ele>232</ele>
        <time>2014-05-06T14:02:31Z</time>
      </trkpt>
      <trkpt lat="44.41715" lon="4.20689">
        <ele>234</ele>
        <time>2014-05-06T14:02:40Z</time>
      </trkpt>
      <trkpt lat="44.41723" lon="4.20698">
        <ele>233</ele>
        <time>2014-05-06T14:02:49Z</time>
      </trkpt>
      <trkpt lat="44.4173" lon="4.20706">
        <ele>231</ele>
        <time>2014-05-06T14:02:57Z</time>
      </trkpt>
      <trkpt lat="44.41736" lon="4.20713">
        <ele>231</ele>
        <time>2014-05-06T14:03:11Z</time>
      </trkpt>
      <trkpt lat="44.4174" lon="4.20719">
        <ele>231</ele>
        <time>2014-05-06T14:03:16Z</time>
      </trkpt>
      <trkpt lat="44.41746" lon="4.2072">
        <ele>230</ele>
        <time>2014-05-06T14:03:24Z</time>
      </trkpt>
      <trkpt lat="44.41754" lon="4.2072">
        <ele>231</ele>
        <time>2014-05-06T14:03:31Z</time>
      </trkpt>
      <trkpt lat="44.4176" lon="4.20721">
        <ele>230</ele>
        <time>2014-05-06T14:03:37Z</time>
      </trkpt>
      <trkpt lat="44.41765" lon="4.20723">
        <ele>230</ele>
        <time>2014-05-06T14:03:43Z</time>
      </trkpt>
      <trkpt lat="44.41769" lon="4.20722">
        <ele>230</ele>
        <time>2014-05-06T14:03:51Z</time>
      </trkpt>
      <trkpt lat="44.41773" lon="4.20718">
        <ele>230</ele>
        <time>2014-05-06T14:03:57Z</time>
      </trkpt>
      <trkpt lat="44.41775" lon="4.20716">
        <ele>230</ele>
        <time>2014-05-06T14:04:03Z</time>
      </trkpt>
      <trkpt lat="44.41781" lon="4.20713">
        <ele>231</ele>
        <time>2014-05-06T14:04:11Z</time>
      </trkpt>
      <trkpt lat="44.41786" lon="4.20711">
        <ele>231</ele>
        <time>2014-05-06T14:04:19Z</time>
      </trkpt>
      <trkpt lat="44.4179" lon="4.20708">
        <ele>231</ele>
        <time>2014-05-06T14:04:25Z</time>
      </trkpt>
      <trkpt lat="44.41796" lon="4.20708">
        <ele>231</ele>
        <time>2014-05-06T14:04:32Z</time>
      </trkpt>
      <trkpt lat="44.41802" lon="4.20707">
        <ele>232</ele>
        <time>2014-05-06T14:04:39Z</time>
      </trkpt>
      <trkpt lat="44.41805" lon="4.20702">
        <ele>232</ele>
        <time>2014-05-06T14:04:46Z</time>
      </trkpt>
      <trkpt lat="44.41808" lon="4.20696">
        <ele>233</ele>
        <time>2014-05-06T14:04:52Z</time>
      </trkpt>
      <trkpt lat="44.41811" lon="4.20691">
        <ele>234</ele>
        <time>2014-05-06T14:04:58Z</time>
      </trkpt>
      <trkpt lat="44.41813" lon="4.20682">
        <ele>234</ele>
        <time>2014-05-06T14:05:06Z</time>
      </trkpt>
      <trkpt lat="44.41814" lon="4.20674">
        <ele>233</ele>
        <time>2014-05-06T14:05:12Z</time>
      </trkpt>
      <trkpt lat="44.41815" lon="4.20668">
        <ele>234</ele>
        <time>2014-05-06T14:05:17Z</time>
      </trkpt>
      <trkpt lat="44.41817" lon="4.20661">
        <ele>234</ele>
        <time>2014-05-06T14:05:22Z</time>
      </trkpt>
      <trkpt lat="44.41819" lon="4.20655">
        <ele>234</ele>
        <time>2014-05-06T14:05:26Z</time>
      </trkpt>
      <trkpt lat="44.4182" lon="4.20649">
        <ele>235</ele>
        <time>2014-05-06T14:05:30Z</time>
      </trkpt>
      <trkpt lat="44.41821" lon="4.20642">
        <ele>235</ele>
        <time>2014-05-06T14:05:37Z</time>
      </trkpt>
      <trkpt lat="44.41824" lon="4.20636">
        <ele>234</ele>
        <time>2014-05-06T14:05:45Z</time>
      </trkpt>
      <trkpt lat="44.41828" lon="4.20628">
        <ele>233</ele>
        <time>2014-05-06T14:05:52Z</time>
      </trkpt>
      <trkpt lat="44.41833" lon="4.2062">
        <ele>233</ele>
        <time>2014-05-06T14:05:58Z</time>
      </trkpt>
      <trkpt lat="44.41836" lon="4.20613">
        <ele>234</ele>
        <time>2014-05-06T14:06:03Z</time>
      </trkpt>
      <trkpt lat="44.41838" lon="4.20606">
        <ele>235</ele>
        <time>2014-05-06T14:06:09Z</time>
      </trkpt>
      <trkpt lat="44.41841" lon="4.20602">
        <ele>236</ele>
        <time>2014-05-06T14:06:13Z</time>
      </trkpt>
      <trkpt lat="44.41845" lon="4.20596">
        <ele>237</ele>
        <time>2014-05-06T14:06:17Z</time>
      </trkpt>
      <trkpt lat="44.41848" lon="4.2059">
        <ele>237</ele>
        <time>2014-05-06T14:06:23Z</time>
      </trkpt>
      <trkpt lat="44.4185" lon="4.20584">
        <ele>238</ele>
        <time>2014-05-06T14:06:28Z</time>
      </trkpt>
      <trkpt lat="44.41854" lon="4.20577">
        <ele>240</ele>
        <time>2014-05-06T14:06:35Z</time>
      </trkpt>
      <trkpt lat="44.41858" lon="4.20572">
        <ele>240</ele>
        <time>2014-05-06T14:06:39Z</time>
      </trkpt>
      <trkpt lat="44.41861" lon="4.20567">
        <ele>240</ele>
        <time>2014-05-06T14:06:45Z</time>
      </trkpt>
      <trkpt lat="44.41863" lon="4.20559">
        <ele>239</ele>
        <time>2014-05-06T14:06:53Z</time>
      </trkpt>
      <trkpt lat="44.41867" lon="4.20554">
        <ele>238</ele>
        <time>2014-05-06T14:07:00Z</time>
      </trkpt>
      <trkpt lat="44.4187" lon="4.20548">
        <ele>236</ele>
        <time>2014-05-06T14:07:05Z</time>
      </trkpt>
      <trkpt lat="44.41873" lon="4.20543">
        <ele>236</ele>
        <time>2014-05-06T14:07:11Z</time>
      </trkpt>
      <trkpt lat="44.41877" lon="4.20537">
        <ele>236</ele>
        <time>2014-05-06T14:07:15Z</time>
      </trkpt>
      <trkpt lat="44.41881" lon="4.20531">
        <ele>236</ele>
        <time>2014-05-06T14:07:21Z</time>
      </trkpt>
      <trkpt lat="44.41884" lon="4.20524">
        <ele>236</ele>
        <time>2014-05-06T14:07:27Z</time>
      </trkpt>
      <trkpt lat="44.41888" lon="4.20519">
        <ele>236</ele>
        <time>2014-05-06T14:07:32Z</time>
      </trkpt>
      <trkpt lat="44.41894" lon="4.20515">
        <ele>236</ele>
        <time>2014-05-06T14:07:37Z</time>
      </trkpt>
      <trkpt lat="44.419" lon="4.20511">
        <ele>235</ele>
        <time>2014-05-06T14:07:43Z</time>
      </trkpt>
      <trkpt lat="44.41907" lon="4.20513">
        <ele>235</ele>
        <time>2014-05-06T14:07:50Z</time>
      </trkpt>
      <trkpt lat="44.41914" lon="4.20515">
        <ele>235</ele>
        <time>2014-05-06T14:07:57Z</time>
      </trkpt>
      <trkpt lat="44.41919" lon="4.20519">
        <ele>235</ele>
        <time>2014-05-06T14:08:01Z</time>
      </trkpt>
      <trkpt lat="44.41924" lon="4.20522">
        <ele>236</ele>
        <time>2014-05-06T14:08:05Z</time>
      </trkpt>
      <trkpt lat="44.4193" lon="4.20524">
        <ele>238</ele>
        <time>2014-05-06T14:08:09Z</time>
      </trkpt>
      <trkpt lat="44.41934" lon="4.20525">
        <ele>239</ele>
        <time>2014-05-06T14:08:13Z</time>
      </trkpt>
      <trkpt lat="44.41939" lon="4.20524">
        <ele>240</ele>
        <time>2014-05-06T14:08:18Z</time>
      </trkpt>
      <trkpt lat="44.41944" lon="4.20525">
        <ele>240</ele>
        <time>2014-05-06T14:08:23Z</time>
      </trkpt>
      <trkpt lat="44.41949" lon="4.20524">
        <ele>240</ele>
        <time>2014-05-06T14:08:28Z</time>
      </trkpt>
      <trkpt lat="44.41954" lon="4.20521">
        <ele>239</ele>
        <time>2014-05-06T14:08:34Z</time>
      </trkpt>
      <trkpt lat="44.41959" lon="4.20516">
        <ele>240</ele>
        <time>2014-05-06T14:08:39Z</time>
      </trkpt>
      <trkpt lat="44.41963" lon="4.20512">
        <ele>240</ele>
        <time>2014-05-06T14:08:45Z</time>
      </trkpt>
      <trkpt lat="44.41968" lon="4.20509">
        <ele>241</ele>
        <time>2014-05-06T14:08:50Z</time>
      </trkpt>
      <trkpt lat="44.41971" lon="4.20504">
        <ele>240</ele>
        <time>2014-05-06T14:08:53Z</time>
      </trkpt>
      <trkpt lat="44.41975" lon="4.205">
        <ele>241</ele>
        <time>2014-05-06T14:08:58Z</time>
      </trkpt>
      <trkpt lat="44.4198" lon="4.20497">
        <ele>241</ele>
        <time>2014-05-06T14:09:03Z</time>
      </trkpt>
      <trkpt lat="44.41985" lon="4.20498">
        <ele>241</ele>
        <time>2014-05-06T14:09:08Z</time>
      </trkpt>
      <trkpt lat="44.41992" lon="4.20493">
        <ele>242</ele>
        <time>2014-05-06T14:09:14Z</time>
      </trkpt>
      <trkpt lat="44.41995" lon="4.20488">
        <ele>242</ele>
        <time>2014-05-06T14:09:18Z</time>
      </trkpt>
      <trkpt lat="44.42" lon="4.20483">
        <ele>243</ele>
        <time>2014-05-06T14:09:23Z</time>
      </trkpt>
      <trkpt lat="44.42004" lon="4.2048">
        <ele>244</ele>
        <time>2014-05-06T14:09:28Z</time>
      </trkpt>
      <trkpt lat="44.42009" lon="4.20478">
        <ele>244</ele>
        <time>2014-05-06T14:09:33Z</time>
      </trkpt>
      <trkpt lat="44.42013" lon="4.20476">
        <ele>244</ele>
        <time>2014-05-06T14:09:38Z</time>
      </trkpt>
      <trkpt lat="44.42018" lon="4.20475">
        <ele>243</ele>
        <time>2014-05-06T14:09:42Z</time>
      </trkpt>
      <trkpt lat="44.42023" lon="4.20475">
        <ele>245</ele>
        <time>2014-05-06T14:09:48Z</time>
      </trkpt>
      <trkpt lat="44.4203" lon="4.20474">
        <ele>244</ele>
        <time>2014-05-06T14:09:56Z</time>
      </trkpt>
      <trkpt lat="44.42035" lon="4.20471">
        <ele>245</ele>
        <time>2014-05-06T14:10:00Z</time>
      </trkpt>
      <trkpt lat="44.42039" lon="4.20469">
        <ele>245</ele>
        <time>2014-05-06T14:10:03Z</time>
      </trkpt>
      <trkpt lat="44.42044" lon="4.20468">
        <ele>246</ele>
        <time>2014-05-06T14:10:07Z</time>
      </trkpt>
      <trkpt lat="44.42049" lon="4.20467">
        <ele>245</ele>
        <time>2014-05-06T14:10:12Z</time>
      </trkpt>
      <trkpt lat="44.42054" lon="4.20467">
        <ele>245</ele>
        <time>2014-05-06T14:10:16Z</time>
      </trkpt>
      <trkpt lat="44.42059" lon="4.20468">
        <ele>244</ele>
        <time>2014-05-06T14:10:21Z</time>
      </trkpt>
      <trkpt lat="44.42065" lon="4.20466">
        <ele>244</ele>
        <time>2014-05-06T14:10:28Z</time>
      </trkpt>
      <trkpt lat="44.4207" lon="4.20464">
        <ele>245</ele>
        <time>2014-05-06T14:10:32Z</time>
      </trkpt>
      <trkpt lat="44.42075" lon="4.20462">
        <ele>245</ele>
        <time>2014-05-06T14:10:37Z</time>
      </trkpt>
      <trkpt lat="44.4208" lon="4.20459">
        <ele>245</ele>
        <time>2014-05-06T14:10:41Z</time>
      </trkpt>
      <trkpt lat="44.42084" lon="4.20456">
        <ele>246</ele>
        <time>2014-05-06T14:10:46Z</time>
      </trkpt>
      <trkpt lat="44.42088" lon="4.20454">
        <ele>247</ele>
        <time>2014-05-06T14:10:51Z</time>
      </trkpt>
      <trkpt lat="44.42093" lon="4.20449">
        <ele>248</ele>
        <time>2014-05-06T14:10:56Z</time>
      </trkpt>
      <trkpt lat="44.42098" lon="4.20444">
        <ele>248</ele>
        <time>2014-05-06T14:11:03Z</time>
      </trkpt>
      <trkpt lat="44.42104" lon="4.20436">
        <ele>249</ele>
        <time>2014-05-06T14:11:12Z</time>
      </trkpt>
      <trkpt lat="44.42112" lon="4.20429">
        <ele>251</ele>
        <time>2014-05-06T14:11:20Z</time>
      </trkpt>
      <trkpt lat="44.42118" lon="4.20418">
        <ele>250</ele>
        <time>2014-05-06T14:11:28Z</time>
      </trkpt>
      <trkpt lat="44.42121" lon="4.20414">
        <ele>251</ele>
        <time>2014-05-06T14:11:33Z</time>
      </trkpt>
      <trkpt lat="44.42125" lon="4.20408">
        <ele>251</ele>
        <time>2014-05-06T14:11:37Z</time>
      </trkpt>
      <trkpt lat="44.42131" lon="4.20399">
        <ele>250</ele>
        <time>2014-05-06T14:11:45Z</time>
      </trkpt>
      <trkpt lat="44.42136" lon="4.20391">
        <ele>251</ele>
        <time>2014-05-06T14:11:51Z</time>
      </trkpt>
      <trkpt lat="44.42141" lon="4.20379">
        <ele>252</ele>
        <time>2014-05-06T14:12:00Z</time>
      </trkpt>
      <trkpt lat="44.42144" lon="4.20373">
        <ele>252</ele>
        <time>2014-05-06T14:12:05Z</time>
      </trkpt>
      <trkpt lat="44.42146" lon="4.20367">
        <ele>253</ele>
        <time>2014-05-06T14:12:10Z</time>
      </trkpt>
      <trkpt lat="44.42148" lon="4.2036">
        <ele>253</ele>
        <time>2014-05-06T14:12:14Z</time>
      </trkpt>
      <trkpt lat="44.42151" lon="4.20354">
        <ele>254</ele>
        <time>2014-05-06T14:12:21Z</time>
      </trkpt>
      <trkpt lat="44.42154" lon="4.20349">
        <ele>254</ele>
        <time>2014-05-06T14:12:25Z</time>
      </trkpt>
      <trkpt lat="44.42157" lon="4.20344">
        <ele>254</ele>
        <time>2014-05-06T14:12:31Z</time>
      </trkpt>
      <trkpt lat="44.42159" lon="4.20338">
        <ele>254</ele>
        <time>2014-05-06T14:12:36Z</time>
      </trkpt>
      <trkpt lat="44.42163" lon="4.20329">
        <ele>254</ele>
        <time>2014-05-06T14:12:43Z</time>
      </trkpt>
      <trkpt lat="44.42168" lon="4.20322">
        <ele>253</ele>
        <time>2014-05-06T14:12:49Z</time>
      </trkpt>
      <trkpt lat="44.42171" lon="4.20316">
        <ele>253</ele>
        <time>2014-05-06T14:12:54Z</time>
      </trkpt>
      <trkpt lat="44.42173" lon="4.20309">
        <ele>253</ele>
        <time>2014-05-06T14:12:59Z</time>
      </trkpt>
      <trkpt lat="44.42177" lon="4.20303">
        <ele>253</ele>
        <time>2014-05-06T14:13:04Z</time>
      </trkpt>
      <trkpt lat="44.42181" lon="4.20299">
        <ele>253</ele>
        <time>2014-05-06T14:13:09Z</time>
      </trkpt>
      <trkpt lat="44.42185" lon="4.20295">
        <ele>254</ele>
        <time>2014-05-06T14:13:13Z</time>
      </trkpt>
      <trkpt lat="44.42189" lon="4.20292">
        <ele>253</ele>
        <time>2014-05-06T14:13:17Z</time>
      </trkpt>
      <trkpt lat="44.42194" lon="4.20289">
        <ele>253</ele>
        <time>2014-05-06T14:13:21Z</time>
      </trkpt>
      <trkpt lat="44.42198" lon="4.20289">
        <ele>253</ele>
        <time>2014-05-06T14:13:25Z</time>
      </trkpt>
      <trkpt lat="44.42203" lon="4.20292">
        <ele>253</ele>
        <time>2014-05-06T14:13:29Z</time>
      </trkpt>
      <trkpt lat="44.42207" lon="4.20293">
        <ele>253</ele>
        <time>2014-05-06T14:13:34Z</time>
      </trkpt>
      <trkpt lat="44.42213" lon="4.20292">
        <ele>252</ele>
        <time>2014-05-06T14:13:40Z</time>
      </trkpt>
      <trkpt lat="44.42218" lon="4.20293">
        <ele>252</ele>
        <time>2014-05-06T14:13:44Z</time>
      </trkpt>
      <trkpt lat="44.42223" lon="4.20294">
        <ele>251</ele>
        <time>2014-05-06T14:13:49Z</time>
      </trkpt>
      <trkpt lat="44.42227" lon="4.20295">
        <ele>251</ele>
        <time>2014-05-06T14:13:53Z</time>
      </trkpt>
      <trkpt lat="44.42232" lon="4.20297">
        <ele>250</ele>
        <time>2014-05-06T14:13:57Z</time>
      </trkpt>
      <trkpt lat="44.42236" lon="4.20302">
        <ele>249</ele>
        <time>2014-05-06T14:14:01Z</time>
      </trkpt>
      <trkpt lat="44.42241" lon="4.20308">
        <ele>249</ele>
        <time>2014-05-06T14:14:06Z</time>
      </trkpt>
      <trkpt lat="44.42245" lon="4.20313">
        <ele>249</ele>
        <time>2014-05-06T14:14:11Z</time>
      </trkpt>
      <trkpt lat="44.42252" lon="4.20319">
        <ele>248</ele>
        <time>2014-05-06T14:14:17Z</time>
      </trkpt>
      <trkpt lat="44.42259" lon="4.20324">
        <ele>248</ele>
        <time>2014-05-06T14:14:22Z</time>
      </trkpt>
      <trkpt lat="44.42264" lon="4.20327">
        <ele>247</ele>
        <time>2014-05-06T14:14:29Z</time>
      </trkpt>
      <trkpt lat="44.42268" lon="4.20327">
        <ele>247</ele>
        <time>2014-05-06T14:14:35Z</time>
      </trkpt>
      <trkpt lat="44.42274" lon="4.20326">
        <ele>248</ele>
        <time>2014-05-06T14:14:39Z</time>
      </trkpt>
      <trkpt lat="44.42279" lon="4.20326">
        <ele>249</ele>
        <time>2014-05-06T14:14:44Z</time>
      </trkpt>
      <trkpt lat="44.42285" lon="4.20327">
        <ele>249</ele>
        <time>2014-05-06T14:14:49Z</time>
      </trkpt>
      <trkpt lat="44.42291" lon="4.20329">
        <ele>247</ele>
        <time>2014-05-06T14:14:55Z</time>
      </trkpt>
      <trkpt lat="44.42296" lon="4.2033">
        <ele>246</ele>
        <time>2014-05-06T14:15:00Z</time>
      </trkpt>
      <trkpt lat="44.423" lon="4.20329">
        <ele>246</ele>
        <time>2014-05-06T14:15:04Z</time>
      </trkpt>
      <trkpt lat="44.42305" lon="4.20326">
        <ele>246</ele>
        <time>2014-05-06T14:15:10Z</time>
      </trkpt>
      <trkpt lat="44.4231" lon="4.20322">
        <ele>247</ele>
        <time>2014-05-06T14:15:14Z</time>
      </trkpt>
      <trkpt lat="44.42315" lon="4.20318">
        <ele>247</ele>
        <time>2014-05-06T14:15:20Z</time>
      </trkpt>
      <trkpt lat="44.42319" lon="4.20314">
        <ele>246</ele>
        <time>2014-05-06T14:15:24Z</time>
      </trkpt>
      <trkpt lat="44.42323" lon="4.2031">
        <ele>246</ele>
        <time>2014-05-06T14:15:29Z</time>
      </trkpt>
      <trkpt lat="44.42328" lon="4.20307">
        <ele>246</ele>
        <time>2014-05-06T14:15:33Z</time>
      </trkpt>
      <trkpt lat="44.42333" lon="4.20303">
        <ele>245</ele>
        <time>2014-05-06T14:15:38Z</time>
      </trkpt>
      <trkpt lat="44.42337" lon="4.20299">
        <ele>244</ele>
        <time>2014-05-06T14:15:42Z</time>
      </trkpt>
      <trkpt lat="44.42341" lon="4.20294">
        <ele>243</ele>
        <time>2014-05-06T14:15:47Z</time>
      </trkpt>
      <trkpt lat="44.42345" lon="4.2029">
        <ele>243</ele>
        <time>2014-05-06T14:15:51Z</time>
      </trkpt>
      <trkpt lat="44.42349" lon="4.20288">
        <ele>243</ele>
        <time>2014-05-06T14:15:55Z</time>
      </trkpt>
      <trkpt lat="44.42352" lon="4.20282">
        <ele>242</ele>
        <time>2014-05-06T14:16:02Z</time>
      </trkpt>
      <trkpt lat="44.42352" lon="4.20278">
        <ele>243</ele>
        <time>2014-05-06T14:16:10Z</time>
      </trkpt>
      <trkpt lat="44.42351" lon="4.20271">
        <ele>242</ele>
        <time>2014-05-06T14:16:23Z</time>
      </trkpt>
      <trkpt lat="44.4235" lon="4.20263">
        <ele>242</ele>
        <time>2014-05-06T14:16:29Z</time>
      </trkpt>
      <trkpt lat="44.4235" lon="4.20256">
        <ele>240</ele>
        <time>2014-05-06T14:16:36Z</time>
      </trkpt>
      <trkpt lat="44.42352" lon="4.20249">
        <ele>241</ele>
        <time>2014-05-06T14:16:42Z</time>
      </trkpt>
      <trkpt lat="44.42353" lon="4.20242">
        <ele>241</ele>
        <time>2014-05-06T14:16:48Z</time>
      </trkpt>
      <trkpt lat="44.42353" lon="4.20236">
        <ele>240</ele>
        <time>2014-05-06T14:16:53Z</time>
      </trkpt>
      <trkpt lat="44.42352" lon="4.20229">
        <ele>238</ele>
        <time>2014-05-06T14:16:59Z</time>
      </trkpt>
      <trkpt lat="44.4235" lon="4.20222">
        <ele>238</ele>
        <time>2014-05-06T14:17:06Z</time>
      </trkpt>
      <trkpt lat="44.42349" lon="4.20216">
        <ele>237</ele>
        <time>2014-05-06T14:17:12Z</time>
      </trkpt>
      <trkpt lat="44.42347" lon="4.20207">
        <ele>235</ele>
        <time>2014-05-06T14:17:20Z</time>
      </trkpt>
      <trkpt lat="44.42345" lon="4.20194">
        <ele>235</ele>
        <time>2014-05-06T14:17:33Z</time>
      </trkpt>
      <trkpt lat="44.42345" lon="4.20188">
        <ele>236</ele>
        <time>2014-05-06T14:17:38Z</time>
      </trkpt>
      <trkpt lat="44.42344" lon="4.2018">
        <ele>236</ele>
        <time>2014-05-06T14:17:43Z</time>
      </trkpt>
      <trkpt lat="44.42343" lon="4.2017">
        <ele>235</ele>
        <time>2014-05-06T14:17:50Z</time>
      </trkpt>
      <trkpt lat="44.42342" lon="4.20164">
        <ele>236</ele>
        <time>2014-05-06T14:17:55Z</time>
      </trkpt>
      <trkpt lat="44.4234" lon="4.20158">
        <ele>236</ele>
        <time>2014-05-06T14:18:01Z</time>
      </trkpt>
      <trkpt lat="44.42339" lon="4.20147">
        <ele>234</ele>
        <time>2014-05-06T14:18:10Z</time>
      </trkpt>
      <trkpt lat="44.42338" lon="4.20138">
        <ele>234</ele>
        <time>2014-05-06T14:18:21Z</time>
      </trkpt>
      <trkpt lat="44.42337" lon="4.20131">
        <ele>234</ele>
        <time>2014-05-06T14:18:27Z</time>
      </trkpt>
      <trkpt lat="44.42336" lon="4.20127">
        <ele>233</ele>
        <time>2014-05-06T14:18:35Z</time>
      </trkpt>
      <trkpt lat="44.42333" lon="4.20121">
        <ele>233</ele>
        <time>2014-05-06T14:18:46Z</time>
      </trkpt>
      <trkpt lat="44.42329" lon="4.20119">
        <ele>233</ele>
        <time>2014-05-06T14:18:53Z</time>
      </trkpt>
      <trkpt lat="44.42324" lon="4.20116">
        <ele>233</ele>
        <time>2014-05-06T14:18:59Z</time>
      </trkpt>
      <trkpt lat="44.42319" lon="4.20113">
        <ele>233</ele>
        <time>2014-05-06T14:19:03Z</time>
      </trkpt>
      <trkpt lat="44.42314" lon="4.2011">
        <ele>233</ele>
        <time>2014-05-06T14:19:09Z</time>
      </trkpt>
      <trkpt lat="44.42307" lon="4.20104">
        <ele>234</ele>
        <time>2014-05-06T14:19:16Z</time>
      </trkpt>
      <trkpt lat="44.42302" lon="4.20101">
        <ele>235</ele>
        <time>2014-05-06T14:19:20Z</time>
      </trkpt>
      <trkpt lat="44.42298" lon="4.20097">
        <ele>235</ele>
        <time>2014-05-06T14:19:25Z</time>
      </trkpt>
      <trkpt lat="44.42293" lon="4.20093">
        <ele>234</ele>
        <time>2014-05-06T14:19:31Z</time>
      </trkpt>
      <trkpt lat="44.42289" lon="4.20091">
        <ele>233</ele>
        <time>2014-05-06T14:19:35Z</time>
      </trkpt>
      <trkpt lat="44.42284" lon="4.20087">
        <ele>231</ele>
        <time>2014-05-06T14:19:40Z</time>
      </trkpt>
      <trkpt lat="44.4228" lon="4.20084">
        <ele>231</ele>
        <time>2014-05-06T14:19:44Z</time>
      </trkpt>
      <trkpt lat="44.42276" lon="4.20079">
        <ele>232</ele>
        <time>2014-05-06T14:19:49Z</time>
      </trkpt>
      <trkpt lat="44.42272" lon="4.20075">
        <ele>232</ele>
        <time>2014-05-06T14:19:54Z</time>
      </trkpt>
      <trkpt lat="44.42267" lon="4.20071">
        <ele>233</ele>
        <time>2014-05-06T14:19:58Z</time>
      </trkpt>
      <trkpt lat="44.42263" lon="4.20069">
        <ele>232</ele>
        <time>2014-05-06T14:20:05Z</time>
      </trkpt>
      <trkpt lat="44.42261" lon="4.20067">
        <ele>230</ele>
        <time>2014-05-06T14:20:15Z</time>
      </trkpt>
      <trkpt lat="44.42257" lon="4.20063">
        <ele>230</ele>
        <time>2014-05-06T14:20:34Z</time>
      </trkpt>
      <trkpt lat="44.4226" lon="4.20065">
        <ele>232</ele>
        <time>2014-05-06T14:21:50Z</time>
      </trkpt>
      <trkpt lat="44.42265" lon="4.20067">
        <ele>233</ele>
        <time>2014-05-06T14:23:18Z</time>
      </trkpt>
      <trkpt lat="44.42268" lon="4.20068">
        <ele>232</ele>
        <time>2014-05-06T14:23:24Z</time>
      </trkpt>
      <trkpt lat="44.42272" lon="4.2007">
        <ele>232</ele>
        <time>2014-05-06T14:23:31Z</time>
      </trkpt>
      <trkpt lat="44.42277" lon="4.20073">
        <ele>233</ele>
        <time>2014-05-06T14:23:36Z</time>
      </trkpt>
      <trkpt lat="44.4228" lon="4.20078">
        <ele>232</ele>
        <time>2014-05-06T14:23:42Z</time>
      </trkpt>
      <trkpt lat="44.42284" lon="4.20083">
        <ele>233</ele>
        <time>2014-05-06T14:23:48Z</time>
      </trkpt>
      <trkpt lat="44.42287" lon="4.20088">
        <ele>233</ele>
        <time>2014-05-06T14:23:54Z</time>
      </trkpt>
      <trkpt lat="44.42291" lon="4.20092">
        <ele>232</ele>
        <time>2014-05-06T14:24:02Z</time>
      </trkpt>
      <trkpt lat="44.42295" lon="4.20096">
        <ele>232</ele>
        <time>2014-05-06T14:24:06Z</time>
      </trkpt>
      <trkpt lat="44.423" lon="4.20098">
        <ele>233</ele>
        <time>2014-05-06T14:24:11Z</time>
      </trkpt>
      <trkpt lat="44.42304" lon="4.20101">
        <ele>233</ele>
        <time>2014-05-06T14:24:18Z</time>
      </trkpt>
      <trkpt lat="44.42309" lon="4.20103">
        <ele>233</ele>
        <time>2014-05-06T14:24:24Z</time>
      </trkpt>
      <trkpt lat="44.42313" lon="4.20107">
        <ele>232</ele>
        <time>2014-05-06T14:24:28Z</time>
      </trkpt>
      <trkpt lat="44.42317" lon="4.2011">
        <ele>234</ele>
        <time>2014-05-06T14:24:34Z</time>
      </trkpt>
      <trkpt lat="44.4232" lon="4.20115">
        <ele>235</ele>
        <time>2014-05-06T14:24:40Z</time>
      </trkpt>
      <trkpt lat="44.42325" lon="4.20117">
        <ele>236</ele>
        <time>2014-05-06T14:24:46Z</time>
      </trkpt>
      <trkpt lat="44.42329" lon="4.20113">
        <ele>236</ele>
        <time>2014-05-06T14:24:54Z</time>
      </trkpt>
      <trkpt lat="44.42327" lon="4.20107">
        <ele>236</ele>
        <time>2014-05-06T14:24:59Z</time>
      </trkpt>
      <trkpt lat="44.42325" lon="4.20101">
        <ele>236</ele>
        <time>2014-05-06T14:25:05Z</time>
      </trkpt>
      <trkpt lat="44.42323" lon="4.20093">
        <ele>236</ele>
        <time>2014-05-06T14:25:11Z</time>
      </trkpt>
      <trkpt lat="44.42324" lon="4.20086">
        <ele>236</ele>
        <time>2014-05-06T14:25:15Z</time>
      </trkpt>
      <trkpt lat="44.42324" lon="4.20077">
        <ele>236</ele>
        <time>2014-05-06T14:25:23Z</time>
      </trkpt>
      <trkpt lat="44.42325" lon="4.20069">
        <ele>236</ele>
        <time>2014-05-06T14:25:27Z</time>
      </trkpt>
      <trkpt lat="44.42325" lon="4.20062">
        <ele>233</ele>
        <time>2014-05-06T14:25:32Z</time>
      </trkpt>
      <trkpt lat="44.42324" lon="4.20054">
        <ele>233</ele>
        <time>2014-05-06T14:25:36Z</time>
      </trkpt>
      <trkpt lat="44.42323" lon="4.20047">
        <ele>233</ele>
        <time>2014-05-06T14:25:41Z</time>
      </trkpt>
      <trkpt lat="44.42323" lon="4.20039">
        <ele>233</ele>
        <time>2014-05-06T14:25:46Z</time>
      </trkpt>
      <trkpt lat="44.42325" lon="4.20033">
        <ele>234</ele>
        <time>2014-05-06T14:25:52Z</time>
      </trkpt>
      <trkpt lat="44.42324" lon="4.20024">
        <ele>235</ele>
        <time>2014-05-06T14:26:05Z</time>
      </trkpt>
      <trkpt lat="44.42319" lon="4.20022">
        <ele>233</ele>
        <time>2014-05-06T14:26:11Z</time>
      </trkpt>
      <trkpt lat="44.42314" lon="4.2002">
        <ele>233</ele>
        <time>2014-05-06T14:26:15Z</time>
      </trkpt>
      <trkpt lat="44.42308" lon="4.20019">
        <ele>233</ele>
        <time>2014-05-06T14:26:19Z</time>
      </trkpt>
      <trkpt lat="44.42299" lon="4.20017">
        <ele>234</ele>
        <time>2014-05-06T14:26:26Z</time>
      </trkpt>
      <trkpt lat="44.42295" lon="4.20016">
        <ele>233</ele>
        <time>2014-05-06T14:26:30Z</time>
      </trkpt>
      <trkpt lat="44.42287" lon="4.20013">
        <ele>233</ele>
        <time>2014-05-06T14:26:36Z</time>
      </trkpt>
      <trkpt lat="44.42282" lon="4.2001">
        <ele>233</ele>
        <time>2014-05-06T14:26:42Z</time>
      </trkpt>
      <trkpt lat="44.42277" lon="4.20007">
        <ele>233</ele>
        <time>2014-05-06T14:26:46Z</time>
      </trkpt>
      <trkpt lat="44.42272" lon="4.20006">
        <ele>233</ele>
        <time>2014-05-06T14:26:50Z</time>
      </trkpt>
      <trkpt lat="44.42266" lon="4.20004">
        <ele>232</ele>
        <time>2014-05-06T14:26:55Z</time>
      </trkpt>
      <trkpt lat="44.42261" lon="4.20001">
        <ele>231</ele>
        <time>2014-05-06T14:26:59Z</time>
      </trkpt>
      <trkpt lat="44.42255" lon="4.2">
        <ele>232</ele>
        <time>2014-05-06T14:27:04Z</time>
      </trkpt>
      <trkpt lat="44.42251" lon="4.19998">
        <ele>232</ele>
        <time>2014-05-06T14:27:08Z</time>
      </trkpt>
      <trkpt lat="44.42246" lon="4.19994">
        <ele>231</ele>
        <time>2014-05-06T14:27:12Z</time>
      </trkpt>
      <trkpt lat="44.42241" lon="4.1999">
        <ele>230</ele>
        <time>2014-05-06T14:27:17Z</time>
      </trkpt>
      <trkpt lat="44.42237" lon="4.19988">
        <ele>231</ele>
        <time>2014-05-06T14:27:20Z</time>
      </trkpt>
      <trkpt lat="44.42231" lon="4.19984">
        <ele>233</ele>
        <time>2014-05-06T14:27:26Z</time>
      </trkpt>
      <trkpt lat="44.42226" lon="4.19982">
        <ele>234</ele>
        <time>2014-05-06T14:27:30Z</time>
      </trkpt>
      <trkpt lat="44.42222" lon="4.1998">
        <ele>234</ele>
        <time>2014-05-06T14:27:34Z</time>
      </trkpt>
      <trkpt lat="44.42217" lon="4.19978">
        <ele>235</ele>
        <time>2014-05-06T14:27:38Z</time>
      </trkpt>
      <trkpt lat="44.4221" lon="4.19976">
        <ele>234</ele>
        <time>2014-05-06T14:27:43Z</time>
      </trkpt>
      <trkpt lat="44.42205" lon="4.19975">
        <ele>233</ele>
        <time>2014-05-06T14:27:48Z</time>
      </trkpt>
      <trkpt lat="44.422" lon="4.19973">
        <ele>234</ele>
        <time>2014-05-06T14:27:53Z</time>
      </trkpt>
      <trkpt lat="44.42196" lon="4.19971">
        <ele>233</ele>
        <time>2014-05-06T14:27:57Z</time>
      </trkpt>
      <trkpt lat="44.42191" lon="4.19968">
        <ele>233</ele>
        <time>2014-05-06T14:28:00Z</time>
      </trkpt>
      <trkpt lat="44.42187" lon="4.19966">
        <ele>232</ele>
        <time>2014-05-06T14:28:04Z</time>
      </trkpt>
      <trkpt lat="44.42182" lon="4.19964">
        <ele>232</ele>
        <time>2014-05-06T14:28:09Z</time>
      </trkpt>
      <trkpt lat="44.42178" lon="4.19963">
        <ele>233</ele>
        <time>2014-05-06T14:28:12Z</time>
      </trkpt>
      <trkpt lat="44.42173" lon="4.19961">
        <ele>232</ele>
        <time>2014-05-06T14:28:17Z</time>
      </trkpt>
      <trkpt lat="44.42168" lon="4.19961">
        <ele>232</ele>
        <time>2014-05-06T14:28:21Z</time>
      </trkpt>
      <trkpt lat="44.42162" lon="4.19961">
        <ele>231</ele>
        <time>2014-05-06T14:28:25Z</time>
      </trkpt>
      <trkpt lat="44.42157" lon="4.1996">
        <ele>231</ele>
        <time>2014-05-06T14:28:29Z</time>
      </trkpt>
      <trkpt lat="44.42152" lon="4.1996">
        <ele>231</ele>
        <time>2014-05-06T14:28:33Z</time>
      </trkpt>
      <trkpt lat="44.42147" lon="4.1996">
        <ele>231</ele>
        <time>2014-05-06T14:28:37Z</time>
      </trkpt>
      <trkpt lat="44.42141" lon="4.19959">
        <ele>230</ele>
        <time>2014-05-06T14:28:44Z</time>
      </trkpt>
      <trkpt lat="44.42135" lon="4.19958">
        <ele>229</ele>
        <time>2014-05-06T14:28:49Z</time>
      </trkpt>
      <trkpt lat="44.42129" lon="4.19958">
        <ele>228</ele>
        <time>2014-05-06T14:28:54Z</time>
      </trkpt>
      <trkpt lat="44.42123" lon="4.19958">
        <ele>227</ele>
        <time>2014-05-06T14:28:59Z</time>
      </trkpt>
      <trkpt lat="44.42118" lon="4.19958">
        <ele>227</ele>
        <time>2014-05-06T14:29:03Z</time>
      </trkpt>
      <trkpt lat="44.42112" lon="4.19956">
        <ele>229</ele>
        <time>2014-05-06T14:29:07Z</time>
      </trkpt>
      <trkpt lat="44.42106" lon="4.19954">
        <ele>229</ele>
        <time>2014-05-06T14:29:11Z</time>
      </trkpt>
      <trkpt lat="44.42098" lon="4.19952">
        <ele>230</ele>
        <time>2014-05-06T14:29:17Z</time>
      </trkpt>
      <trkpt lat="44.42094" lon="4.1995">
        <ele>230</ele>
        <time>2014-05-06T14:29:22Z</time>
      </trkpt>
      <trkpt lat="44.42088" lon="4.19948">
        <ele>231</ele>
        <time>2014-05-06T14:29:26Z</time>
      </trkpt>
      <trkpt lat="44.42084" lon="4.19946">
        <ele>231</ele>
        <time>2014-05-06T14:29:30Z</time>
      </trkpt>
      <trkpt lat="44.4208" lon="4.19943">
        <ele>231</ele>
        <time>2014-05-06T14:29:36Z</time>
      </trkpt>
      <trkpt lat="44.42074" lon="4.19939">
        <ele>232</ele>
        <time>2014-05-06T14:29:41Z</time>
      </trkpt>
      <trkpt lat="44.42069" lon="4.19936">
        <ele>232</ele>
        <time>2014-05-06T14:29:45Z</time>
      </trkpt>
      <trkpt lat="44.42064" lon="4.19932">
        <ele>233</ele>
        <time>2014-05-06T14:29:49Z</time>
      </trkpt>
      <trkpt lat="44.42059" lon="4.19929">
        <ele>233</ele>
        <time>2014-05-06T14:29:53Z</time>
      </trkpt>
      <trkpt lat="44.42054" lon="4.19925">
        <ele>231</ele>
        <time>2014-05-06T14:29:58Z</time>
      </trkpt>
      <trkpt lat="44.4205" lon="4.19922">
        <ele>231</ele>
        <time>2014-05-06T14:30:02Z</time>
      </trkpt>
      <trkpt lat="44.42044" lon="4.19918">
        <ele>230</ele>
        <time>2014-05-06T14:30:07Z</time>
      </trkpt>
      <trkpt lat="44.4204" lon="4.19914">
        <ele>230</ele>
        <time>2014-05-06T14:30:12Z</time>
      </trkpt>
      <trkpt lat="44.42036" lon="4.19911">
        <ele>230</ele>
        <time>2014-05-06T14:30:16Z</time>
      </trkpt>
      <trkpt lat="44.42028" lon="4.19907">
        <ele>230</ele>
        <time>2014-05-06T14:30:22Z</time>
      </trkpt>
      <trkpt lat="44.4202" lon="4.19908">
        <ele>230</ele>
        <time>2014-05-06T14:30:28Z</time>
      </trkpt>
      <trkpt lat="44.42015" lon="4.19906">
        <ele>229</ele>
        <time>2014-05-06T14:30:31Z</time>
      </trkpt>
      <trkpt lat="44.4201" lon="4.19904">
        <ele>228</ele>
        <time>2014-05-06T14:30:36Z</time>
      </trkpt>
      <trkpt lat="44.42005" lon="4.19903">
        <ele>227</ele>
        <time>2014-05-06T14:30:40Z</time>
      </trkpt>
      <trkpt lat="44.41997" lon="4.19904">
        <ele>226</ele>
        <time>2014-05-06T14:30:46Z</time>
      </trkpt>
      <trkpt lat="44.41993" lon="4.19904">
        <ele>226</ele>
        <time>2014-05-06T14:30:50Z</time>
      </trkpt>
      <trkpt lat="44.41987" lon="4.19905">
        <ele>226</ele>
        <time>2014-05-06T14:30:54Z</time>
      </trkpt>
      <trkpt lat="44.41981" lon="4.19904">
        <ele>227</ele>
        <time>2014-05-06T14:30:59Z</time>
      </trkpt>
      <trkpt lat="44.41976" lon="4.19903">
        <ele>227</ele>
        <time>2014-05-06T14:31:04Z</time>
      </trkpt>
      <trkpt lat="44.41971" lon="4.19903">
        <ele>227</ele>
        <time>2014-05-06T14:31:08Z</time>
      </trkpt>
      <trkpt lat="44.41966" lon="4.19902">
        <ele>226</ele>
        <time>2014-05-06T14:31:11Z</time>
      </trkpt>
      <trkpt lat="44.41961" lon="4.19903">
        <ele>226</ele>
        <time>2014-05-06T14:31:14Z</time>
      </trkpt>
      <trkpt lat="44.41956" lon="4.19903">
        <ele>226</ele>
        <time>2014-05-06T14:31:19Z</time>
      </trkpt>
      <trkpt lat="44.41951" lon="4.19903">
        <ele>226</ele>
        <time>2014-05-06T14:31:23Z</time>
      </trkpt>
      <trkpt lat="44.41946" lon="4.19903">
        <ele>226</ele>
        <time>2014-05-06T14:31:28Z</time>
      </trkpt>
      <trkpt lat="44.41941" lon="4.19903">
        <ele>226</ele>
        <time>2014-05-06T14:31:32Z</time>
      </trkpt>
      <trkpt lat="44.41935" lon="4.19903">
        <ele>226</ele>
        <time>2014-05-06T14:31:36Z</time>
      </trkpt>
      <trkpt lat="44.41928" lon="4.19901">
        <ele>226</ele>
        <time>2014-05-06T14:31:43Z</time>
      </trkpt>
      <trkpt lat="44.41922" lon="4.19901">
        <ele>226</ele>
        <time>2014-05-06T14:31:48Z</time>
      </trkpt>
      <trkpt lat="44.41917" lon="4.199">
        <ele>227</ele>
        <time>2014-05-06T14:31:52Z</time>
      </trkpt>
      <trkpt lat="44.41911" lon="4.199">
        <ele>227</ele>
        <time>2014-05-06T14:31:56Z</time>
      </trkpt>
      <trkpt lat="44.41906" lon="4.19899">
        <ele>227</ele>
        <time>2014-05-06T14:32:02Z</time>
      </trkpt>
      <trkpt lat="44.41901" lon="4.19899">
        <ele>226</ele>
        <time>2014-05-06T14:32:07Z</time>
      </trkpt>
      <trkpt lat="44.41895" lon="4.19899">
        <ele>225</ele>
        <time>2014-05-06T14:32:10Z</time>
      </trkpt>
      <trkpt lat="44.4189" lon="4.199">
        <ele>224</ele>
        <time>2014-05-06T14:32:13Z</time>
      </trkpt>
      <trkpt lat="44.41885" lon="4.19901">
        <ele>224</ele>
        <time>2014-05-06T14:32:17Z</time>
      </trkpt>
      <trkpt lat="44.41881" lon="4.19901">
        <ele>225</ele>
        <time>2014-05-06T14:32:21Z</time>
      </trkpt>
      <trkpt lat="44.41876" lon="4.19899">
        <ele>226</ele>
        <time>2014-05-06T14:32:24Z</time>
      </trkpt>
      <trkpt lat="44.4187" lon="4.199">
        <ele>225</ele>
        <time>2014-05-06T14:32:28Z</time>
      </trkpt>
      <trkpt lat="44.41865" lon="4.19899">
        <ele>225</ele>
        <time>2014-05-06T14:32:32Z</time>
      </trkpt>
      <trkpt lat="44.41859" lon="4.19899">
        <ele>225</ele>
        <time>2014-05-06T14:32:36Z</time>
      </trkpt>
      <trkpt lat="44.41855" lon="4.19899">
        <ele>226</ele>
        <time>2014-05-06T14:32:41Z</time>
      </trkpt>
      <trkpt lat="44.4185" lon="4.199">
        <ele>227</ele>
        <time>2014-05-06T14:32:46Z</time>
      </trkpt>
      <trkpt lat="44.41844" lon="4.19901">
        <ele>227</ele>
        <time>2014-05-06T14:32:50Z</time>
      </trkpt>
      <trkpt lat="44.41839" lon="4.19903">
        <ele>227</ele>
        <time>2014-05-06T14:32:55Z</time>
      </trkpt>
      <trkpt lat="44.4183" lon="4.19899">
        <ele>224</ele>
        <time>2014-05-06T14:33:03Z</time>
      </trkpt>
      <trkpt lat="44.41826" lon="4.19896">
        <ele>224</ele>
        <time>2014-05-06T14:33:06Z</time>
      </trkpt>
      <trkpt lat="44.41817" lon="4.19893">
        <ele>224</ele>
        <time>2014-05-06T14:33:15Z</time>
      </trkpt>
      <trkpt lat="44.41812" lon="4.19893">
        <ele>224</ele>
        <time>2014-05-06T14:33:20Z</time>
      </trkpt>
      <trkpt lat="44.41806" lon="4.19892">
        <ele>224</ele>
        <time>2014-05-06T14:33:23Z</time>
      </trkpt>
      <trkpt lat="44.41799" lon="4.1989">
        <ele>223</ele>
        <time>2014-05-06T14:33:27Z</time>
      </trkpt>
      <trkpt lat="44.41795" lon="4.19889">
        <ele>223</ele>
        <time>2014-05-06T14:33:30Z</time>
      </trkpt>
      <trkpt lat="44.4179" lon="4.1989">
        <ele>224</ele>
        <time>2014-05-06T14:33:35Z</time>
      </trkpt>
      <trkpt lat="44.41785" lon="4.19892">
        <ele>224</ele>
        <time>2014-05-06T14:33:38Z</time>
      </trkpt>
      <trkpt lat="44.4178" lon="4.19892">
        <ele>223</ele>
        <time>2014-05-06T14:33:42Z</time>
      </trkpt>
      <trkpt lat="44.41774" lon="4.19892">
        <ele>223</ele>
        <time>2014-05-06T14:33:46Z</time>
      </trkpt>
      <trkpt lat="44.41769" lon="4.19892">
        <ele>223</ele>
        <time>2014-05-06T14:33:51Z</time>
      </trkpt>
      <trkpt lat="44.41764" lon="4.19894">
        <ele>223</ele>
        <time>2014-05-06T14:33:54Z</time>
      </trkpt>
      <trkpt lat="44.4176" lon="4.19894">
        <ele>223</ele>
        <time>2014-05-06T14:33:57Z</time>
      </trkpt>
      <trkpt lat="44.41755" lon="4.19895">
        <ele>223</ele>
        <time>2014-05-06T14:34:01Z</time>
      </trkpt>
      <trkpt lat="44.41746" lon="4.19897">
        <ele>223</ele>
        <time>2014-05-06T14:34:09Z</time>
      </trkpt>
      <trkpt lat="44.41741" lon="4.19898">
        <ele>222</ele>
        <time>2014-05-06T14:34:14Z</time>
      </trkpt>
      <trkpt lat="44.41736" lon="4.19898">
        <ele>222</ele>
        <time>2014-05-06T14:34:18Z</time>
      </trkpt>
      <trkpt lat="44.4173" lon="4.19899">
        <ele>221</ele>
        <time>2014-05-06T14:34:22Z</time>
      </trkpt>
      <trkpt lat="44.41725" lon="4.199">
        <ele>221</ele>
        <time>2014-05-06T14:34:25Z</time>
      </trkpt>
      <trkpt lat="44.4172" lon="4.19901">
        <ele>220</ele>
        <time>2014-05-06T14:34:28Z</time>
      </trkpt>
      <trkpt lat="44.41715" lon="4.19901">
        <ele>219</ele>
        <time>2014-05-06T14:34:33Z</time>
      </trkpt>
      <trkpt lat="44.4171" lon="4.19901">
        <ele>220</ele>
        <time>2014-05-06T14:34:39Z</time>
      </trkpt>
      <trkpt lat="44.41705" lon="4.19901">
        <ele>220</ele>
        <time>2014-05-06T14:34:42Z</time>
      </trkpt>
      <trkpt lat="44.417" lon="4.19901">
        <ele>220</ele>
        <time>2014-05-06T14:34:46Z</time>
      </trkpt>
      <trkpt lat="44.41694" lon="4.19902">
        <ele>220</ele>
        <time>2014-05-06T14:34:51Z</time>
      </trkpt>
      <trkpt lat="44.41687" lon="4.19903">
        <ele>220</ele>
        <time>2014-05-06T14:34:57Z</time>
      </trkpt>
      <trkpt lat="44.41682" lon="4.19904">
        <ele>220</ele>
        <time>2014-05-06T14:35:01Z</time>
      </trkpt>
      <trkpt lat="44.41677" lon="4.19904">
        <ele>219</ele>
        <time>2014-05-06T14:35:06Z</time>
      </trkpt>
      <trkpt lat="44.41672" lon="4.19903">
        <ele>218</ele>
        <time>2014-05-06T14:35:10Z</time>
      </trkpt>
      <trkpt lat="44.41667" lon="4.19903">
        <ele>217</ele>
        <time>2014-05-06T14:35:14Z</time>
      </trkpt>
      <trkpt lat="44.41662" lon="4.19903">
        <ele>216</ele>
        <time>2014-05-06T14:35:17Z</time>
      </trkpt>
      <trkpt lat="44.41656" lon="4.19903">
        <ele>216</ele>
        <time>2014-05-06T14:35:21Z</time>
      </trkpt>
      <trkpt lat="44.4165" lon="4.19901">
        <ele>215</ele>
        <time>2014-05-06T14:35:25Z</time>
      </trkpt>
      <trkpt lat="44.41643" lon="4.19901">
        <ele>215</ele>
        <time>2014-05-06T14:35:37Z</time>
      </trkpt>
      <trkpt lat="44.41637" lon="4.199">
        <ele>215</ele>
        <time>2014-05-06T14:35:42Z</time>
      </trkpt>
      <trkpt lat="44.4163" lon="4.19899">
        <ele>217</ele>
        <time>2014-05-06T14:35:49Z</time>
      </trkpt>
      <trkpt lat="44.41626" lon="4.19897">
        <ele>217</ele>
        <time>2014-05-06T14:35:52Z</time>
      </trkpt>
      <trkpt lat="44.41619" lon="4.19895">
        <ele>218</ele>
        <time>2014-05-06T14:35:58Z</time>
      </trkpt>
      <trkpt lat="44.41614" lon="4.19894">
        <ele>218</ele>
        <time>2014-05-06T14:36:02Z</time>
      </trkpt>
      <trkpt lat="44.4161" lon="4.19895">
        <ele>218</ele>
        <time>2014-05-06T14:36:07Z</time>
      </trkpt>
      <trkpt lat="44.41603" lon="4.19896">
        <ele>218</ele>
        <time>2014-05-06T14:36:11Z</time>
      </trkpt>
      <trkpt lat="44.41598" lon="4.19896">
        <ele>218</ele>
        <time>2014-05-06T14:36:14Z</time>
      </trkpt>
      <trkpt lat="44.41593" lon="4.19896">
        <ele>217</ele>
        <time>2014-05-06T14:36:18Z</time>
      </trkpt>
      <trkpt lat="44.41588" lon="4.19895">
        <ele>217</ele>
        <time>2014-05-06T14:36:22Z</time>
      </trkpt>
      <trkpt lat="44.4158" lon="4.19894">
        <ele>217</ele>
        <time>2014-05-06T14:36:28Z</time>
      </trkpt>
      <trkpt lat="44.41575" lon="4.19895">
        <ele>217</ele>
        <time>2014-05-06T14:36:32Z</time>
      </trkpt>
      <trkpt lat="44.4157" lon="4.19895">
        <ele>217</ele>
        <time>2014-05-06T14:36:36Z</time>
      </trkpt>
      <trkpt lat="44.41566" lon="4.19894">
        <ele>217</ele>
        <time>2014-05-06T14:36:40Z</time>
      </trkpt>
      <trkpt lat="44.41561" lon="4.19896">
        <ele>217</ele>
        <time>2014-05-06T14:36:43Z</time>
      </trkpt>
      <trkpt lat="44.41556" lon="4.19897">
        <ele>217</ele>
        <time>2014-05-06T14:36:47Z</time>
      </trkpt>
      <trkpt lat="44.41551" lon="4.19899">
        <ele>217</ele>
        <time>2014-05-06T14:36:50Z</time>
      </trkpt>
      <trkpt lat="44.41547" lon="4.19898">
        <ele>215</ele>
        <time>2014-05-06T14:36:54Z</time>
      </trkpt>
      <trkpt lat="44.41541" lon="4.19898">
        <ele>214</ele>
        <time>2014-05-06T14:36:59Z</time>
      </trkpt>
      <trkpt lat="44.41536" lon="4.19898">
        <ele>214</ele>
        <time>2014-05-06T14:37:03Z</time>
      </trkpt>
      <trkpt lat="44.41531" lon="4.19899">
        <ele>214</ele>
        <time>2014-05-06T14:37:07Z</time>
      </trkpt>
      <trkpt lat="44.41526" lon="4.199">
        <ele>215</ele>
        <time>2014-05-06T14:37:12Z</time>
      </trkpt>
      <trkpt lat="44.41521" lon="4.199">
        <ele>215</ele>
        <time>2014-05-06T14:37:16Z</time>
      </trkpt>
      <trkpt lat="44.41516" lon="4.199">
        <ele>214</ele>
        <time>2014-05-06T14:37:21Z</time>
      </trkpt>
      <trkpt lat="44.41511" lon="4.19903">
        <ele>213</ele>
        <time>2014-05-06T14:37:28Z</time>
      </trkpt>
      <trkpt lat="44.41506" lon="4.199">
        <ele>212</ele>
        <time>2014-05-06T14:37:32Z</time>
      </trkpt>
      <trkpt lat="44.415" lon="4.19896">
        <ele>210</ele>
        <time>2014-05-06T14:37:36Z</time>
      </trkpt>
      <trkpt lat="44.41492" lon="4.19894">
        <ele>209</ele>
        <time>2014-05-06T14:37:43Z</time>
      </trkpt>
      <trkpt lat="44.41487" lon="4.19894">
        <ele>207</ele>
        <time>2014-05-06T14:37:46Z</time>
      </trkpt>
      <trkpt lat="44.41478" lon="4.1989">
        <ele>207</ele>
        <time>2014-05-06T14:37:54Z</time>
      </trkpt>
      <trkpt lat="44.41469" lon="4.19886">
        <ele>206</ele>
        <time>2014-05-06T14:38:03Z</time>
      </trkpt>
      <trkpt lat="44.41464" lon="4.19885">
        <ele>206</ele>
        <time>2014-05-06T14:38:07Z</time>
      </trkpt>
      <trkpt lat="44.41459" lon="4.19882">
        <ele>205</ele>
        <time>2014-05-06T14:38:10Z</time>
      </trkpt>
      <trkpt lat="44.41454" lon="4.19881">
        <ele>205</ele>
        <time>2014-05-06T14:38:14Z</time>
      </trkpt>
      <trkpt lat="44.41449" lon="4.19876">
        <ele>205</ele>
        <time>2014-05-06T14:38:20Z</time>
      </trkpt>
      <trkpt lat="44.4144" lon="4.19874">
        <ele>204</ele>
        <time>2014-05-06T14:38:28Z</time>
      </trkpt>
      <trkpt lat="44.41431" lon="4.19871">
        <ele>204</ele>
        <time>2014-05-06T14:38:35Z</time>
      </trkpt>
      <trkpt lat="44.41427" lon="4.19867">
        <ele>205</ele>
        <time>2014-05-06T14:38:39Z</time>
      </trkpt>
      <trkpt lat="44.4142" lon="4.19867">
        <ele>204</ele>
        <time>2014-05-06T14:38:45Z</time>
      </trkpt>
      <trkpt lat="44.41416" lon="4.19867">
        <ele>204</ele>
        <time>2014-05-06T14:38:47Z</time>
      </trkpt>
      <trkpt lat="44.41411" lon="4.19867">
        <ele>203</ele>
        <time>2014-05-06T14:38:51Z</time>
      </trkpt>
      <trkpt lat="44.41406" lon="4.19867">
        <ele>202</ele>
        <time>2014-05-06T14:38:54Z</time>
      </trkpt>
      <trkpt lat="44.41397" lon="4.19869">
        <ele>203</ele>
        <time>2014-05-06T14:39:00Z</time>
      </trkpt>
      <trkpt lat="44.41392" lon="4.19868">
        <ele>204</ele>
        <time>2014-05-06T14:39:04Z</time>
      </trkpt>
      <trkpt lat="44.41387" lon="4.19869">
        <ele>206</ele>
        <time>2014-05-06T14:39:09Z</time>
      </trkpt>
      <trkpt lat="44.41382" lon="4.19868">
        <ele>205</ele>
        <time>2014-05-06T14:39:14Z</time>
      </trkpt>
      <trkpt lat="44.41376" lon="4.19865">
        <ele>206</ele>
        <time>2014-05-06T14:39:22Z</time>
      </trkpt>
      <trkpt lat="44.41371" lon="4.19864">
        <ele>206</ele>
        <time>2014-05-06T14:39:26Z</time>
      </trkpt>
      <trkpt lat="44.41366" lon="4.19864">
        <ele>206</ele>
        <time>2014-05-06T14:39:30Z</time>
      </trkpt>
      <trkpt lat="44.4136" lon="4.19864">
        <ele>206</ele>
        <time>2014-05-06T14:39:34Z</time>
      </trkpt>
      <trkpt lat="44.41354" lon="4.19864">
        <ele>206</ele>
        <time>2014-05-06T14:39:38Z</time>
      </trkpt>
      <trkpt lat="44.41349" lon="4.19863">
        <ele>206</ele>
        <time>2014-05-06T14:39:42Z</time>
      </trkpt>
      <trkpt lat="44.41344" lon="4.19862">
        <ele>206</ele>
        <time>2014-05-06T14:39:45Z</time>
      </trkpt>
      <trkpt lat="44.41339" lon="4.19864">
        <ele>207</ele>
        <time>2014-05-06T14:39:49Z</time>
      </trkpt>
      <trkpt lat="44.41334" lon="4.19867">
        <ele>207</ele>
        <time>2014-05-06T14:39:54Z</time>
      </trkpt>
      <trkpt lat="44.4133" lon="4.1987">
        <ele>208</ele>
        <time>2014-05-06T14:39:58Z</time>
      </trkpt>
      <trkpt lat="44.41325" lon="4.19875">
        <ele>208</ele>
        <time>2014-05-06T14:40:03Z</time>
      </trkpt>
      <trkpt lat="44.41322" lon="4.19881">
        <ele>208</ele>
        <time>2014-05-06T14:40:07Z</time>
      </trkpt>
      <trkpt lat="44.41319" lon="4.19888">
        <ele>208</ele>
        <time>2014-05-06T14:40:12Z</time>
      </trkpt>
      <trkpt lat="44.41314" lon="4.19897">
        <ele>209</ele>
        <time>2014-05-06T14:40:18Z</time>
      </trkpt>
      <trkpt lat="44.41305" lon="4.19906">
        <ele>209</ele>
        <time>2014-05-06T14:40:25Z</time>
      </trkpt>
      <trkpt lat="44.413" lon="4.1991">
        <ele>208</ele>
        <time>2014-05-06T14:40:28Z</time>
      </trkpt>
      <trkpt lat="44.41296" lon="4.19913">
        <ele>208</ele>
        <time>2014-05-06T14:40:31Z</time>
      </trkpt>
      <trkpt lat="44.41291" lon="4.19915">
        <ele>208</ele>
        <time>2014-05-06T14:40:35Z</time>
      </trkpt>
      <trkpt lat="44.41284" lon="4.19916">
        <ele>207</ele>
        <time>2014-05-06T14:40:40Z</time>
      </trkpt>
      <trkpt lat="44.41279" lon="4.19915">
        <ele>207</ele>
        <time>2014-05-06T14:40:44Z</time>
      </trkpt>
      <trkpt lat="44.41274" lon="4.19912">
        <ele>206</ele>
        <time>2014-05-06T14:40:48Z</time>
      </trkpt>
      <trkpt lat="44.41269" lon="4.19908">
        <ele>206</ele>
        <time>2014-05-06T14:40:52Z</time>
      </trkpt>
      <trkpt lat="44.41265" lon="4.19905">
        <ele>206</ele>
        <time>2014-05-06T14:40:55Z</time>
      </trkpt>
      <trkpt lat="44.4126" lon="4.19902">
        <ele>207</ele>
        <time>2014-05-06T14:40:59Z</time>
      </trkpt>
      <trkpt lat="44.41254" lon="4.19899">
        <ele>207</ele>
        <time>2014-05-06T14:41:03Z</time>
      </trkpt>
      <trkpt lat="44.41248" lon="4.19898">
        <ele>206</ele>
        <time>2014-05-06T14:41:06Z</time>
      </trkpt>
      <trkpt lat="44.41244" lon="4.19897">
        <ele>206</ele>
        <time>2014-05-06T14:41:09Z</time>
      </trkpt>
      <trkpt lat="44.41238" lon="4.19897">
        <ele>206</ele>
        <time>2014-05-06T14:41:12Z</time>
      </trkpt>
      <trkpt lat="44.41233" lon="4.19897">
        <ele>207</ele>
        <time>2014-05-06T14:41:16Z</time>
      </trkpt>
      <trkpt lat="44.41226" lon="4.19897">
        <ele>207</ele>
        <time>2014-05-06T14:41:22Z</time>
      </trkpt>
      <trkpt lat="44.41221" lon="4.19899">
        <ele>208</ele>
        <time>2014-05-06T14:41:26Z</time>
      </trkpt>
      <trkpt lat="44.41214" lon="4.199">
        <ele>208</ele>
        <time>2014-05-06T14:41:31Z</time>
      </trkpt>
      <trkpt lat="44.41208" lon="4.19899">
        <ele>208</ele>
        <time>2014-05-06T14:41:35Z</time>
      </trkpt>
      <trkpt lat="44.41203" lon="4.19899">
        <ele>208</ele>
        <time>2014-05-06T14:41:39Z</time>
      </trkpt>
      <trkpt lat="44.41198" lon="4.19899">
        <ele>208</ele>
        <time>2014-05-06T14:41:44Z</time>
      </trkpt>
      <trkpt lat="44.41191" lon="4.19898">
        <ele>208</ele>
        <time>2014-05-06T14:41:48Z</time>
      </trkpt>
      <trkpt lat="44.41186" lon="4.19898">
        <ele>208</ele>
        <time>2014-05-06T14:41:52Z</time>
      </trkpt>
      <trkpt lat="44.41181" lon="4.19898">
        <ele>209</ele>
        <time>2014-05-06T14:41:55Z</time>
      </trkpt>
      <trkpt lat="44.41175" lon="4.19898">
        <ele>210</ele>
        <time>2014-05-06T14:41:58Z</time>
      </trkpt>
      <trkpt lat="44.41171" lon="4.19898">
        <ele>209</ele>
        <time>2014-05-06T14:42:02Z</time>
      </trkpt>
      <trkpt lat="44.41166" lon="4.19899">
        <ele>209</ele>
        <time>2014-05-06T14:42:06Z</time>
      </trkpt>
      <trkpt lat="44.41157" lon="4.199">
        <ele>210</ele>
        <time>2014-05-06T14:42:12Z</time>
      </trkpt>
      <trkpt lat="44.41151" lon="4.19901">
        <ele>210</ele>
        <time>2014-05-06T14:42:17Z</time>
      </trkpt>
      <trkpt lat="44.41146" lon="4.19901">
        <ele>211</ele>
        <time>2014-05-06T14:42:21Z</time>
      </trkpt>
      <trkpt lat="44.41141" lon="4.19903">
        <ele>210</ele>
        <time>2014-05-06T14:42:25Z</time>
      </trkpt>
      <trkpt lat="44.41133" lon="4.19906">
        <ele>211</ele>
        <time>2014-05-06T14:42:31Z</time>
      </trkpt>
      <trkpt lat="44.41128" lon="4.19909">
        <ele>210</ele>
        <time>2014-05-06T14:42:35Z</time>
      </trkpt>
      <trkpt lat="44.41124" lon="4.1991">
        <ele>210</ele>
        <time>2014-05-06T14:42:38Z</time>
      </trkpt>
      <trkpt lat="44.41119" lon="4.19912">
        <ele>211</ele>
        <time>2014-05-06T14:42:41Z</time>
      </trkpt>
      <trkpt lat="44.41114" lon="4.19913">
        <ele>211</ele>
        <time>2014-05-06T14:42:46Z</time>
      </trkpt>
      <trkpt lat="44.41108" lon="4.19915">
        <ele>211</ele>
        <time>2014-05-06T14:42:50Z</time>
      </trkpt>
      <trkpt lat="44.41103" lon="4.19917">
        <ele>211</ele>
        <time>2014-05-06T14:42:54Z</time>
      </trkpt>
      <trkpt lat="44.41098" lon="4.19918">
        <ele>212</ele>
        <time>2014-05-06T14:42:59Z</time>
      </trkpt>
      <trkpt lat="44.41094" lon="4.19917">
        <ele>213</ele>
        <time>2014-05-06T14:43:03Z</time>
      </trkpt>
      <trkpt lat="44.41089" lon="4.19914">
        <ele>213</ele>
        <time>2014-05-06T14:43:09Z</time>
      </trkpt>
      <trkpt lat="44.41084" lon="4.1991">
        <ele>214</ele>
        <time>2014-05-06T14:43:14Z</time>
      </trkpt>
      <trkpt lat="44.41078" lon="4.19903">
        <ele>213</ele>
        <time>2014-05-06T14:43:19Z</time>
      </trkpt>
      <trkpt lat="44.41072" lon="4.19893">
        <ele>212</ele>
        <time>2014-05-06T14:43:26Z</time>
      </trkpt>
      <trkpt lat="44.41069" lon="4.19889">
        <ele>212</ele>
        <time>2014-05-06T14:43:29Z</time>
      </trkpt>
      <trkpt lat="44.41065" lon="4.1988">
        <ele>212</ele>
        <time>2014-05-06T14:43:34Z</time>
      </trkpt>
      <trkpt lat="44.41062" lon="4.19874">
        <ele>212</ele>
        <time>2014-05-06T14:43:37Z</time>
      </trkpt>
      <trkpt lat="44.41057" lon="4.19864">
        <ele>211</ele>
        <time>2014-05-06T14:43:44Z</time>
      </trkpt>
      <trkpt lat="44.41056" lon="4.19856">
        <ele>209</ele>
        <time>2014-05-06T14:43:48Z</time>
      </trkpt>
      <trkpt lat="44.41051" lon="4.19845">
        <ele>208</ele>
        <time>2014-05-06T14:43:55Z</time>
      </trkpt>
      <trkpt lat="44.41046" lon="4.19833">
        <ele>207</ele>
        <time>2014-05-06T14:44:01Z</time>
      </trkpt>
      <trkpt lat="44.41043" lon="4.19827">
        <ele>207</ele>
        <time>2014-05-06T14:44:05Z</time>
      </trkpt>
      <trkpt lat="44.4104" lon="4.1982">
        <ele>208</ele>
        <time>2014-05-06T14:44:09Z</time>
      </trkpt>
      <trkpt lat="44.41036" lon="4.19816">
        <ele>211</ele>
        <time>2014-05-06T14:44:14Z</time>
      </trkpt>
      <trkpt lat="44.41029" lon="4.19811">
        <ele>212</ele>
        <time>2014-05-06T14:44:20Z</time>
      </trkpt>
      <trkpt lat="44.41021" lon="4.19811">
        <ele>212</ele>
        <time>2014-05-06T14:44:28Z</time>
      </trkpt>
      <trkpt lat="44.41013" lon="4.19808">
        <ele>214</ele>
        <time>2014-05-06T14:44:35Z</time>
      </trkpt>
      <trkpt lat="44.41007" lon="4.19808">
        <ele>214</ele>
        <time>2014-05-06T14:44:39Z</time>
      </trkpt>
      <trkpt lat="44.41002" lon="4.19809">
        <ele>214</ele>
        <time>2014-05-06T14:44:43Z</time>
      </trkpt>
      <trkpt lat="44.40997" lon="4.1981">
        <ele>213</ele>
        <time>2014-05-06T14:44:47Z</time>
      </trkpt>
      <trkpt lat="44.40991" lon="4.19811">
        <ele>213</ele>
        <time>2014-05-06T14:44:51Z</time>
      </trkpt>
      <trkpt lat="44.40987" lon="4.19812">
        <ele>213</ele>
        <time>2014-05-06T14:44:54Z</time>
      </trkpt>
      <trkpt lat="44.40981" lon="4.19815">
        <ele>213</ele>
        <time>2014-05-06T14:44:59Z</time>
      </trkpt>
      <trkpt lat="44.40975" lon="4.19817">
        <ele>211</ele>
        <time>2014-05-06T14:45:04Z</time>
      </trkpt>
      <trkpt lat="44.40967" lon="4.19812">
        <ele>211</ele>
        <time>2014-05-06T14:45:10Z</time>
      </trkpt>
      <trkpt lat="44.40959" lon="4.19804">
        <ele>210</ele>
        <time>2014-05-06T14:45:16Z</time>
      </trkpt>
      <trkpt lat="44.40953" lon="4.19799">
        <ele>210</ele>
        <time>2014-05-06T14:45:21Z</time>
      </trkpt>
      <trkpt lat="44.40948" lon="4.19793">
        <ele>210</ele>
        <time>2014-05-06T14:45:25Z</time>
      </trkpt>
      <trkpt lat="44.40944" lon="4.1979">
        <ele>209</ele>
        <time>2014-05-06T14:45:28Z</time>
      </trkpt>
      <trkpt lat="44.4094" lon="4.19788">
        <ele>208</ele>
        <time>2014-05-06T14:45:32Z</time>
      </trkpt>
      <trkpt lat="44.40935" lon="4.19784">
        <ele>207</ele>
        <time>2014-05-06T14:45:36Z</time>
      </trkpt>
      <trkpt lat="44.40926" lon="4.19783">
        <ele>205</ele>
        <time>2014-05-06T14:45:44Z</time>
      </trkpt>
      <trkpt lat="44.40918" lon="4.19783">
        <ele>205</ele>
        <time>2014-05-06T14:45:50Z</time>
      </trkpt>
      <trkpt lat="44.40908" lon="4.1979">
        <ele>204</ele>
        <time>2014-05-06T14:45:57Z</time>
      </trkpt>
      <trkpt lat="44.40905" lon="4.19794">
        <ele>204</ele>
        <time>2014-05-06T14:46:00Z</time>
      </trkpt>
      <trkpt lat="44.40901" lon="4.19803">
        <ele>205</ele>
        <time>2014-05-06T14:46:05Z</time>
      </trkpt>
      <trkpt lat="44.40898" lon="4.19809">
        <ele>207</ele>
        <time>2014-05-06T14:46:10Z</time>
      </trkpt>
      <trkpt lat="44.40891" lon="4.19819">
        <ele>207</ele>
        <time>2014-05-06T14:46:16Z</time>
      </trkpt>
      <trkpt lat="44.40881" lon="4.19829">
        <ele>205</ele>
        <time>2014-05-06T14:46:24Z</time>
      </trkpt>
      <trkpt lat="44.40871" lon="4.1983">
        <ele>202</ele>
        <time>2014-05-06T14:46:34Z</time>
      </trkpt>
      <trkpt lat="44.40862" lon="4.19823">
        <ele>202</ele>
        <time>2014-05-06T14:46:43Z</time>
      </trkpt>
      <trkpt lat="44.40854" lon="4.19818">
        <ele>203</ele>
        <time>2014-05-06T14:46:48Z</time>
      </trkpt>
      <trkpt lat="44.40843" lon="4.19811">
        <ele>203</ele>
        <time>2014-05-06T14:46:55Z</time>
      </trkpt>
      <trkpt lat="44.40835" lon="4.19803">
        <ele>202</ele>
        <time>2014-05-06T14:47:02Z</time>
      </trkpt>
      <trkpt lat="44.40827" lon="4.19796">
        <ele>200</ele>
        <time>2014-05-06T14:47:09Z</time>
      </trkpt>
      <trkpt lat="44.40817" lon="4.19789">
        <ele>199</ele>
        <time>2014-05-06T14:47:15Z</time>
      </trkpt>
      <trkpt lat="44.4081" lon="4.19781">
        <ele>199</ele>
        <time>2014-05-06T14:47:20Z</time>
      </trkpt>
      <trkpt lat="44.40801" lon="4.19774">
        <ele>199</ele>
        <time>2014-05-06T14:47:26Z</time>
      </trkpt>
      <trkpt lat="44.40792" lon="4.19769">
        <ele>201</ele>
        <time>2014-05-06T14:47:32Z</time>
      </trkpt>
      <trkpt lat="44.40781" lon="4.19765">
        <ele>202</ele>
        <time>2014-05-06T14:47:39Z</time>
      </trkpt>
      <trkpt lat="44.40771" lon="4.19761">
        <ele>202</ele>
        <time>2014-05-06T14:47:46Z</time>
      </trkpt>
      <trkpt lat="44.40761" lon="4.19758">
        <ele>201</ele>
        <time>2014-05-06T14:47:53Z</time>
      </trkpt>
      <trkpt lat="44.40751" lon="4.19755">
        <ele>200</ele>
        <time>2014-05-06T14:48:01Z</time>
      </trkpt>
      <trkpt lat="44.40742" lon="4.19754">
        <ele>197</ele>
        <time>2014-05-06T14:48:07Z</time>
      </trkpt>
      <trkpt lat="44.40733" lon="4.19752">
        <ele>195</ele>
        <time>2014-05-06T14:48:13Z</time>
      </trkpt>
      <trkpt lat="44.40723" lon="4.19749">
        <ele>192</ele>
        <time>2014-05-06T14:48:21Z</time>
      </trkpt>
      <trkpt lat="44.40714" lon="4.19746">
        <ele>190</ele>
        <time>2014-05-06T14:48:29Z</time>
      </trkpt>
      <trkpt lat="44.40704" lon="4.19744">
        <ele>188</ele>
        <time>2014-05-06T14:48:37Z</time>
      </trkpt>
      <trkpt lat="44.40689" lon="4.19739">
        <ele>186</ele>
        <time>2014-05-06T14:48:48Z</time>
      </trkpt>
      <trkpt lat="44.40679" lon="4.19736">
        <ele>184</ele>
        <time>2014-05-06T14:48:53Z</time>
      </trkpt>
      <trkpt lat="44.4067" lon="4.19733">
        <ele>184</ele>
        <time>2014-05-06T14:48:58Z</time>
      </trkpt>
      <trkpt lat="44.40659" lon="4.19729">
        <ele>184</ele>
        <time>2014-05-06T14:49:04Z</time>
      </trkpt>
      <trkpt lat="44.40651" lon="4.19724">
        <ele>185</ele>
        <time>2014-05-06T14:49:09Z</time>
      </trkpt>
      <trkpt lat="44.40643" lon="4.19717">
        <ele>187</ele>
        <time>2014-05-06T14:49:15Z</time>
      </trkpt>
      <trkpt lat="44.40631" lon="4.1971">
        <ele>189</ele>
        <time>2014-05-06T14:49:23Z</time>
      </trkpt>
      <trkpt lat="44.40622" lon="4.19705">
        <ele>191</ele>
        <time>2014-05-06T14:49:30Z</time>
      </trkpt>
      <trkpt lat="44.40613" lon="4.19699">
        <ele>190</ele>
        <time>2014-05-06T14:49:38Z</time>
      </trkpt>
      <trkpt lat="44.40608" lon="4.19694">
        <ele>190</ele>
        <time>2014-05-06T14:49:43Z</time>
      </trkpt>
      <trkpt lat="44.406" lon="4.19687">
        <ele>186</ele>
        <time>2014-05-06T14:49:51Z</time>
      </trkpt>
    </trkseg>
  </trk>
</gpx>